Wetterdaten: Donnerstag, 02.11.2017
Datum Zeit Temp. A. Pool Temp. Feuchte A. Luftdruck Regen Wind Richtung Richtung Sonnenschein ET UV Solar Taupunkt Windchill Windben Empfang
02.11.2017 00:00 3,3 C 7,8 C 97 % 1021,3 hPa 0,0 l/m 2,3 km/h (1 Bft) NO 53 0 min 0,000 mm 0,0 UV-I 0 W/m 2,9 C 3,3 C 3,2 km/h (1 Bft) 97,87 %
02.11.2017 00:02 3,3 C 7,8 C 97 % 1021,3 hPa 0,0 l/m 3,2 km/h (1 Bft) NO 53 0 min 0,000 mm 0,0 UV-I 0 W/m 2,9 C 3,3 C 3,2 km/h (1 Bft) 100,00 %
02.11.2017 00:04 3,3 C 7,8 C 97 % 1021,3 hPa 0,0 l/m 2,4 km/h (1 Bft) NO 53 0 min 0,000 mm 0,0 UV-I 0 W/m 2,9 C 3,3 C 3,2 km/h (1 Bft) 95,12 %
02.11.2017 00:06 3,4 C 7,8 C 98 % 1021,3 hPa 0,0 l/m 0,2 km/h (0 Bft) NO 53 0 min 0,000 mm 0,0 UV-I 0 W/m 3,1 C 3,4 C 1,6 km/h (1 Bft) 97,87 %
02.11.2017 00:08 3,4 C 7,8 C 98 % 1021,3 hPa 0,0 l/m 0,0 km/h (0 Bft) NO 53 0 min 0,000 mm 0,0 UV-I 0 W/m 3,1 C 3,4 C 0,0 km/h (0 Bft) 97,87 %
02.11.2017 00:10 3,4 C 7,8 C 98 % 1021,4 hPa 0,0 l/m 0,0 km/h (0 Bft) NO 53 0 min 0,000 mm 0,0 UV-I 0 W/m 3,1 C 3,4 C 0,0 km/h (0 Bft) 97,87 %
02.11.2017 00:12 3,2 C 7,8 C 97 % 1021,3 hPa 0,0 l/m 0,0 km/h (0 Bft) NO 53 0 min 0,000 mm 0,0 UV-I 0 W/m 2,8 C 3,2 C 0,0 km/h (0 Bft) 98,00 %
02.11.2017 00:14 3,0 C 7,8 C 97 % 1021,2 hPa 0,0 l/m 1,2 km/h (1 Bft) NO 53 0 min 0,000 mm 0,0 UV-I 0 W/m 2,6 C 3,0 C 3,2 km/h (1 Bft) 97,87 %
02.11.2017 00:16 2,9 C 7,8 C 97 % 1021,2 hPa 0,0 l/m 3,2 km/h (1 Bft) O-NO 65 0 min 0,000 mm 0,0 UV-I 0 W/m 2,5 C 2,9 C 4,8 km/h (1 Bft) 97,22 %
02.11.2017 00:18 3,1 C 7,8 C 97 % 1021,2 hPa 0,0 l/m 3,7 km/h (1 Bft) O-NO 70 0 min 0,000 mm 0,0 UV-I 0 W/m 2,7 C 3,1 C 4,8 km/h (1 Bft) 98,18 %
02.11.2017 00:20 3,2 C 7,8 C 97 % 1021,2 hPa 0,0 l/m 3,3 km/h (1 Bft) O-NO 70 0 min 0,000 mm 0,0 UV-I 0 W/m 2,8 C 3,2 C 4,8 km/h (1 Bft) 96,00 %
02.11.2017 00:22 3,1 C 7,8 C 97 % 1021,2 hPa 0,0 l/m 3,4 km/h (1 Bft) O-NO 70 0 min 0,000 mm 0,0 UV-I 0 W/m 2,7 C 3,1 C 4,8 km/h (1 Bft) 97,62 %
02.11.2017 00:24 3,2 C 7,8 C 98 % 1021,1 hPa 0,0 l/m 4,2 km/h (1 Bft) O 83 0 min 0,000 mm 0,0 UV-I 0 W/m 2,9 C 3,2 C 4,8 km/h (1 Bft) 98,08 %
02.11.2017 00:26 3,2 C 7,8 C 98 % 1021,1 hPa 0,0 l/m 5,2 km/h (1 Bft) SO 142 0 min 0,000 mm 0,0 UV-I 0 W/m 2,9 C 3,2 C 6,4 km/h (2 Bft) 97,62 %
02.11.2017 00:28 3,2 C 7,8 C 98 % 1021,0 hPa 0,0 l/m 4,3 km/h (1 Bft) SO 136 0 min 0,000 mm 0,0 UV-I 0 W/m 2,9 C 3,2 C 6,4 km/h (2 Bft) 98,00 %
02.11.2017 00:30 3,3 C 7,8 C 97 % 1020,9 hPa 0,0 l/m 4,7 km/h (1 Bft) SO 136 0 min 0,000 mm 0,0 UV-I 0 W/m 2,9 C 3,3 C 6,4 km/h (2 Bft) 97,87 %
02.11.2017 00:32 3,3 C 7,8 C 97 % 1020,9 hPa 0,0 l/m 2,2 km/h (1 Bft) SO 142 0 min 0,000 mm 0,0 UV-I 0 W/m 2,9 C 3,3 C 6,4 km/h (2 Bft) 98,00 %
02.11.2017 00:34 3,3 C 7,8 C 97 % 1020,9 hPa 0,0 l/m 3,0 km/h (1 Bft) O-SO 119 0 min 0,000 mm 0,0 UV-I 0 W/m 2,9 C 3,3 C 8,0 km/h (2 Bft) 100,00 %
02.11.2017 00:36 3,6 C 7,8 C 98 % 1020,9 hPa 0,0 l/m 3,7 km/h (1 Bft) SO 140 0 min 0,000 mm 0,0 UV-I 0 W/m 3,3 C 3,6 C 6,4 km/h (2 Bft) 100,00 %
02.11.2017 00:38 3,6 C 7,8 C 98 % 1020,9 hPa 0,0 l/m 2,7 km/h (1 Bft) SO 142 0 min 0,000 mm 0,0 UV-I 0 W/m 3,3 C 3,6 C 4,8 km/h (1 Bft) 98,00 %
02.11.2017 00:40 3,6 C 7,8 C 98 % 1020,8 hPa 0,0 l/m 3,0 km/h (1 Bft) S-SO 148 0 min 0,000 mm 0,0 UV-I 0 W/m 3,3 C 3,6 C 6,4 km/h (2 Bft) 100,00 %
02.11.2017 00:42 3,6 C 7,8 C 98 % 1020,8 hPa 0,0 l/m 2,5 km/h (1 Bft) SO 130 0 min 0,000 mm 0,0 UV-I 0 W/m 3,3 C 3,6 C 4,8 km/h (1 Bft) 100,00 %
02.11.2017 00:44 3,4 C 7,8 C 98 % 1020,8 hPa 0,0 l/m 0,8 km/h (0 Bft) SO 130 0 min 0,000 mm 0,0 UV-I 0 W/m 3,1 C 3,4 C 3,2 km/h (1 Bft) 100,00 %
02.11.2017 00:46 3,4 C 7,8 C 98 % 1020,8 hPa 0,0 l/m 0,2 km/h (0 Bft) SO 130 0 min 0,000 mm 0,0 UV-I 0 W/m 3,1 C 3,4 C 1,6 km/h (1 Bft) 100,00 %
02.11.2017 00:48 3,2 C 7,8 C 97 % 1020,8 hPa 0,0 l/m 0,2 km/h (0 Bft) SO 130 0 min 0,000 mm 0,0 UV-I 0 W/m 2,8 C 3,2 C 1,6 km/h (1 Bft) 100,00 %
02.11.2017 00:50 3,1 C 7,8 C 98 % 1020,8 hPa 0,0 l/m 0,4 km/h (0 Bft) SO 130 0 min 0,000 mm 0,0 UV-I 0 W/m 2,8 C 3,1 C 1,6 km/h (1 Bft) 97,37 %
02.11.2017 00:52 2,9 C 7,8 C 97 % 1020,8 hPa 0,0 l/m 1,0 km/h (0 Bft) SO 130 0 min 0,000 mm 0,0 UV-I 0 W/m 2,5 C 2,9 C 3,2 km/h (1 Bft) 97,87 %
02.11.2017 00:54 2,9 C 7,8 C 97 % 1020,7 hPa 0,0 l/m 1,6 km/h (1 Bft) SO 130 0 min 0,000 mm 0,0 UV-I 0 W/m 2,5 C 2,9 C 3,2 km/h (1 Bft) 98,21 %
02.11.2017 00:56 2,9 C 7,8 C 97 % 1020,7 hPa 0,0 l/m 2,2 km/h (1 Bft) SO 130 0 min 0,000 mm 0,0 UV-I 0 W/m 2,5 C 2,9 C 3,2 km/h (1 Bft) 95,83 %
02.11.2017 00:58 2,8 C 7,8 C 97 % 1020,7 hPa 0,0 l/m 2,1 km/h (1 Bft) SO 130 0 min 0,000 mm 0,0 UV-I 0 W/m 2,4 C 2,8 C 3,2 km/h (1 Bft) 100,00 %
02.11.2017 01:00 2,8 C 7,8 C 97 % 1020,7 hPa 0,0 l/m 0,7 km/h (0 Bft) SO 130 0 min 0,000 mm 0,0 UV-I 0 W/m 2,4 C 2,8 C 1,6 km/h (1 Bft) 98,15 %
02.11.2017 01:02 2,9 C 7,8 C 97 % 1020,7 hPa 0,0 l/m 0,0 km/h (0 Bft) SO 130 0 min 0,000 mm 0,0 UV-I 0 W/m 2,5 C 2,9 C 0,0 km/h (0 Bft) 97,37 %
02.11.2017 01:04 3,2 C 7,8 C 98 % 1020,6 hPa 0,0 l/m 1,9 km/h (1 Bft) SO 130 0 min 0,000 mm 0,0 UV-I 0 W/m 2,9 C 3,2 C 4,8 km/h (1 Bft) 96,00 %
02.11.2017 01:06 3,4 C 7,8 C 97 % 1020,5 hPa 0,0 l/m 3,7 km/h (1 Bft) SO 130 0 min 0,000 mm 0,0 UV-I 0 W/m 3,0 C 3,4 C 4,8 km/h (1 Bft) 96,00 %
02.11.2017 01:08 3,5 C 7,8 C 98 % 1020,5 hPa 0,0 l/m 1,8 km/h (1 Bft) SO 130 0 min 0,000 mm 0,0 UV-I 0 W/m 3,2 C 3,5 C 3,2 km/h (1 Bft) 98,00 %
02.11.2017 01:10 3,6 C 7,8 C 98 % 1020,5 hPa 0,0 l/m 0,3 km/h (0 Bft) SO 130 0 min 0,000 mm 0,0 UV-I 0 W/m 3,3 C 3,6 C 3,2 km/h (1 Bft) 97,87 %
02.11.2017 01:12 3,5 C 7,8 C 98 % 1020,5 hPa 0,0 l/m 0,0 km/h (0 Bft) SO 130 0 min 0,000 mm 0,0 UV-I 0 W/m 3,2 C 3,5 C 1,6 km/h (1 Bft) 97,37 %
02.11.2017 01:14 3,3 C 7,8 C 98 % 1020,5 hPa 0,0 l/m 0,0 km/h (0 Bft) SO 130 0 min 0,000 mm 0,0 UV-I 0 W/m 3,0 C 3,3 C 0,0 km/h (0 Bft) 97,73 %
02.11.2017 01:16 3,1 C 7,8 C 98 % 1020,5 hPa 0,0 l/m 0,0 km/h (0 Bft) SO 130 0 min 0,000 mm 0,0 UV-I 0 W/m 2,8 C 3,1 C 0,0 km/h (0 Bft) 98,11 %
02.11.2017 01:18 3,0 C 7,8 C 97 % 1020,5 hPa 0,0 l/m 0,0 km/h (0 Bft) SO 130 0 min 0,000 mm 0,0 UV-I 0 W/m 2,6 C 3,0 C 0,0 km/h (0 Bft) 98,00 %
02.11.2017 01:20 3,0 C 7,8 C 97 % 1020,4 hPa 0,0 l/m 0,0 km/h (0 Bft) SO 130 0 min 0,000 mm 0,0 UV-I 0 W/m 2,6 C 3,0 C 0,0 km/h (0 Bft) 97,14 %
02.11.2017 01:22 2,9 C 7,8 C 97 % 1020,5 hPa 0,0 l/m 0,0 km/h (0 Bft) SO 130 0 min 0,000 mm 0,0 UV-I 0 W/m 2,5 C 2,9 C 1,6 km/h (1 Bft) 96,23 %
02.11.2017 01:24 3,0 C 7,8 C 97 % 1020,5 hPa 0,0 l/m 0,7 km/h (0 Bft) SO 130 0 min 0,000 mm 0,0 UV-I 0 W/m 2,6 C 3,0 C 1,6 km/h (1 Bft) 95,74 %
02.11.2017 01:26 3,0 C 7,8 C 97 % 1020,4 hPa 0,0 l/m 0,9 km/h (0 Bft) SO 130 0 min 0,000 mm 0,0 UV-I 0 W/m 2,6 C 3,0 C 1,6 km/h (1 Bft) 98,00 %
02.11.2017 01:28 3,1 C 7,8 C 98 % 1020,4 hPa 0,0 l/m 1,3 km/h (1 Bft) SO 130 0 min 0,000 mm 0,0 UV-I 0 W/m 2,8 C 3,1 C 3,2 km/h (1 Bft) 97,56 %
02.11.2017 01:30 3,0 C 7,8 C 98 % 1020,3 hPa 0,0 l/m 0,1 km/h (0 Bft) SO 130 0 min 0,000 mm 0,0 UV-I 0 W/m 2,7 C 3,0 C 1,6 km/h (1 Bft) 97,87 %
02.11.2017 01:32 2,9 C 7,8 C 97 % 1020,2 hPa 0,0 l/m 0,0 km/h (0 Bft) SO 130 0 min 0,000 mm 0,0 UV-I 0 W/m 2,5 C 2,9 C 0,0 km/h (0 Bft) 96,00 %
02.11.2017 01:34 3,0 C 7,8 C 97 % 1020,1 hPa 0,0 l/m 0,2 km/h (0 Bft) SO 130 0 min 0,000 mm 0,0 UV-I 0 W/m 2,6 C 3,0 C 1,6 km/h (1 Bft) 98,00 %
02.11.2017 01:36 3,1 C 7,8 C 98 % 1020,2 hPa 0,0 l/m 0,1 km/h (0 Bft) SO 130 0 min 0,000 mm 0,0 UV-I 0 W/m 2,8 C 3,1 C 1,6 km/h (1 Bft) 98,00 %
02.11.2017 01:38 3,0 C 7,8 C 98 % 1020,2 hPa 0,0 l/m 0,4 km/h (0 Bft) SO 130 0 min 0,000 mm 0,0 UV-I 0 W/m 2,7 C 3,0 C 1,6 km/h (1 Bft) 97,37 %
02.11.2017 01:40 3,1 C 7,8 C 97 % 1020,3 hPa 0,0 l/m 1,6 km/h (1 Bft) SO 130 0 min 0,000 mm 0,0 UV-I 0 W/m 2,7 C 3,1 C 3,2 km/h (1 Bft) 98,21 %
02.11.2017 01:42 3,1 C 7,8 C 98 % 1020,1 hPa 0,0 l/m 0,1 km/h (0 Bft) SO 130 0 min 0,000 mm 0,0 UV-I 0 W/m 2,8 C 3,1 C 1,6 km/h (1 Bft) 97,22 %
02.11.2017 01:44 3,1 C 7,8 C 98 % 1020,0 hPa 0,0 l/m 0,0 km/h (0 Bft) SO 130 0 min 0,000 mm 0,0 UV-I 0 W/m 2,8 C 3,1 C 1,6 km/h (1 Bft) 98,11 %
02.11.2017 01:46 3,1 C 7,8 C 98 % 1020,0 hPa 0,0 l/m 0,0 km/h (0 Bft) SO 130 0 min 0,000 mm 0,0 UV-I 0 W/m 2,8 C 3,1 C 1,6 km/h (1 Bft) 97,87 %
02.11.2017 01:48 2,9 C 7,8 C 97 % 1020,0 hPa 0,0 l/m 0,0 km/h (0 Bft) SO 130 0 min 0,000 mm 0,0 UV-I 0 W/m 2,5 C 2,9 C 0,0 km/h (0 Bft) 97,87 %
02.11.2017 01:50 2,9 C 7,8 C 97 % 1020,0 hPa 0,0 l/m 0,0 km/h (0 Bft) SO 130 0 min 0,000 mm 0,0 UV-I 0 W/m 2,5 C 2,9 C 0,0 km/h (0 Bft) 98,00 %
02.11.2017 01:52 3,0 C 7,8 C 97 % 1020,0 hPa 0,0 l/m 0,0 km/h (0 Bft) SO 130 0 min 0,000 mm 0,0 UV-I 0 W/m 2,6 C 3,0 C 0,0 km/h (0 Bft) 97,87 %
02.11.2017 01:54 3,1 C 7,8 C 98 % 1019,9 hPa 0,0 l/m 0,0 km/h (0 Bft) SO 130 0 min 0,000 mm 0,0 UV-I 0 W/m 2,8 C 3,1 C 0,0 km/h (0 Bft) 97,14 %
02.11.2017 01:56 3,1 C 7,8 C 98 % 1019,9 hPa 0,0 l/m 0,0 km/h (0 Bft) SO 130 0 min 0,000 mm 0,0 UV-I 0 W/m 2,8 C 3,1 C 1,6 km/h (1 Bft) 98,11 %
02.11.2017 01:58 3,0 C 7,8 C 98 % 1019,9 hPa 0,0 l/m 0,0 km/h (0 Bft) SO 130 0 min 0,000 mm 0,0 UV-I 0 W/m 2,7 C 3,0 C 0,0 km/h (0 Bft) 97,87 %
02.11.2017 02:00 3,0 C 7,8 C 98 % 1019,9 hPa 0,0 l/m 0,2 km/h (0 Bft) SO 130 0 min 0,000 mm 0,0 UV-I 0 W/m 2,7 C 3,0 C 1,6 km/h (1 Bft) 100,00 %
02.11.2017 02:02 2,9 C 7,8 C 98 % 1019,9 hPa 0,0 l/m 2,0 km/h (1 Bft) SO 130 0 min 0,000 mm 0,0 UV-I 0 W/m 2,6 C 2,9 C 3,2 km/h (1 Bft) 100,00 %
02.11.2017 02:04 2,8 C 7,8 C 98 % 1019,8 hPa 0,0 l/m 2,4 km/h (1 Bft) SO 130 0 min 0,000 mm 0,0 UV-I 0 W/m 2,5 C 2,8 C 3,2 km/h (1 Bft) 100,00 %
02.11.2017 02:06 2,6 C 7,8 C 97 % 1019,7 hPa 0,0 l/m 1,2 km/h (1 Bft) SO 130 0 min 0,000 mm 0,0 UV-I 0 W/m 2,2 C 2,6 C 3,2 km/h (1 Bft) 97,37 %
02.11.2017 02:08 2,6 C 7,8 C 97 % 1019,7 hPa 0,0 l/m 0,5 km/h (0 Bft) SO 130 0 min 0,000 mm 0,0 UV-I 0 W/m 2,2 C 2,6 C 1,6 km/h (1 Bft) 98,00 %
02.11.2017 02:10 2,6 C 7,8 C 97 % 1019,6 hPa 0,0 l/m 1,8 km/h (1 Bft) SO 130 0 min 0,000 mm 0,0 UV-I 0 W/m 2,2 C 2,6 C 3,2 km/h (1 Bft) 97,73 %
02.11.2017 02:12 2,7 C 7,8 C 97 % 1019,5 hPa 0,0 l/m 2,1 km/h (1 Bft) SO 130 0 min 0,000 mm 0,0 UV-I 0 W/m 2,3 C 2,7 C 3,2 km/h (1 Bft) 97,87 %
02.11.2017 02:14 2,8 C 7,8 C 98 % 1019,5 hPa 0,0 l/m 1,3 km/h (1 Bft) SO 130 0 min 0,000 mm 0,0 UV-I 0 W/m 2,5 C 2,8 C 3,2 km/h (1 Bft) 98,11 %
02.11.2017 02:16 2,9 C 7,8 C 98 % 1019,5 hPa 0,0 l/m 0,8 km/h (0 Bft) SO 130 0 min 0,000 mm 0,0 UV-I 0 W/m 2,6 C 2,9 C 1,6 km/h (1 Bft) 97,37 %
02.11.2017 02:18 3,1 C 7,8 C 98 % 1019,5 hPa 0,0 l/m 0,1 km/h (0 Bft) SO 130 0 min 0,000 mm 0,0 UV-I 0 W/m 2,8 C 3,1 C 1,6 km/h (1 Bft) 96,00 %
02.11.2017 02:20 3,1 C 7,8 C 98 % 1019,4 hPa 0,0 l/m 0,0 km/h (0 Bft) SO 130 0 min 0,000 mm 0,0 UV-I 0 W/m 2,8 C 3,1 C 1,6 km/h (1 Bft) 97,92 %
02.11.2017 02:22 3,1 C 7,8 C 98 % 1019,4 hPa 0,0 l/m 0,0 km/h (0 Bft) SO 130 0 min 0,000 mm 0,0 UV-I 0 W/m 2,8 C 3,1 C 0,0 km/h (0 Bft) 96,00 %
02.11.2017 02:24 2,9 C 7,8 C 98 % 1019,4 hPa 0,0 l/m 0,0 km/h (0 Bft) SO 130 0 min 0,000 mm 0,0 UV-I 0 W/m 2,6 C 2,9 C 0,0 km/h (0 Bft) 94,00 %
02.11.2017 02:26 2,6 C 7,8 C 97 % 1019,4 hPa 0,0 l/m 0,0 km/h (0 Bft) SO 130 0 min 0,000 mm 0,0 UV-I 0 W/m 2,2 C 2,6 C 1,6 km/h (1 Bft) 97,87 %
02.11.2017 02:28 2,6 C 7,8 C 98 % 1019,3 hPa 0,0 l/m 0,3 km/h (0 Bft) SO 130 0 min 0,000 mm 0,0 UV-I 0 W/m 2,3 C 2,6 C 1,6 km/h (1 Bft) 97,87 %
02.11.2017 02:30 2,6 C 7,8 C 98 % 1019,4 hPa 0,0 l/m 0,0 km/h (0 Bft) SO 130 0 min 0,000 mm 0,0 UV-I 0 W/m 2,3 C 2,6 C 1,6 km/h (1 Bft) 97,37 %
02.11.2017 02:32 2,7 C 7,8 C 97 % 1019,4 hPa 0,0 l/m 0,0 km/h (0 Bft) SO 130 0 min 0,000 mm 0,0 UV-I 0 W/m 2,3 C 2,7 C 0,0 km/h (0 Bft) 96,00 %
02.11.2017 02:34 2,6 C 7,8 C 97 % 1019,3 hPa 0,0 l/m 0,1 km/h (0 Bft) SO 130 0 min 0,000 mm 0,0 UV-I 0 W/m 2,2 C 2,6 C 1,6 km/h (1 Bft) 97,87 %
02.11.2017 02:36 2,7 C 7,8 C 97 % 1019,3 hPa 0,0 l/m 0,1 km/h (0 Bft) SO 130 0 min 0,000 mm 0,0 UV-I 0 W/m 2,3 C 2,7 C 1,6 km/h (1 Bft) 96,00 %
02.11.2017 02:38 2,6 C 7,8 C 97 % 1019,3 hPa 0,0 l/m 0,4 km/h (0 Bft) SO 130 0 min 0,000 mm 0,0 UV-I 0 W/m 2,2 C 2,6 C 1,6 km/h (1 Bft) 100,00 %
02.11.2017 02:40 2,6 C 7,8 C 98 % 1019,4 hPa 0,0 l/m 0,0 km/h (0 Bft) SO 130 0 min 0,000 mm 0,0 UV-I 0 W/m 2,3 C 2,6 C 1,6 km/h (1 Bft) 96,00 %
02.11.2017 02:42 2,3 C 7,8 C 97 % 1019,4 hPa 0,0 l/m 0,0 km/h (0 Bft) SO 130 0 min 0,000 mm 0,0 UV-I 0 W/m 1,9 C 2,3 C 0,0 km/h (0 Bft) 98,00 %
02.11.2017 02:44 2,1 C 7,8 C 98 % 1019,3 hPa 0,0 l/m 0,0 km/h (0 Bft) SO 130 0 min 0,000 mm 0,0 UV-I 0 W/m 1,8 C 2,1 C 0,0 km/h (0 Bft) 95,74 %
02.11.2017 02:46 2,1 C 7,8 C 97 % 1019,3 hPa 0,0 l/m 0,0 km/h (0 Bft) SO 130 0 min 0,000 mm 0,0 UV-I 0 W/m 1,7 C 2,1 C 0,0 km/h (0 Bft) 97,87 %
02.11.2017 02:49 2,1 C 7,8 C 97 % 1019,3 hPa 0,0 l/m 0,0 km/h (0 Bft) SO 130 0 min 0,000 mm 0,0 UV-I 0 W/m 1,7 C 2,1 C 0,0 km/h (0 Bft) 100,00 %
02.11.2017 02:50 2,2 C 7,8 C 98 % 1019,3 hPa 0,0 l/m 1,7 km/h (1 Bft) SO 130 0 min 0,000 mm 0,0 UV-I 0 W/m 1,9 C 2,2 C 3,2 km/h (1 Bft) 100,00 %
02.11.2017 02:52 2,2 C 7,8 C 98 % 1019,2 hPa 0,0 l/m 0,1 km/h (0 Bft) SO 130 0 min 0,000 mm 0,0 UV-I 0 W/m 1,9 C 2,2 C 1,6 km/h (1 Bft) 98,00 %
02.11.2017 02:54 2,2 C 7,8 C 98 % 1019,2 hPa 0,0 l/m 2,5 km/h (1 Bft) NO 50 0 min 0,000 mm 0,0 UV-I 0 W/m 1,9 C 2,2 C 4,8 km/h (1 Bft) 94,00 %
02.11.2017 02:56 2,2 C 7,8 C 98 % 1019,1 hPa 0,0 l/m 5,0 km/h (1 Bft) NO 49 0 min 0,000 mm 0,0 UV-I 0 W/m 1,9 C 2,2 C 6,4 km/h (2 Bft) 100,00 %
02.11.2017 02:58 2,2 C 7,8 C 98 % 1019,1 hPa 0,0 l/m 5,7 km/h (1 Bft) NO 49 0 min 0,000 mm 0,0 UV-I 0 W/m 1,9 C 2,2 C 6,4 km/h (2 Bft) 100,00 %
02.11.2017 03:00 2,2 C 7,8 C 98 % 1019,1 hPa 0,0 l/m 3,8 km/h (1 Bft) NO 43 0 min 0,000 mm 0,0 UV-I 0 W/m 1,9 C 2,2 C 4,8 km/h (1 Bft) 98,08 %
02.11.2017 03:02 2,2 C 7,8 C 98 % 1019,1 hPa 0,0 l/m 3,7 km/h (1 Bft) NO 43 0 min 0,000 mm 0,0 UV-I 0 W/m 1,9 C 2,2 C 4,8 km/h (1 Bft) 100,00 %
02.11.2017 03:04 2,2 C 7,8 C 98 % 1019,0 hPa 0,0 l/m 4,3 km/h (1 Bft) NO 43 0 min 0,000 mm 0,0 UV-I 0 W/m 1,9 C 2,2 C 6,4 km/h (2 Bft) 100,00 %
02.11.2017 03:06 2,2 C 7,8 C 98 % 1019,0 hPa 0,0 l/m 3,7 km/h (1 Bft) NO 43 0 min 0,000 mm 0,0 UV-I 0 W/m 1,9 C 2,2 C 4,8 km/h (1 Bft) 100,00 %
02.11.2017 03:08 2,2 C 7,8 C 98 % 1019,0 hPa 0,0 l/m 2,6 km/h (1 Bft) NO 43 0 min 0,000 mm 0,0 UV-I 0 W/m 1,9 C 2,2 C 4,8 km/h (1 Bft) 100,00 %
02.11.2017 03:10 2,2 C 7,8 C 98 % 1019,0 hPa 0,0 l/m 2,2 km/h (1 Bft) NO 43 0 min 0,000 mm 0,0 UV-I 0 W/m 1,9 C 2,2 C 3,2 km/h (1 Bft) 100,00 %
02.11.2017 03:12 2,1 C 7,8 C 98 % 1019,0 hPa 0,0 l/m 1,1 km/h (1 Bft) NO 43 0 min 0,000 mm 0,0 UV-I 0 W/m 1,8 C 2,1 C 1,6 km/h (1 Bft) 98,11 %
02.11.2017 03:14 2,1 C 7,8 C 98 % 1018,9 hPa 0,0 l/m 0,1 km/h (0 Bft) NO 43 0 min 0,000 mm 0,0 UV-I 0 W/m 1,8 C 2,1 C 1,6 km/h (1 Bft) 100,00 %
02.11.2017 03:16 2,0 C 7,8 C 98 % 1019,0 hPa 0,0 l/m 0,0 km/h (0 Bft) NO 43 0 min 0,000 mm 0,0 UV-I 0 W/m 1,7 C 2,0 C 0,0 km/h (0 Bft) 100,00 %
02.11.2017 03:18 1,9 C 7,8 C 98 % 1019,0 hPa 0,0 l/m 0,0 km/h (0 Bft) NO 43 0 min 0,000 mm 0,0 UV-I 0 W/m 1,6 C 1,9 C 0,0 km/h (0 Bft) 100,00 %
02.11.2017 03:20 1,8 C 7,8 C 98 % 1019,0 hPa 0,0 l/m 0,0 km/h (0 Bft) NO 43 0 min 0,000 mm 0,0 UV-I 0 W/m 1,5 C 1,8 C 0,0 km/h (0 Bft) 100,00 %
02.11.2017 03:22 1,8 C 7,8 C 97 % 1019,0 hPa 0,0 l/m 0,0 km/h (0 Bft) NO 43 0 min 0,000 mm 0,0 UV-I 0 W/m 1,4 C 1,8 C 0,0 km/h (0 Bft) 100,00 %
02.11.2017 03:24 1,8 C 7,8 C 97 % 1019,0 hPa 0,0 l/m 0,0 km/h (0 Bft) NO 43 0 min 0,000 mm 0,0 UV-I 0 W/m 1,4 C 1,8 C 0,0 km/h (0 Bft) 100,00 %
02.11.2017 03:26 1,7 C 7,8 C 97 % 1019,0 hPa 0,0 l/m 0,0 km/h (0 Bft) NO 43 0 min 0,000 mm 0,0 UV-I 0 W/m 1,3 C 1,7 C 0,0 km/h (0 Bft) 100,00 %
02.11.2017 03:28 1,7 C 7,8 C 98 % 1019,0 hPa 0,0 l/m 0,0 km/h (0 Bft) NO 43 0 min 0,000 mm 0,0 UV-I 0 W/m 1,4 C 1,7 C 0,0 km/h (0 Bft) 100,00 %
02.11.2017 03:30 1,6 C 7,8 C 98 % 1019,0 hPa 0,0 l/m 0,4 km/h (0 Bft) NO 43 0 min 0,000 mm 0,0 UV-I 0 W/m 1,3 C 1,6 C 1,6 km/h (1 Bft) 100,00 %
02.11.2017 03:32 1,6 C 7,8 C 98 % 1018,9 hPa 0,0 l/m 0,7 km/h (0 Bft) NO 43 0 min 0,000 mm 0,0 UV-I 0 W/m 1,3 C 1,6 C 3,2 km/h (1 Bft) 98,04 %
02.11.2017 03:34 1,7 C 7,8 C 98 % 1018,8 hPa 0,0 l/m 2,0 km/h (1 Bft) NO 43 0 min 0,000 mm 0,0 UV-I 0 W/m 1,4 C 1,7 C 3,2 km/h (1 Bft) 100,00 %
02.11.2017 03:36 1,9 C 7,8 C 98 % 1018,8 hPa 0,0 l/m 3,9 km/h (1 Bft) NO 43 0 min 0,000 mm 0,0 UV-I 0 W/m 1,6 C 1,9 C 4,8 km/h (1 Bft) 100,00 %
02.11.2017 03:38 2,1 C 7,8 C 98 % 1018,7 hPa 0,0 l/m 3,3 km/h (1 Bft) NO 43 0 min 0,000 mm 0,0 UV-I 0 W/m 1,8 C 2,1 C 4,8 km/h (1 Bft) 97,87 %
02.11.2017 03:40 2,2 C 7,8 C 98 % 1018,7 hPa 0,0 l/m 3,3 km/h (1 Bft) NO 43 0 min 0,000 mm 0,0 UV-I 0 W/m 1,9 C 2,2 C 4,8 km/h (1 Bft) 94,87 %
02.11.2017 03:42 2,3 C 7,8 C 98 % 1018,8 hPa 0,0 l/m 2,4 km/h (1 Bft) NO 43 0 min 0,000 mm 0,0 UV-I 0 W/m 2,0 C 2,3 C 4,8 km/h (1 Bft) 100,00 %
02.11.2017 03:44 2,3 C 7,8 C 98 % 1018,7 hPa 0,0 l/m 1,3 km/h (1 Bft) NO 43 0 min 0,000 mm 0,0 UV-I 0 W/m 2,0 C 2,3 C 3,2 km/h (1 Bft) 98,00 %
02.11.2017 03:46 2,2 C 7,8 C 98 % 1018,7 hPa 0,0 l/m 1,5 km/h (1 Bft) NO 43 0 min 0,000 mm 0,0 UV-I 0 W/m 1,9 C 2,2 C 3,2 km/h (1 Bft) 100,00 %
02.11.2017 03:48 2,2 C 7,8 C 98 % 1018,7 hPa 0,0 l/m 0,9 km/h (0 Bft) NO 43 0 min 0,000 mm 0,0 UV-I 0 W/m 1,9 C 2,2 C 3,2 km/h (1 Bft) 100,00 %
02.11.2017 03:50 2,2 C 7,8 C 98 % 1018,7 hPa 0,0 l/m 0,0 km/h (0 Bft) NO 43 0 min 0,000 mm 0,0 UV-I 0 W/m 1,9 C 2,2 C 0,0 km/h (0 Bft) 100,00 %
02.11.2017 03:52 2,1 C 7,8 C 98 % 1018,7 hPa 0,0 l/m 0,0 km/h (0 Bft) NO 43 0 min 0,000 mm 0,0 UV-I 0 W/m 1,8 C 2,1 C 0,0 km/h (0 Bft) 97,87 %
02.11.2017 03:54 2,1 C 7,8 C 98 % 1018,7 hPa 0,0 l/m 0,0 km/h (0 Bft) NO 43 0 min 0,000 mm 0,0 UV-I 0 W/m 1,8 C 2,1 C 0,0 km/h (0 Bft) 100,00 %
02.11.2017 03:56 2,1 C 7,8 C 98 % 1018,7 hPa 0,0 l/m 0,0 km/h (0 Bft) NO 43 0 min 0,000 mm 0,0 UV-I 0 W/m 1,8 C 2,1 C 0,0 km/h (0 Bft) 100,00 %
02.11.2017 03:58 2,1 C 7,8 C 98 % 1018,7 hPa 0,0 l/m 0,0 km/h (0 Bft) NO 43 0 min 0,000 mm 0,0 UV-I 0 W/m 1,8 C 2,1 C 0,0 km/h (0 Bft) 100,00 %
02.11.2017 04:00 2,0 C 7,8 C 98 % 1018,7 hPa 0,0 l/m 0,0 km/h (0 Bft) NO 43 0 min 0,000 mm 0,0 UV-I 0 W/m 1,7 C 2,0 C 0,0 km/h (0 Bft) 100,00 %
02.11.2017 04:02 1,9 C 7,8 C 98 % 1018,7 hPa 0,0 l/m 0,0 km/h (0 Bft) NO 43 0 min 0,000 mm 0,0 UV-I 0 W/m 1,6 C 1,9 C 0,0 km/h (0 Bft) 100,00 %
02.11.2017 04:04 1,9 C 7,8 C 98 % 1018,7 hPa 0,0 l/m 0,0 km/h (0 Bft) NO 43 0 min 0,000 mm 0,0 UV-I 0 W/m 1,6 C 1,9 C 0,0 km/h (0 Bft) 100,00 %
02.11.2017 04:06 2,0 C 7,8 C 98 % 1018,6 hPa 0,0 l/m 0,0 km/h (0 Bft) NO 43 0 min 0,000 mm 0,0 UV-I 0 W/m 1,7 C 2,0 C 0,0 km/h (0 Bft) 100,00 %
02.11.2017 04:08 2,1 C 7,8 C 98 % 1018,5 hPa 0,0 l/m 0,0 km/h (0 Bft) NO 43 0 min 0,000 mm 0,0 UV-I 0 W/m 1,8 C 2,1 C 0,0 km/h (0 Bft) 100,00 %
02.11.2017 04:10 2,1 C 7,8 C 98 % 1018,5 hPa 0,0 l/m 0,0 km/h (0 Bft) NO 43 0 min 0,000 mm 0,0 UV-I 0 W/m 1,8 C 2,1 C 0,0 km/h (0 Bft) 100,00 %
02.11.2017 04:12 2,0 C 7,8 C 98 % 1018,5 hPa 0,0 l/m 0,0 km/h (0 Bft) NO 43 0 min 0,000 mm 0,0 UV-I 0 W/m 1,7 C 2,0 C 0,0 km/h (0 Bft) 100,00 %
02.11.2017 04:14 1,9 C 7,8 C 98 % 1018,5 hPa 0,0 l/m 0,0 km/h (0 Bft) NO 43 0 min 0,000 mm 0,0 UV-I 0 W/m 1,6 C 1,9 C 0,0 km/h (0 Bft) 100,00 %
02.11.2017 04:16 2,0 C 7,8 C 98 % 1018,5 hPa 0,0 l/m 0,0 km/h (0 Bft) NO 43 0 min 0,000 mm 0,0 UV-I 0 W/m 1,7 C 2,0 C 0,0 km/h (0 Bft) 100,00 %
02.11.2017 04:18 2,1 C 7,8 C 98 % 1018,6 hPa 0,0 l/m 0,0 km/h (0 Bft) NO 43 0 min 0,000 mm 0,0 UV-I 0 W/m 1,8 C 2,1 C 0,0 km/h (0 Bft) 97,87 %
02.11.2017 04:20 2,1 C 7,8 C 98 % 1018,5 hPa 0,0 l/m 0,0 km/h (0 Bft) NO 43 0 min 0,000 mm 0,0 UV-I 0 W/m 1,8 C 2,1 C 0,0 km/h (0 Bft) 97,22 %
02.11.2017 04:22 2,1 C 7,8 C 98 % 1018,5 hPa 0,0 l/m 0,0 km/h (0 Bft) NO 43 0 min 0,000 mm 0,0 UV-I 0 W/m 1,8 C 2,1 C 0,0 km/h (0 Bft) 94,34 %
02.11.2017 04:24 2,1 C 7,8 C 98 % 1018,5 hPa 0,0 l/m 0,0 km/h (0 Bft) NO 43 0 min 0,000 mm 0,0 UV-I 0 W/m 1,8 C 2,1 C 0,0 km/h (0 Bft) 96,00 %
02.11.2017 04:26 2,1 C 7,8 C 98 % 1018,5 hPa 0,0 l/m 0,2 km/h (0 Bft) NO 43 0 min 0,000 mm 0,0 UV-I 0 W/m 1,8 C 2,1 C 1,6 km/h (1 Bft) 95,74 %
02.11.2017 04:28 2,1 C 7,8 C 98 % 1018,5 hPa 0,0 l/m 0,0 km/h (0 Bft) NO 43 0 min 0,000 mm 0,0 UV-I 0 W/m 1,8 C 2,1 C 0,0 km/h (0 Bft) 95,12 %
02.11.2017 04:30 2,1 C 7,8 C 98 % 1018,4 hPa 0,0 l/m 0,0 km/h (0 Bft) NO 43 0 min 0,000 mm 0,0 UV-I 0 W/m 1,8 C 2,1 C 0,0 km/h (0 Bft) 96,23 %
02.11.2017 04:32 2,1 C 7,8 C 98 % 1018,4 hPa 0,0 l/m 0,0 km/h (0 Bft) NO 43 0 min 0,000 mm 0,0 UV-I 0 W/m 1,8 C 2,1 C 0,0 km/h (0 Bft) 94,00 %
02.11.2017 04:34 2,1 C 7,8 C 98 % 1018,3 hPa 0,0 l/m 0,0 km/h (0 Bft) NO 43 0 min 0,000 mm 0,0 UV-I 0 W/m 1,8 C 2,1 C 0,0 km/h (0 Bft) 95,12 %
02.11.2017 04:36 2,1 C 7,8 C 98 % 1018,3 hPa 0,0 l/m 0,1 km/h (0 Bft) NO 43 0 min 0,000 mm 0,0 UV-I 0 W/m 1,8 C 2,1 C 1,6 km/h (1 Bft) 96,23 %
02.11.2017 04:38 2,1 C 7,8 C 98 % 1018,3 hPa 0,0 l/m 0,1 km/h (0 Bft) NO 43 0 min 0,000 mm 0,0 UV-I 0 W/m 1,8 C 2,1 C 1,6 km/h (1 Bft) 92,68 %
02.11.2017 04:40 2,1 C 7,8 C 98 % 1018,3 hPa 0,0 l/m 0,0 km/h (0 Bft) NO 43 0 min 0,000 mm 0,0 UV-I 0 W/m 1,8 C 2,1 C 1,6 km/h (1 Bft) 92,00 %
02.11.2017 04:42 2,1 C 7,8 C 98 % 1018,3 hPa 0,0 l/m 0,0 km/h (0 Bft) NO 43 0 min 0,000 mm 0,0 UV-I 0 W/m 1,8 C 2,1 C 0,0 km/h (0 Bft) 94,74 %
02.11.2017 04:44 2,2 C 7,8 C 98 % 1018,2 hPa 0,0 l/m 0,0 km/h (0 Bft) NO 43 0 min 0,000 mm 0,0 UV-I 0 W/m 1,9 C 2,2 C 0,0 km/h (0 Bft) 94,00 %
02.11.2017 04:46 2,1 C 7,8 C 98 % 1018,2 hPa 0,0 l/m 0,0 km/h (0 Bft) NO 43 0 min 0,000 mm 0,0 UV-I 0 W/m 1,8 C 2,1 C 0,0 km/h (0 Bft) 93,62 %
02.11.2017 04:48 2,2 C 7,8 C 98 % 1018,2 hPa 0,0 l/m 0,0 km/h (0 Bft) NO 43 0 min 0,000 mm 0,0 UV-I 0 W/m 1,9 C 2,2 C 0,0 km/h (0 Bft) 94,00 %
02.11.2017 04:50 2,2 C 7,8 C 98 % 1018,2 hPa 0,0 l/m 0,0 km/h (0 Bft) NO 43 0 min 0,000 mm 0,0 UV-I 0 W/m 1,9 C 2,2 C 0,0 km/h (0 Bft) 94,74 %
02.11.2017 04:52 2,2 C 7,8 C 98 % 1018,2 hPa 0,0 l/m 0,0 km/h (0 Bft) NO 43 0 min 0,000 mm 0,0 UV-I 0 W/m 1,9 C 2,2 C 0,0 km/h (0 Bft) 96,23 %
02.11.2017 04:54 2,2 C 7,8 C 98 % 1018,2 hPa 0,0 l/m 0,0 km/h (0 Bft) NO 43 0 min 0,000 mm 0,0 UV-I 0 W/m 1,9 C 2,2 C 0,0 km/h (0 Bft) 98,00 %
02.11.2017 04:56 2,2 C 7,8 C 98 % 1018,0 hPa 0,0 l/m 0,0 km/h (0 Bft) NO 43 0 min 0,000 mm 0,0 UV-I 0 W/m 1,9 C 2,2 C 0,0 km/h (0 Bft) 96,00 %
02.11.2017 04:58 2,2 C 7,8 C 98 % 1017,9 hPa 0,0 l/m 0,0 km/h (0 Bft) NO 43 0 min 0,000 mm 0,0 UV-I 0 W/m 1,9 C 2,2 C 0,0 km/h (0 Bft) 94,87 %
02.11.2017 05:00 2,2 C 7,8 C 98 % 1017,9 hPa 0,0 l/m 0,0 km/h (0 Bft) NO 43 0 min 0,000 mm 0,0 UV-I 0 W/m 1,9 C 2,2 C 0,0 km/h (0 Bft) 98,00 %
02.11.2017 05:02 2,3 C 7,8 C 98 % 1017,9 hPa 0,0 l/m 0,0 km/h (0 Bft) NO 43 0 min 0,000 mm 0,0 UV-I 0 W/m 2,0 C 2,3 C 0,0 km/h (0 Bft) 97,73 %
02.11.2017 05:04 2,3 C 7,8 C 98 % 1017,8 hPa 0,0 l/m 0,1 km/h (0 Bft) NO 43 0 min 0,000 mm 0,0 UV-I 0 W/m 2,0 C 2,3 C 1,6 km/h (1 Bft) 96,23 %
02.11.2017 05:06 2,2 C 7,8 C 98 % 1017,6 hPa 0,0 l/m 1,4 km/h (1 Bft) NO 43 0 min 0,000 mm 0,0 UV-I 0 W/m 1,9 C 2,2 C 3,2 km/h (1 Bft) 98,00 %
02.11.2017 05:08 2,2 C 7,8 C 98 % 1017,6 hPa 0,0 l/m 0,9 km/h (0 Bft) NO 43 0 min 0,000 mm 0,0 UV-I 0 W/m 1,9 C 2,2 C 3,2 km/h (1 Bft) 97,14 %
02.11.2017 05:10 2,2 C 7,8 C 98 % 1017,6 hPa 0,0 l/m 0,1 km/h (0 Bft) NO 43 0 min 0,000 mm 0,0 UV-I 0 W/m 1,9 C 2,2 C 1,6 km/h (1 Bft) 96,00 %
02.11.2017 05:12 2,2 C 7,8 C 98 % 1017,6 hPa 0,0 l/m 0,3 km/h (0 Bft) NO 43 0 min 0,000 mm 0,0 UV-I 0 W/m 1,9 C 2,2 C 1,6 km/h (1 Bft) 97,87 %
02.11.2017 05:14 2,2 C 7,8 C 98 % 1017,6 hPa 0,0 l/m 1,1 km/h (1 Bft) NO 43 0 min 0,000 mm 0,0 UV-I 0 W/m 1,9 C 2,2 C 3,2 km/h (1 Bft) 96,23 %
02.11.2017 05:16 2,2 C 7,8 C 98 % 1017,6 hPa 0,0 l/m 0,8 km/h (0 Bft) NO 43 0 min 0,000 mm 0,0 UV-I 0 W/m 1,9 C 2,2 C 3,2 km/h (1 Bft) 100,00 %
02.11.2017 05:18 2,2 C 7,8 C 98 % 1017,5 hPa 0,0 l/m 0,4 km/h (0 Bft) NO 43 0 min 0,000 mm 0,0 UV-I 0 W/m 1,9 C 2,2 C 1,6 km/h (1 Bft) 98,00 %
02.11.2017 05:20 2,2 C 7,8 C 98 % 1017,5 hPa 0,0 l/m 0,0 km/h (0 Bft) NO 43 0 min 0,000 mm 0,0 UV-I 0 W/m 1,9 C 2,2 C 0,0 km/h (0 Bft) 100,00 %
02.11.2017 05:22 2,2 C 7,8 C 98 % 1017,5 hPa 0,0 l/m 0,0 km/h (0 Bft) NO 43 0 min 0,000 mm 0,0 UV-I 0 W/m 1,9 C 2,2 C 0,0 km/h (0 Bft) 100,00 %
02.11.2017 05:24 2,2 C 7,8 C 98 % 1017,5 hPa 0,0 l/m 0,0 km/h (0 Bft) NO 43 0 min 0,000 mm 0,0 UV-I 0 W/m 1,9 C 2,2 C 0,0 km/h (0 Bft) 100,00 %
02.11.2017 05:26 2,2 C 7,8 C 98 % 1017,5 hPa 0,0 l/m 0,0 km/h (0 Bft) NO 43 0 min 0,000 mm 0,0 UV-I 0 W/m 1,9 C 2,2 C 0,0 km/h (0 Bft) 97,87 %
02.11.2017 05:28 2,2 C 7,8 C 98 % 1017,5 hPa 0,0 l/m 0,0 km/h (0 Bft) NO 43 0 min 0,000 mm 0,0 UV-I 0 W/m 1,9 C 2,2 C 0,0 km/h (0 Bft) 100,00 %
02.11.2017 05:30 2,2 C 7,8 C 98 % 1017,4 hPa 0,0 l/m 0,0 km/h (0 Bft) NO 43 0 min 0,000 mm 0,0 UV-I 0 W/m 1,9 C 2,2 C 0,0 km/h (0 Bft) 100,00 %
02.11.2017 05:32 2,2 C 7,8 C 98 % 1017,5 hPa 0,0 l/m 0,1 km/h (0 Bft) NO 43 0 min 0,000 mm 0,0 UV-I 0 W/m 1,9 C 2,2 C 1,6 km/h (1 Bft) 97,37 %
02.11.2017 05:34 2,2 C 7,8 C 98 % 1017,5 hPa 0,0 l/m 0,3 km/h (0 Bft) NO 43 0 min 0,000 mm 0,0 UV-I 0 W/m 1,9 C 2,2 C 1,6 km/h (1 Bft) 100,00 %
02.11.2017 05:36 2,2 C 7,8 C 98 % 1017,5 hPa 0,0 l/m 0,1 km/h (0 Bft) NO 43 0 min 0,000 mm 0,0 UV-I 0 W/m 1,9 C 2,2 C 1,6 km/h (1 Bft) 95,24 %
02.11.2017 05:38 2,2 C 7,8 C 98 % 1017,5 hPa 0,0 l/m 0,0 km/h (0 Bft) NO 43 0 min 0,000 mm 0,0 UV-I 0 W/m 1,9 C 2,2 C 0,0 km/h (0 Bft) 100,00 %
02.11.2017 05:40 2,2 C 7,8 C 98 % 1017,4 hPa 0,0 l/m 0,5 km/h (0 Bft) NO 43 0 min 0,000 mm 0,0 UV-I 0 W/m 1,9 C 2,2 C 1,6 km/h (1 Bft) 100,00 %
02.11.2017 05:42 2,2 C 7,8 C 98 % 1017,5 hPa 0,0 l/m 0,2 km/h (0 Bft) NO 43 0 min 0,000 mm 0,0 UV-I 0 W/m 1,9 C 2,2 C 1,6 km/h (1 Bft) 100,00 %
02.11.2017 05:44 2,2 C 7,8 C 98 % 1017,5 hPa 0,0 l/m 2,4 km/h (1 Bft) NO 43 0 min 0,000 mm 0,0 UV-I 0 W/m 1,9 C 2,2 C 3,2 km/h (1 Bft) 100,00 %
02.11.2017 05:46 2,2 C 7,8 C 98 % 1017,5 hPa 0,0 l/m 2,0 km/h (1 Bft) NO 43 0 min 0,000 mm 0,0 UV-I 0 W/m 1,9 C 2,2 C 3,2 km/h (1 Bft) 100,00 %
02.11.2017 05:48 2,2 C 7,8 C 98 % 1017,5 hPa 0,0 l/m 2,3 km/h (1 Bft) NO 43 0 min 0,000 mm 0,0 UV-I 0 W/m 1,9 C 2,2 C 3,2 km/h (1 Bft) 100,00 %
02.11.2017 05:50 2,2 C 7,8 C 98 % 1017,5 hPa 0,0 l/m 0,7 km/h (0 Bft) NO 43 0 min 0,000 mm 0,0 UV-I 0 W/m 1,9 C 2,2 C 1,6 km/h (1 Bft) 100,00 %
02.11.2017 05:52 2,2 C 7,8 C 98 % 1017,5 hPa 0,0 l/m 1,9 km/h (1 Bft) NO 43 0 min 0,000 mm 0,0 UV-I 0 W/m 1,9 C 2,2 C 3,2 km/h (1 Bft) 100,00 %
02.11.2017 05:54 2,2 C 7,8 C 98 % 1017,6 hPa 0,0 l/m 1,8 km/h (1 Bft) NO 43 0 min 0,000 mm 0,0 UV-I 0 W/m 1,9 C 2,2 C 3,2 km/h (1 Bft) 100,00 %
02.11.2017 05:56 2,2 C 7,8 C 98 % 1017,6 hPa 0,0 l/m 1,1 km/h (1 Bft) NO 43 0 min 0,000 mm 0,0 UV-I 0 W/m 1,9 C 2,2 C 3,2 km/h (1 Bft) 100,00 %
02.11.2017 05:58 2,2 C 7,8 C 98 % 1017,6 hPa 0,0 l/m 1,4 km/h (1 Bft) NO 43 0 min 0,000 mm 0,0 UV-I 0 W/m 1,9 C 2,2 C 3,2 km/h (1 Bft) 100,00 %
02.11.2017 06:00 2,2 C 7,8 C 98 % 1017,5 hPa 0,0 l/m 1,0 km/h (0 Bft) NO 43 0 min 0,000 mm 0,0 UV-I 0 W/m 1,9 C 2,2 C 1,6 km/h (1 Bft) 100,00 %
02.11.2017 06:02 2,2 C 7,8 C 98 % 1017,5 hPa 0,0 l/m 0,2 km/h (0 Bft) NO 43 0 min 0,000 mm 0,0 UV-I 0 W/m 1,9 C 2,2 C 1,6 km/h (1 Bft) 100,00 %
02.11.2017 06:04 2,2 C 7,8 C 98 % 1017,5 hPa 0,0 l/m 0,0 km/h (0 Bft) NO 43 0 min 0,000 mm 0,0 UV-I 0 W/m 1,9 C 2,2 C 0,0 km/h (0 Bft) 100,00 %
02.11.2017 06:06 2,1 C 7,8 C 98 % 1017,5 hPa 0,0 l/m 0,1 km/h (0 Bft) NO 43 0 min 0,000 mm 0,0 UV-I 0 W/m 1,8 C 2,1 C 1,6 km/h (1 Bft) 97,87 %
02.11.2017 06:08 2,1 C 7,8 C 98 % 1017,5 hPa 0,0 l/m 1,0 km/h (0 Bft) NO 43 0 min 0,000 mm 0,0 UV-I 0 W/m 1,8 C 2,1 C 1,6 km/h (1 Bft) 100,00 %
02.11.2017 06:10 2,1 C 7,8 C 98 % 1017,4 hPa 0,0 l/m 1,1 km/h (1 Bft) NO 43 0 min 0,000 mm 0,0 UV-I 0 W/m 1,8 C 2,1 C 3,2 km/h (1 Bft) 100,00 %
02.11.2017 06:12 2,1 C 7,8 C 98 % 1017,4 hPa 0,0 l/m 0,3 km/h (0 Bft) NO 43 0 min 0,000 mm 0,0 UV-I 0 W/m 1,8 C 2,1 C 1,6 km/h (1 Bft) 98,00 %
02.11.2017 06:14 2,2 C 7,8 C 98 % 1017,3 hPa 0,0 l/m 1,4 km/h (1 Bft) NO 43 0 min 0,000 mm 0,0 UV-I 0 W/m 1,9 C 2,2 C 3,2 km/h (1 Bft) 100,00 %
02.11.2017 06:16 2,1 C 7,8 C 98 % 1017,3 hPa 0,0 l/m 2,2 km/h (1 Bft) NO 43 0 min 0,000 mm 0,0 UV-I 0 W/m 1,8 C 2,1 C 3,2 km/h (1 Bft) 98,11 %
02.11.2017 06:18 2,2 C 7,8 C 98 % 1017,3 hPa 0,0 l/m 1,7 km/h (1 Bft) NO 43 0 min 0,000 mm 0,0 UV-I 0 W/m 1,9 C 2,2 C 3,2 km/h (1 Bft) 100,00 %
02.11.2017 06:20 2,2 C 7,8 C 98 % 1017,2 hPa 0,0 l/m 1,2 km/h (1 Bft) NO 43 0 min 0,000 mm 0,0 UV-I 0 W/m 1,9 C 2,2 C 3,2 km/h (1 Bft) 98,00 %
02.11.2017 06:22 2,2 C 7,8 C 98 % 1017,2 hPa 0,0 l/m 0,8 km/h (0 Bft) NO 43 0 min 0,000 mm 0,0 UV-I 0 W/m 1,9 C 2,2 C 1,6 km/h (1 Bft) 95,45 %
02.11.2017 06:24 2,2 C 7,8 C 98 % 1017,2 hPa 0,0 l/m 1,4 km/h (1 Bft) NO 43 0 min 0,000 mm 0,0 UV-I 0 W/m 1,9 C 2,2 C 3,2 km/h (1 Bft) 95,74 %
02.11.2017 06:26 2,2 C 7,8 C 98 % 1017,2 hPa 0,0 l/m 2,0 km/h (1 Bft) NO 43 0 min 0,000 mm 0,0 UV-I 0 W/m 1,9 C 2,2 C 3,2 km/h (1 Bft) 95,74 %
02.11.2017 06:28 2,2 C 7,8 C 98 % 1017,3 hPa 0,0 l/m 2,2 km/h (1 Bft) NO 43 0 min 0,000 mm 0,0 UV-I 0 W/m 1,9 C 2,2 C 3,2 km/h (1 Bft) 98,00 %
02.11.2017 06:30 2,2 C 7,8 C 98 % 1017,4 hPa 0,0 l/m 3,2 km/h (1 Bft) NO 43 0 min 0,000 mm 0,0 UV-I 0 W/m 1,9 C 2,2 C 4,8 km/h (1 Bft) 95,74 %
02.11.2017 06:32 2,2 C 7,8 C 98 % 1017,4 hPa 0,0 l/m 2,8 km/h (1 Bft) NO 43 0 min 0,000 mm 0,0 UV-I 0 W/m 1,9 C 2,2 C 3,2 km/h (1 Bft) 97,87 %
02.11.2017 06:34 2,2 C 7,8 C 98 % 1017,4 hPa 0,0 l/m 2,3 km/h (1 Bft) NO 43 0 min 0,000 mm 0,0 UV-I 0 W/m 1,9 C 2,2 C 3,2 km/h (1 Bft) 98,00 %
02.11.2017 06:36 2,2 C 7,8 C 98 % 1017,2 hPa 0,0 l/m 1,1 km/h (1 Bft) NO 43 0 min 0,000 mm 0,0 UV-I 5 W/m 1,9 C 2,2 C 3,2 km/h (1 Bft) 97,73 %
02.11.2017 06:38 2,2 C 7,8 C 98 % 1017,2 hPa 0,0 l/m 0,1 km/h (0 Bft) NO 43 0 min 0,000 mm 0,0 UV-I 6 W/m 1,9 C 2,2 C 1,6 km/h (1 Bft) 97,87 %
02.11.2017 06:40 2,2 C 7,8 C 98 % 1017,2 hPa 0,0 l/m 0,2 km/h (0 Bft) NO 43 0 min 0,000 mm 0,0 UV-I 7 W/m 1,9 C 2,2 C 1,6 km/h (1 Bft) 96,00 %
02.11.2017 06:42 2,2 C 7,8 C 98 % 1017,2 hPa 0,0 l/m 0,3 km/h (0 Bft) NO 43 0 min 0,000 mm 0,0 UV-I 6 W/m 1,9 C 2,2 C 1,6 km/h (1 Bft) 97,37 %
02.11.2017 06:44 2,3 C 7,8 C 98 % 1017,2 hPa 0,0 l/m 0,6 km/h (0 Bft) NO 43 0 min 0,000 mm 0,0 UV-I 5 W/m 2,0 C 2,3 C 3,2 km/h (1 Bft) 98,11 %
02.11.2017 06:46 2,2 C 7,8 C 98 % 1017,2 hPa 0,0 l/m 0,4 km/h (0 Bft) NO 43 0 min 0,000 mm 0,0 UV-I 5 W/m 1,9 C 2,2 C 1,6 km/h (1 Bft) 95,74 %
02.11.2017 06:48 2,2 C 7,8 C 98 % 1017,2 hPa 0,0 l/m 0,7 km/h (0 Bft) NO 43 0 min 0,000 mm 0,0 UV-I 5 W/m 1,9 C 2,2 C 3,2 km/h (1 Bft) 95,45 %
02.11.2017 06:50 2,2 C 7,8 C 98 % 1017,2 hPa 0,0 l/m 2,7 km/h (1 Bft) NO 43 0 min 0,000 mm 0,0 UV-I 5 W/m 1,9 C 2,2 C 4,8 km/h (1 Bft) 95,12 %
02.11.2017 06:52 2,2 C 7,8 C 98 % 1017,2 hPa 0,0 l/m 1,2 km/h (1 Bft) NO 44 0 min 0,000 mm 0,0 UV-I 6 W/m 1,9 C 2,2 C 4,8 km/h (1 Bft) 96,00 %
02.11.2017 06:54 2,2 C 7,8 C 98 % 1017,2 hPa 0,0 l/m 1,3 km/h (1 Bft) NO 44 0 min 0,000 mm 0,0 UV-I 7 W/m 1,9 C 2,2 C 3,2 km/h (1 Bft) 98,11 %
02.11.2017 06:56 2,2 C 7,8 C 98 % 1017,4 hPa 0,0 l/m 1,9 km/h (1 Bft) NO 44 0 min 0,000 mm 0,0 UV-I 7 W/m 1,9 C 2,2 C 4,8 km/h (1 Bft) 97,92 %
02.11.2017 06:58 2,2 C 7,8 C 98 % 1017,4 hPa 0,0 l/m 4,1 km/h (1 Bft) SW 214 0 min 0,000 mm 0,0 UV-I 8 W/m 1,9 C 2,2 C 6,4 km/h (2 Bft) 93,62 %
02.11.2017 07:00 2,2 C 7,8 C 98 % 1017,5 hPa 0,0 l/m 3,8 km/h (1 Bft) SW 218 0 min 0,000 mm 0,0 UV-I 10 W/m 1,9 C 2,2 C 6,4 km/h (2 Bft) 100,00 %
02.11.2017 07:02 2,3 C 7,8 C 98 % 1017,4 hPa 0,0 l/m 3,3 km/h (1 Bft) SW 219 2 min 0,000 mm 0,0 UV-I 11 W/m 2,0 C 2,3 C 4,8 km/h (1 Bft) 100,00 %
02.11.2017 07:04 2,3 C 7,8 C 98 % 1017,4 hPa 0,0 l/m 3,4 km/h (1 Bft) W-SW 237 0 min 0,000 mm 0,0 UV-I 12 W/m 2,0 C 2,3 C 4,8 km/h (1 Bft) 97,56 %
02.11.2017 07:06 2,3 C 7,8 C 98 % 1017,4 hPa 0,0 l/m 5,1 km/h (1 Bft) S-SW 200 0 min 0,000 mm 0,0 UV-I 14 W/m 2,0 C 2,3 C 6,4 km/h (2 Bft) 98,00 %
02.11.2017 07:08 2,3 C 7,8 C 98 % 1017,4 hPa 0,0 l/m 2,9 km/h (1 Bft) S-SW 204 0 min 0,000 mm 0,0 UV-I 16 W/m 2,0 C 2,3 C 6,4 km/h (2 Bft) 100,00 %
02.11.2017 07:10 2,3 C 7,8 C 98 % 1017,4 hPa 0,0 l/m 2,8 km/h (1 Bft) S-SW 197 0 min 0,000 mm 0,0 UV-I 18 W/m 2,0 C 2,3 C 8,0 km/h (2 Bft) 100,00 %
02.11.2017 07:12 2,3 C 7,8 C 98 % 1017,4 hPa 0,0 l/m 2,5 km/h (1 Bft) S-SW 197 0 min 0,000 mm 0,0 UV-I 19 W/m 2,0 C 2,3 C 6,4 km/h (2 Bft) 100,00 %
02.11.2017 07:14 2,3 C 7,8 C 98 % 1017,4 hPa 0,0 l/m 2,8 km/h (1 Bft) S-SW 197 0 min 0,000 mm 0,0 UV-I 22 W/m 2,0 C 2,3 C 6,4 km/h (2 Bft) 97,37 %
02.11.2017 07:16 2,4 C 7,8 C 98 % 1017,5 hPa 0,0 l/m 4,6 km/h (1 Bft) S-SW 197 0 min 0,000 mm 0,0 UV-I 25 W/m 2,1 C 2,4 C 6,4 km/h (2 Bft) 100,00 %
02.11.2017 07:18 2,4 C 7,8 C 98 % 1017,6 hPa 0,0 l/m 3,6 km/h (1 Bft) S-SW 198 0 min 0,000 mm 0,0 UV-I 27 W/m 2,1 C 2,4 C 6,4 km/h (2 Bft) 100,00 %
02.11.2017 07:20 2,4 C 7,8 C 98 % 1017,5 hPa 0,0 l/m 3,3 km/h (1 Bft) S-SW 198 0 min 0,000 mm 0,0 UV-I 29 W/m 2,1 C 2,4 C 6,4 km/h (2 Bft) 98,00 %
02.11.2017 07:22 2,4 C 7,8 C 98 % 1017,6 hPa 0,0 l/m 3,1 km/h (1 Bft) S-SW 198 0 min 0,000 mm 0,0 UV-I 29 W/m 2,1 C 2,4 C 4,8 km/h (1 Bft) 97,37 %
02.11.2017 07:24 2,4 C 7,8 C 98 % 1017,5 hPa 0,0 l/m 3,1 km/h (1 Bft) S-SW 198 0 min 0,000 mm 0,0 UV-I 30 W/m 2,1 C 2,4 C 4,8 km/h (1 Bft) 100,00 %
02.11.2017 07:26 2,4 C 7,8 C 98 % 1017,5 hPa 0,0 l/m 1,4 km/h (1 Bft) S-SW 198 0 min 0,000 mm 0,0 UV-I 31 W/m 2,1 C 2,4 C 3,2 km/h (1 Bft) 100,00 %
02.11.2017 07:28 2,5 C 7,8 C 98 % 1017,5 hPa 0,0 l/m 0,1 km/h (0 Bft) S-SW 198 0 min 0,000 mm 0,0 UV-I 36 W/m 2,2 C 2,5 C 1,6 km/h (1 Bft) 98,11 %
02.11.2017 07:30 2,5 C 7,8 C 98 % 1017,5 hPa 0,0 l/m 0,3 km/h (0 Bft) S-SW 198 0 min 0,000 mm 0,0 UV-I 39 W/m 2,2 C 2,5 C 1,6 km/h (1 Bft) 100,00 %
02.11.2017 07:32 2,5 C 7,8 C 98 % 1017,5 hPa 0,0 l/m 2,7 km/h (1 Bft) S-SW 198 0 min 0,000 mm 0,0 UV-I 41 W/m 2,2 C 2,5 C 4,8 km/h (1 Bft) 100,00 %
02.11.2017 07:34 2,6 C 7,8 C 98 % 1017,6 hPa 0,0 l/m 4,0 km/h (1 Bft) S-SW 198 0 min 0,000 mm 0,0 UV-I 44 W/m 2,3 C 2,6 C 6,4 km/h (2 Bft) 100,00 %
02.11.2017 07:36 2,7 C 7,8 C 98 % 1017,7 hPa 0,0 l/m 3,9 km/h (1 Bft) SW 220 0 min 0,000 mm 0,0 UV-I 44 W/m 2,4 C 2,7 C 6,4 km/h (2 Bft) 100,00 %
02.11.2017 07:38 2,7 C 7,8 C 98 % 1017,7 hPa 0,0 l/m 4,0 km/h (1 Bft) SW 234 0 min 0,000 mm 0,0 UV-I 46 W/m 2,4 C 2,7 C 4,8 km/h (1 Bft) 93,62 %
02.11.2017 07:40 2,7 C 7,8 C 98 % 1017,6 hPa 0,0 l/m 2,6 km/h (1 Bft) SW 234 0 min 0,000 mm 0,0 UV-I 46 W/m 2,4 C 2,7 C 4,8 km/h (1 Bft) 97,56 %
02.11.2017 07:42 2,7 C 7,8 C 98 % 1017,7 hPa 0,0 l/m 2,9 km/h (1 Bft) SW 234 0 min 0,000 mm 0,0 UV-I 46 W/m 2,4 C 2,7 C 4,8 km/h (1 Bft) 98,21 %
02.11.2017 07:44 2,7 C 7,8 C 98 % 1017,7 hPa 0,0 l/m 3,2 km/h (1 Bft) SW 234 0 min 0,000 mm 0,0 UV-I 47 W/m 2,4 C 2,7 C 4,8 km/h (1 Bft) 94,00 %
02.11.2017 07:46 2,8 C 7,8 C 98 % 1017,7 hPa 0,0 l/m 4,5 km/h (1 Bft) SW 227 0 min 0,000 mm 0,0 UV-I 46 W/m 2,5 C 2,8 C 6,4 km/h (2 Bft) 97,37 %
02.11.2017 07:48 2,8 C 7,8 C 98 % 1017,8 hPa 0,0 l/m 6,3 km/h (2 Bft) SW 232 0 min 0,000 mm 0,0 UV-I 45 W/m 2,5 C 2,8 C 8,0 km/h (2 Bft) 96,00 %
02.11.2017 07:50 2,8 C 7,8 C 98 % 1017,7 hPa 0,0 l/m 3,7 km/h (1 Bft) SW 232 0 min 0,000 mm 0,0 UV-I 46 W/m 2,5 C 2,8 C 4,8 km/h (1 Bft) 93,62 %
02.11.2017 07:52 2,8 C 7,8 C 98 % 1017,7 hPa 0,0 l/m 4,1 km/h (1 Bft) SW 232 0 min 0,000 mm 0,0 UV-I 47 W/m 2,5 C 2,8 C 8,0 km/h (2 Bft) 98,00 %
02.11.2017 07:54 2,9 C 7,8 C 98 % 1017,7 hPa 0,0 l/m 6,1 km/h (2 Bft) S-SW 213 0 min 0,000 mm 0,0 UV-I 53 W/m 2,6 C 2,9 C 9,7 km/h (2 Bft) 97,56 %
02.11.2017 07:56 2,8 C 7,8 C 98 % 1017,7 hPa 0,0 l/m 6,0 km/h (2 Bft) SW 220 0 min 0,000 mm 0,0 UV-I 56 W/m 2,5 C 2,8 C 9,7 km/h (2 Bft) 98,11 %
02.11.2017 07:58 2,9 C 7,8 C 98 % 1017,8 hPa 0,0 l/m 4,1 km/h (1 Bft) SW 234 0 min 0,000 mm 0,0 UV-I 58 W/m 2,6 C 2,9 C 6,4 km/h (2 Bft) 98,00 %
02.11.2017 08:00 2,9 C 7,8 C 98 % 1017,7 hPa 0,0 l/m 4,9 km/h (1 Bft) S-SW 204 0 min 0,025 mm 0,0 UV-I 58 W/m 2,6 C 2,9 C 8,0 km/h (2 Bft) 94,74 %
02.11.2017 08:02 2,9 C 7,8 C 98 % 1017,7 hPa 0,0 l/m 5,5 km/h (1 Bft) S-SW 205 0 min 0,000 mm 0,0 UV-I 60 W/m 2,6 C 2,9 C 9,7 km/h (2 Bft) 98,11 %
02.11.2017 08:04 2,9 C 7,8 C 98 % 1017,7 hPa 0,0 l/m 5,4 km/h (1 Bft) S-SW 204 0 min 0,000 mm 0,0 UV-I 62 W/m 2,6 C 2,9 C 8,0 km/h (2 Bft) 98,00 %
02.11.2017 08:06 3,0 C 7,8 C 98 % 1017,7 hPa 0,0 l/m 5,6 km/h (1 Bft) S-SW 203 0 min 0,000 mm 0,0 UV-I 64 W/m 2,7 C 3,0 C 9,7 km/h (2 Bft) 100,00 %
02.11.2017 08:08 3,0 C 7,8 C 98 % 1017,7 hPa 0,0 l/m 6,2 km/h (2 Bft) W-SW 240 0 min 0,000 mm 0,0 UV-I 64 W/m 2,7 C 3,0 C 8,0 km/h (2 Bft) 96,23 %
02.11.2017 08:10 3,1 C 7,8 C 98 % 1017,7 hPa 0,0 l/m 5,6 km/h (1 Bft) SW 232 0 min 0,000 mm 0,0 UV-I 64 W/m 2,8 C 3,1 C 8,0 km/h (2 Bft) 100,00 %
02.11.2017 08:12 3,1 C 7,8 C 98 % 1017,7 hPa 0,0 l/m 6,2 km/h (2 Bft) SW 221 0 min 0,000 mm 0,0 UV-I 66 W/m 2,8 C 3,1 C 9,7 km/h (2 Bft) 93,62 %
02.11.2017 08:14 3,1 C 7,8 C 98 % 1017,7 hPa 0,0 l/m 6,7 km/h (2 Bft) SW 214 0 min 0,000 mm 0,0 UV-I 65 W/m 2,8 C 2,8 C 11,3 km/h (2 Bft) 96,23 %
02.11.2017 08:16 3,1 C 7,8 C 98 % 1017,7 hPa 0,0 l/m 5,3 km/h (1 Bft) SW 216 0 min 0,000 mm 0,0 UV-I 65 W/m 2,8 C 3,1 C 8,0 km/h (2 Bft) 94,87 %
02.11.2017 08:18 3,2 C 7,8 C 98 % 1017,8 hPa 0,0 l/m 6,5 km/h (2 Bft) SW 236 0 min 0,000 mm 0,0 UV-I 63 W/m 2,9 C 3,1 C 9,7 km/h (2 Bft) 98,11 %
02.11.2017 08:20 3,2 C 7,8 C 98 % 1017,8 hPa 0,0 l/m 5,7 km/h (1 Bft) S-SW 213 0 min 0,000 mm 0,0 UV-I 62 W/m 2,9 C 3,2 C 8,0 km/h (2 Bft) 95,74 %
02.11.2017 08:22 3,2 C 7,8 C 98 % 1017,7 hPa 0,0 l/m 4,5 km/h (1 Bft) S-SW 196 0 min 0,000 mm 0,0 UV-I 61 W/m 2,9 C 3,2 C 6,4 km/h (2 Bft) 92,45 %
02.11.2017 08:24 3,3 C 7,8 C 98 % 1017,8 hPa 0,0 l/m 4,4 km/h (1 Bft) S-SW 199 0 min 0,000 mm 0,0 UV-I 61 W/m 3,0 C 3,3 C 6,4 km/h (2 Bft) 95,74 %
02.11.2017 08:26 3,3 C 7,8 C 98 % 1017,8 hPa 0,0 l/m 4,2 km/h (1 Bft) W-SW 243 0 min 0,000 mm 0,0 UV-I 61 W/m 3,0 C 3,3 C 6,4 km/h (2 Bft) 94,74 %
02.11.2017 08:28 3,4 C 7,8 C 98 % 1017,7 hPa 0,0 l/m 3,3 km/h (1 Bft) S-SW 196 0 min 0,000 mm 0,0 UV-I 62 W/m 3,1 C 3,4 C 6,4 km/h (2 Bft) 94,64 %
02.11.2017 08:30 3,4 C 7,8 C 98 % 1017,7 hPa 0,0 l/m 2,3 km/h (1 Bft) S-SW 196 0 min 0,000 mm 0,0 UV-I 67 W/m 3,1 C 3,4 C 4,8 km/h (1 Bft) 97,37 %
02.11.2017 08:32 3,4 C 7,8 C 98 % 1017,6 hPa 0,0 l/m 4,4 km/h (1 Bft) S-SW 196 0 min 0,000 mm 0,0 UV-I 73 W/m 3,1 C 3,4 C 6,4 km/h (2 Bft) 94,00 %
02.11.2017 08:34 3,4 C 7,8 C 98 % 1017,6 hPa 0,0 l/m 3,7 km/h (1 Bft) S-SW 196 0 min 0,000 mm 0,0 UV-I 78 W/m 3,1 C 3,4 C 4,8 km/h (1 Bft) 95,74 %
02.11.2017 08:36 3,5 C 7,8 C 98 % 1017,6 hPa 0,0 l/m 0,7 km/h (0 Bft) S-SW 196 0 min 0,000 mm 0,0 UV-I 82 W/m 3,2 C 3,5 C 3,2 km/h (1 Bft) 96,00 %
02.11.2017 08:38 3,5 C 7,8 C 98 % 1017,6 hPa 0,0 l/m 1,3 km/h (1 Bft) S-SW 196 0 min 0,000 mm 0,0 UV-I 81 W/m 3,2 C 3,5 C 3,2 km/h (1 Bft) 95,74 %
02.11.2017 08:40 3,6 C 7,8 C 98 % 1017,6 hPa 0,0 l/m 3,6 km/h (1 Bft) S-SW 196 0 min 0,000 mm 0,0 UV-I 83 W/m 3,3 C 3,6 C 4,8 km/h (1 Bft) 94,74 %
02.11.2017 08:42 3,6 C 7,8 C 98 % 1017,6 hPa 0,0 l/m 4,0 km/h (1 Bft) S-SW 196 0 min 0,000 mm 0,0 UV-I 86 W/m 3,3 C 3,6 C 4,8 km/h (1 Bft) 96,23 %
02.11.2017 08:44 3,6 C 7,8 C 98 % 1017,6 hPa 0,0 l/m 3,8 km/h (1 Bft) S-SW 200 0 min 0,000 mm 0,0 UV-I 95 W/m 3,3 C 3,6 C 6,4 km/h (2 Bft) 96,00 %
02.11.2017 08:46 3,7 C 7,8 C 98 % 1017,6 hPa 0,0 l/m 4,3 km/h (1 Bft) S-SW 200 0 min 0,000 mm 0,0 UV-I 106 W/m 3,4 C 3,7 C 6,4 km/h (2 Bft) 97,56 %
02.11.2017 08:48 3,7 C 7,8 C 98 % 1017,5 hPa 0,0 l/m 0,5 km/h (0 Bft) S-SW 196 0 min 0,000 mm 0,0 UV-I 114 W/m 3,4 C 3,7 C 3,2 km/h (1 Bft) 96,23 %
02.11.2017 08:50 3,7 C 7,8 C 98 % 1017,5 hPa 0,0 l/m 1,0 km/h (0 Bft) S-SW 196 0 min 0,000 mm 0,0 UV-I 128 W/m 3,4 C 3,7 C 3,2 km/h (1 Bft) 97,37 %
02.11.2017 08:52 3,7 C 7,8 C 98 % 1017,5 hPa 0,0 l/m 2,8 km/h (1 Bft) S-SW 196 0 min 0,000 mm 0,0 UV-I 133 W/m 3,4 C 3,7 C 4,8 km/h (1 Bft) 98,11 %
02.11.2017 08:54 3,8 C 7,8 C 98 % 1017,5 hPa 0,0 l/m 3,6 km/h (1 Bft) S-SW 211 0 min 0,000 mm 0,0 UV-I 129 W/m 3,5 C 3,8 C 4,8 km/h (1 Bft) 100,00 %
02.11.2017 08:56 3,9 C 7,8 C 98 % 1017,5 hPa 0,0 l/m 4,8 km/h (1 Bft) S-SW 211 0 min 0,000 mm 0,0 UV-I 126 W/m 3,6 C 3,9 C 6,4 km/h (2 Bft) 100,00 %
02.11.2017 08:58 3,9 C 7,8 C 98 % 1017,4 hPa 0,0 l/m 3,1 km/h (1 Bft) S-SW 209 0 min 0,000 mm 0,0 UV-I 128 W/m 3,6 C 3,9 C 4,8 km/h (1 Bft) 96,23 %
02.11.2017 09:00 3,9 C 7,8 C 98 % 1017,4 hPa 0,0 l/m 1,8 km/h (1 Bft) S-SW 209 0 min 0,000 mm 0,0 UV-I 147 W/m 3,6 C 3,9 C 3,2 km/h (1 Bft) 92,11 %
02.11.2017 09:02 4,0 C 7,8 C 98 % 1017,4 hPa 0,0 l/m 0,4 km/h (0 Bft) S-SW 209 2 min 0,026 mm 0,0 UV-I 177 W/m 3,7 C 4,0 C 1,6 km/h (1 Bft) 98,00 %
02.11.2017 09:04 4,1 C 7,8 C 98 % 1017,3 hPa 0,0 l/m 2,7 km/h (1 Bft) S-SW 209 2 min 0,000 mm 0,0 UV-I 212 W/m 3,8 C 4,1 C 6,4 km/h (2 Bft) 98,11 %
02.11.2017 09:06 4,2 C 7,8 C 98 % 1017,4 hPa 0,0 l/m 5,0 km/h (1 Bft) S-SW 209 2 min 0,000 mm 0,2 UV-I 218 W/m 3,9 C 4,2 C 8,0 km/h (2 Bft) 100,00 %
02.11.2017 09:08 4,4 C 7,8 C 98 % 1017,3 hPa 0,0 l/m 3,9 km/h (1 Bft) S-SW 209 2 min 0,000 mm 0,5 UV-I 246 W/m 4,1 C 4,4 C 6,4 km/h (2 Bft) 100,00 %
02.11.2017 09:10 4,6 C 7,8 C 98 % 1017,4 hPa 0,0 l/m 3,5 km/h (1 Bft) S-SW 209 2 min 0,000 mm 0,5 UV-I 242 W/m 4,3 C 4,6 C 4,8 km/h (1 Bft) 96,43 %
02.11.2017 09:12 4,6 C 7,8 C 98 % 1017,4 hPa 0,0 l/m 2,6 km/h (1 Bft) S-SW 209 2 min 0,000 mm 0,5 UV-I 230 W/m 4,3 C 4,6 C 4,8 km/h (1 Bft) 97,87 %
02.11.2017 09:14 4,6 C 7,8 C 98 % 1017,3 hPa 0,0 l/m 2,8 km/h (1 Bft) S-SW 209 2 min 0,000 mm 0,5 UV-I 244 W/m 4,3 C 4,6 C 4,8 km/h (1 Bft) 100,00 %
02.11.2017 09:16 4,7 C 7,8 C 98 % 1017,3 hPa 0,0 l/m 3,3 km/h (1 Bft) S-SW 210 2 min 0,000 mm 0,6 UV-I 259 W/m 4,4 C 4,7 C 4,8 km/h (1 Bft) 100,00 %
02.11.2017 09:19 4,9 C 7,8 C 98 % 1017,3 hPa 0,0 l/m 2,7 km/h (1 Bft) S-SW 209 3 min 0,000 mm 0,5 UV-I 218 W/m 4,6 C 4,9 C 6,4 km/h (2 Bft) 100,00 %
02.11.2017 09:20 4,9 C 7,8 C 98 % 1017,3 hPa 0,0 l/m 2,6 km/h (1 Bft) S-SW 209 1 min 0,000 mm 0,6 UV-I 236 W/m 4,6 C 4,9 C 3,2 km/h (1 Bft) 100,00 %
02.11.2017 09:22 5,0 C 7,8 C 98 % 1017,3 hPa 0,0 l/m 1,5 km/h (1 Bft) S-SW 209 2 min 0,000 mm 0,5 UV-I 228 W/m 4,7 C 5,0 C 3,2 km/h (1 Bft) 100,00 %
02.11.2017 09:24 5,1 C 7,8 C 98 % 1017,3 hPa 0,0 l/m 2,2 km/h (1 Bft) S-SW 209 2 min 0,000 mm 0,5 UV-I 220 W/m 4,8 C 5,1 C 4,8 km/h (1 Bft) 100,00 %
02.11.2017 09:26 5,1 C 7,8 C 98 % 1017,3 hPa 0,0 l/m 1,0 km/h (0 Bft) S-SW 209 2 min 0,000 mm 0,5 UV-I 227 W/m 4,8 C 5,1 C 3,2 km/h (1 Bft) 100,00 %
02.11.2017 09:28 5,3 C 7,8 C 98 % 1017,3 hPa 0,0 l/m 2,4 km/h (1 Bft) S-SW 210 2 min 0,000 mm 0,5 UV-I 228 W/m 5,0 C 5,3 C 4,8 km/h (1 Bft) 100,00 %
02.11.2017 09:30 5,3 C 7,8 C 98 % 1017,3 hPa 0,0 l/m 2,6 km/h (1 Bft) S-SW 209 2 min 0,000 mm 0,5 UV-I 213 W/m 5,0 C 5,3 C 4,8 km/h (1 Bft) 100,00 %
02.11.2017 09:32 5,3 C 7,8 C 98 % 1017,2 hPa 0,0 l/m 2,6 km/h (1 Bft) S-SW 211 2 min 0,000 mm 0,5 UV-I 206 W/m 5,0 C 5,3 C 4,8 km/h (1 Bft) 98,21 %
02.11.2017 09:34 5,3 C 7,8 C 98 % 1017,2 hPa 0,0 l/m 2,9 km/h (1 Bft) S-SW 211 0 min 0,000 mm 0,5 UV-I 190 W/m 5,0 C 5,3 C 6,4 km/h (2 Bft) 100,00 %
02.11.2017 09:36 5,3 C 7,8 C 98 % 1017,2 hPa 0,0 l/m 2,4 km/h (1 Bft) S-SW 211 0 min 0,000 mm 0,5 UV-I 189 W/m 5,0 C 5,3 C 4,8 km/h (1 Bft) 100,00 %
02.11.2017 09:38 5,3 C 7,8 C 98 % 1017,2 hPa 0,0 l/m 0,0 km/h (0 Bft) S-SW 211 0 min 0,000 mm 0,5 UV-I 185 W/m 5,0 C 5,3 C 0,0 km/h (0 Bft) 98,08 %
02.11.2017 09:40 5,4 C 7,8 C 98 % 1017,3 hPa 0,0 l/m 1,5 km/h (1 Bft) S-SW 211 0 min 0,000 mm 0,5 UV-I 181 W/m 5,1 C 5,4 C 4,8 km/h (1 Bft) 100,00 %
02.11.2017 09:42 5,5 C 7,8 C 98 % 1017,3 hPa 0,0 l/m 1,7 km/h (1 Bft) S-SW 211 0 min 0,000 mm 0,5 UV-I 187 W/m 5,2 C 5,5 C 4,8 km/h (1 Bft) 98,39 %
02.11.2017 09:44 5,6 C 7,8 C 98 % 1017,3 hPa 0,0 l/m 1,3 km/h (1 Bft) S-SW 211 0 min 0,000 mm 0,5 UV-I 186 W/m 5,3 C 5,6 C 3,2 km/h (1 Bft) 96,43 %
02.11.2017 09:46 5,7 C 7,8 C 98 % 1017,3 hPa 0,0 l/m 3,9 km/h (1 Bft) SW 225 0 min 0,000 mm 0,5 UV-I 174 W/m 5,4 C 5,7 C 8,0 km/h (2 Bft) 100,00 %
02.11.2017 09:48 5,5 C 7,8 C 98 % 1017,2 hPa 0,0 l/m 4,0 km/h (1 Bft) W-SW 240 0 min 0,000 mm 0,6 UV-I 172 W/m 5,2 C 5,5 C 8,0 km/h (2 Bft) 100,00 %
02.11.2017 09:50 5,5 C 7,8 C 98 % 1017,2 hPa 0,0 l/m 2,0 km/h (1 Bft) W-SW 244 0 min 0,000 mm 0,6 UV-I 172 W/m 5,2 C 5,5 C 4,8 km/h (1 Bft) 100,00 %
02.11.2017 09:52 5,4 C 7,8 C 98 % 1017,2 hPa 0,0 l/m 4,3 km/h (1 Bft) W 274 0 min 0,000 mm 0,6 UV-I 161 W/m 5,1 C 5,4 C 6,4 km/h (2 Bft) 100,00 %
02.11.2017 09:54 5,4 C 7,8 C 98 % 1017,1 hPa 0,0 l/m 3,5 km/h (1 Bft) W 267 0 min 0,000 mm 0,6 UV-I 155 W/m 5,1 C 5,4 C 6,4 km/h (2 Bft) 97,73 %
02.11.2017 09:56 5,4 C 7,8 C 98 % 1017,1 hPa 0,0 l/m 1,9 km/h (1 Bft) W 267 0 min 0,000 mm 0,6 UV-I 153 W/m 5,1 C 5,4 C 3,2 km/h (1 Bft) 97,37 %
02.11.2017 09:58 5,3 C 7,8 C 98 % 1017,1 hPa 0,0 l/m 1,6 km/h (1 Bft) SW 223 0 min 0,000 mm 0,6 UV-I 153 W/m 5,0 C 5,3 C 4,8 km/h (1 Bft) 100,00 %
02.11.2017 10:00 5,5 C 7,8 C 98 % 1017,1 hPa 0,0 l/m 3,1 km/h (1 Bft) SW 225 0 min 0,076 mm 0,6 UV-I 157 W/m 5,2 C 5,5 C 4,8 km/h (1 Bft) 95,12 %
02.11.2017 10:02 5,5 C 7,8 C 98 % 1017,0 hPa 0,0 l/m 3,5 km/h (1 Bft) W-SW 247 0 min 0,000 mm 0,7 UV-I 162 W/m 5,2 C 5,5 C 6,4 km/h (2 Bft) 100,00 %
02.11.2017 10:04 5,6 C 7,8 C 98 % 1017,0 hPa 0,0 l/m 3,8 km/h (1 Bft) W-SW 246 0 min 0,000 mm 0,7 UV-I 171 W/m 5,3 C 5,6 C 6,4 km/h (2 Bft) 100,00 %
02.11.2017 10:06 5,6 C 7,8 C 98 % 1017,0 hPa 0,0 l/m 2,8 km/h (1 Bft) W-SW 246 0 min 0,000 mm 0,7 UV-I 193 W/m 5,3 C 5,6 C 4,8 km/h (1 Bft) 100,00 %
02.11.2017 10:08 5,8 C 7,8 C 98 % 1017,0 hPa 0,0 l/m 0,8 km/h (0 Bft) W-SW 247 2 min 0,000 mm 0,8 UV-I 244 W/m 5,5 C 5,8 C 3,2 km/h (1 Bft) 96,00 %
02.11.2017 10:10 5,8 C 7,8 C 98 % 1016,9 hPa 0,0 l/m 0,2 km/h (0 Bft) W-SW 247 2 min 0,000 mm 0,9 UV-I 350 W/m 5,5 C 5,8 C 1,6 km/h (1 Bft) 96,23 %
02.11.2017 10:12 5,8 C 7,8 C 98 % 1016,9 hPa 0,0 l/m 0,3 km/h (0 Bft) W-SW 247 2 min 0,000 mm 0,9 UV-I 289 W/m 5,5 C 5,8 C 1,6 km/h (1 Bft) 96,00 %
02.11.2017 10:14 5,9 C 7,8 C 98 % 1016,9 hPa 0,0 l/m 1,0 km/h (0 Bft) W-SW 247 2 min 0,000 mm 0,9 UV-I 316 W/m 5,6 C 5,9 C 3,2 km/h (1 Bft) 97,44 %
02.11.2017 10:16 5,9 C 7,8 C 98 % 1016,9 hPa 0,0 l/m 0,0 km/h (0 Bft) W-SW 247 2 min 0,000 mm 0,9 UV-I 315 W/m 5,6 C 5,9 C 1,6 km/h (1 Bft) 98,08 %
02.11.2017 10:18 6,0 C 7,8 C 98 % 1016,9 hPa 0,0 l/m 0,0 km/h (0 Bft) W-SW 247 2 min 0,000 mm 0,8 UV-I 233 W/m 5,7 C 6,0 C 0,0 km/h (0 Bft) 97,87 %
02.11.2017 10:20 6,2 C 7,8 C 98 % 1016,9 hPa 0,0 l/m 0,0 km/h (0 Bft) W-SW 247 0 min 0,000 mm 0,8 UV-I 214 W/m 5,9 C 6,2 C 0,0 km/h (0 Bft) 97,92 %
02.11.2017 10:22 6,2 C 7,8 C 98 % 1016,8 hPa 0,0 l/m 0,4 km/h (0 Bft) W-SW 247 2 min 0,000 mm 0,9 UV-I 235 W/m 5,9 C 6,2 C 3,2 km/h (1 Bft) 97,87 %
02.11.2017 10:24 6,3 C 7,8 C 98 % 1016,9 hPa 0,0 l/m 1,7 km/h (1 Bft) W-SW 247 2 min 0,000 mm 0,9 UV-I 276 W/m 6,0 C 6,3 C 3,2 km/h (1 Bft) 95,74 %
02.11.2017 10:26 6,3 C 7,8 C 98 % 1016,8 hPa 0,0 l/m 2,9 km/h (1 Bft) W-SW 246 2 min 0,000 mm 1,0 UV-I 358 W/m 6,0 C 6,3 C 3,2 km/h (1 Bft) 100,00 %
02.11.2017 10:28 6,4 C 7,8 C 98 % 1016,9 hPa 0,0 l/m 1,5 km/h (1 Bft) W-SW 247 2 min 0,000 mm 1,1 UV-I 409 W/m 6,1 C 6,4 C 4,8 km/h (1 Bft) 97,56 %
02.11.2017 10:30 6,6 C 7,8 C 98 % 1016,8 hPa 0,0 l/m 0,5 km/h (0 Bft) W-SW 246 2 min 0,000 mm 1,1 UV-I 422 W/m 6,3 C 6,6 C 3,2 km/h (1 Bft) 96,43 %
02.11.2017 10:32 6,7 C 7,8 C 98 % 1016,8 hPa 0,0 l/m 2,0 km/h (1 Bft) W-SW 246 2 min 0,000 mm 1,1 UV-I 422 W/m 6,4 C 6,7 C 3,2 km/h (1 Bft) 97,73 %
02.11.2017 10:34 7,0 C 7,8 C 98 % 1016,8 hPa 0,0 l/m 1,4 km/h (1 Bft) W-SW 247 2 min 0,000 mm 1,1 UV-I 436 W/m 6,7 C 7,0 C 3,2 km/h (1 Bft) 98,00 %
02.11.2017 10:36 7,1 C 7,8 C 98 % 1016,8 hPa 0,0 l/m 2,1 km/h (1 Bft) W-SW 246 2 min 0,000 mm 1,1 UV-I 447 W/m 6,8 C 7,1 C 4,8 km/h (1 Bft) 98,00 %
02.11.2017 10:38 6,9 C 7,8 C 98 % 1016,7 hPa 0,0 l/m 1,3 km/h (1 Bft) W-SW 246 2 min 0,000 mm 1,2 UV-I 459 W/m 6,6 C 6,9 C 4,8 km/h (1 Bft) 96,00 %
02.11.2017 10:40 7,0 C 7,8 C 98 % 1016,7 hPa 0,0 l/m 1,8 km/h (1 Bft) W-SW 246 2 min 0,000 mm 1,1 UV-I 460 W/m 6,7 C 7,0 C 3,2 km/h (1 Bft) 100,00 %
02.11.2017 10:42 7,1 C 7,8 C 98 % 1016,7 hPa 0,0 l/m 2,0 km/h (1 Bft) W-SW 246 2 min 0,000 mm 1,2 UV-I 442 W/m 6,8 C 7,1 C 4,8 km/h (1 Bft) 98,00 %
02.11.2017 10:44 7,3 C 7,8 C 98 % 1016,6 hPa 0,0 l/m 1,3 km/h (1 Bft) W-SW 246 2 min 0,000 mm 1,1 UV-I 415 W/m 7,0 C 7,3 C 4,8 km/h (1 Bft) 100,00 %
02.11.2017 10:46 7,4 C 7,8 C 98 % 1016,6 hPa 0,0 l/m 2,8 km/h (1 Bft) W-SW 246 2 min 0,000 mm 1,2 UV-I 430 W/m 7,1 C 7,4 C 4,8 km/h (1 Bft) 98,11 %
02.11.2017 10:48 7,6 C 7,8 C 98 % 1016,6 hPa 0,0 l/m 3,1 km/h (1 Bft) W-SW 246 2 min 0,000 mm 1,2 UV-I 451 W/m 7,3 C 7,6 C 4,8 km/h (1 Bft) 97,87 %
02.11.2017 10:50 7,6 C 7,8 C 98 % 1016,5 hPa 0,0 l/m 2,5 km/h (1 Bft) W-SW 246 2 min 0,000 mm 1,2 UV-I 457 W/m 7,3 C 7,6 C 4,8 km/h (1 Bft) 100,00 %
02.11.2017 10:52 7,6 C 7,8 C 98 % 1016,5 hPa 0,0 l/m 1,4 km/h (1 Bft) W-SW 246 2 min 0,000 mm 1,2 UV-I 460 W/m 7,3 C 7,6 C 3,2 km/h (1 Bft) 100,00 %
02.11.2017 10:54 7,6 C 7,8 C 98 % 1016,5 hPa 0,0 l/m 1,2 km/h (1 Bft) W-SW 246 2 min 0,000 mm 1,2 UV-I 464 W/m 7,3 C 7,6 C 3,2 km/h (1 Bft) 100,00 %
02.11.2017 10:56 7,8 C 7,8 C 98 % 1016,5 hPa 0,0 l/m 0,7 km/h (0 Bft) W-SW 246 2 min 0,000 mm 1,3 UV-I 470 W/m 7,5 C 7,8 C 3,2 km/h (1 Bft) 98,00 %
02.11.2017 10:58 7,9 C 7,8 C 98 % 1016,4 hPa 0,0 l/m 0,4 km/h (0 Bft) W-SW 246 2 min 0,000 mm 1,3 UV-I 484 W/m 7,6 C 7,9 C 1,6 km/h (1 Bft) 100,00 %
02.11.2017 11:00 8,1 C 7,8 C 98 % 1016,4 hPa 0,0 l/m 0,1 km/h (0 Bft) W-SW 246 2 min 0,152 mm 1,3 UV-I 483 W/m 7,8 C 8,1 C 1,6 km/h (1 Bft) 98,11 %
02.11.2017 11:02 8,1 C 7,8 C 98 % 1016,4 hPa 0,0 l/m 1,3 km/h (1 Bft) W-SW 246 2 min 0,000 mm 1,3 UV-I 501 W/m 7,8 C 8,1 C 3,2 km/h (1 Bft) 100,00 %
02.11.2017 11:04 8,3 C 7,8 C 98 % 1016,4 hPa 0,0 l/m 1,0 km/h (0 Bft) W-SW 246 2 min 0,000 mm 1,3 UV-I 517 W/m 8,0 C 8,3 C 3,2 km/h (1 Bft) 100,00 %
02.11.2017 11:06 8,4 C 7,8 C 97 % 1016,3 hPa 0,0 l/m 1,4 km/h (1 Bft) W-SW 246 2 min 0,000 mm 1,4 UV-I 516 W/m 8,0 C 8,4 C 3,2 km/h (1 Bft) 100,00 %
02.11.2017 11:08 8,5 C 7,8 C 97 % 1016,3 hPa 0,0 l/m 3,6 km/h (1 Bft) W 259 2 min 0,000 mm 1,4 UV-I 531 W/m 8,1 C 8,5 C 6,4 km/h (2 Bft) 100,00 %
02.11.2017 11:10 8,5 C 7,8 C 97 % 1016,3 hPa 0,0 l/m 4,9 km/h (1 Bft) W 260 2 min 0,000 mm 1,4 UV-I 527 W/m 8,1 C 8,5 C 6,4 km/h (2 Bft) 97,87 %
02.11.2017 11:12 8,6 C 7,8 C 96 % 1016,2 hPa 0,0 l/m 2,1 km/h (1 Bft) NW 323 2 min 0,000 mm 1,4 UV-I 526 W/m 8,0 C 8,6 C 3,2 km/h (1 Bft) 98,00 %
02.11.2017 11:14 8,7 C 7,8 C 96 % 1016,2 hPa 0,0 l/m 3,5 km/h (1 Bft) NW 317 2 min 0,000 mm 1,4 UV-I 521 W/m 8,1 C 8,7 C 4,8 km/h (1 Bft) 100,00 %
02.11.2017 11:16 8,8 C 7,8 C 96 % 1016,2 hPa 0,0 l/m 2,0 km/h (1 Bft) NW 317 2 min 0,000 mm 1,3 UV-I 494 W/m 8,2 C 8,8 C 4,8 km/h (1 Bft) 100,00 %
02.11.2017 11:18 8,9 C 7,8 C 96 % 1016,1 hPa 0,0 l/m 2,7 km/h (1 Bft) W-SW 249 2 min 0,000 mm 1,3 UV-I 429 W/m 8,3 C 8,9 C 6,4 km/h (2 Bft) 98,00 %
02.11.2017 11:20 8,9 C 7,8 C 95 % 1016,1 hPa 0,0 l/m 5,0 km/h (1 Bft) W-SW 254 2 min 0,000 mm 1,3 UV-I 492 W/m 8,1 C 8,9 C 8,0 km/h (2 Bft) 95,12 %
02.11.2017 11:22 9,0 C 7,8 C 95 % 1016,2 hPa 0,0 l/m 2,5 km/h (1 Bft) SW 236 2 min 0,000 mm 1,4 UV-I 540 W/m 8,2 C 9,0 C 6,4 km/h (2 Bft) 100,00 %
02.11.2017 11:24 9,1 C 7,8 C 94 % 1016,2 hPa 0,0 l/m 2,2 km/h (1 Bft) W-SW 246 2 min 0,000 mm 1,4 UV-I 549 W/m 8,2 C 9,1 C 4,8 km/h (1 Bft) 97,56 %
02.11.2017 11:26 9,4 C 7,8 C 94 % 1016,1 hPa 0,0 l/m 1,6 km/h (1 Bft) N 349 2 min 0,000 mm 1,4 UV-I 534 W/m 8,5 C 9,4 C 4,8 km/h (1 Bft) 100,00 %
02.11.2017 11:28 9,6 C 7,8 C 93 % 1016,1 hPa 0,0 l/m 1,2 km/h (1 Bft) NW 326 2 min 0,000 mm 1,3 UV-I 500 W/m 8,5 C 9,6 C 3,2 km/h (1 Bft) 100,00 %
02.11.2017 11:30 9,6 C 7,8 C 92 % 1016,0 hPa 0,0 l/m 1,1 km/h (1 Bft) N 355 2 min 0,000 mm 1,3 UV-I 469 W/m 8,4 C 9,6 C 4,8 km/h (1 Bft) 100,00 %
02.11.2017 11:32 9,8 C 7,8 C 92 % 1016,1 hPa 0,0 l/m 3,3 km/h (1 Bft) NW 320 2 min 0,000 mm 1,3 UV-I 423 W/m 8,6 C 9,8 C 8,0 km/h (2 Bft) 100,00 %
02.11.2017 11:34 9,9 C 7,8 C 92 % 1016,1 hPa 0,0 l/m 2,7 km/h (1 Bft) NW 309 2 min 0,000 mm 1,2 UV-I 331 W/m 8,7 C 9,9 C 6,4 km/h (2 Bft) 95,12 %
02.11.2017 11:36 9,8 C 7,8 C 90 % 1016,0 hPa 0,0 l/m 1,9 km/h (1 Bft) NW 307 2 min 0,000 mm 1,2 UV-I 319 W/m 8,2 C 9,8 C 6,4 km/h (2 Bft) 100,00 %
02.11.2017 11:38 9,8 C 7,8 C 90 % 1016,0 hPa 0,0 l/m 0,6 km/h (0 Bft) NW 306 2 min 0,000 mm 1,2 UV-I 364 W/m 8,2 C 9,8 C 1,6 km/h (1 Bft) 100,00 %
02.11.2017 11:40 9,8 C 7,8 C 90 % 1015,9 hPa 0,0 l/m 1,9 km/h (1 Bft) NW 306 2 min 0,000 mm 1,4 UV-I 460 W/m 8,2 C 9,8 C 3,2 km/h (1 Bft) 100,00 %
02.11.2017 11:42 9,9 C 7,8 C 91 % 1015,9 hPa 0,0 l/m 1,6 km/h (1 Bft) N 11 2 min 0,000 mm 1,4 UV-I 500 W/m 8,5 C 9,9 C 4,8 km/h (1 Bft) 97,87 %
02.11.2017 11:44 10,1 C 7,8 C 90 % 1015,8 hPa 0,0 l/m 4,7 km/h (1 Bft) N-NO 30 2 min 0,000 mm 1,4 UV-I 517 W/m 8,5 C 10,1 C 6,4 km/h (2 Bft) 98,11 %
02.11.2017 11:46 10,3 C 7,8 C 91 % 1015,8 hPa 0,0 l/m 1,9 km/h (1 Bft) N 5 2 min 0,000 mm 1,4 UV-I 510 W/m 8,9 C 10,3 C 6,4 km/h (2 Bft) 97,37 %
02.11.2017 11:48 10,3 C 7,8 C 89 % 1015,7 hPa 0,0 l/m 2,6 km/h (1 Bft) N-NO 15 2 min 0,000 mm 1,4 UV-I 486 W/m 8,6 C 10,3 C 4,8 km/h (1 Bft) 97,87 %
02.11.2017 11:50 10,2 C 7,8 C 90 % 1015,7 hPa 0,0 l/m 6,0 km/h (2 Bft) NO 43 2 min 0,000 mm 1,4 UV-I 472 W/m 8,6 C 10,2 C 9,7 km/h (2 Bft) 98,00 %
02.11.2017 11:52 10,2 C 7,8 C 90 % 1015,6 hPa 0,0 l/m 2,0 km/h (1 Bft) N-NO 14 2 min 0,000 mm 1,4 UV-I 464 W/m 8,6 C 10,2 C 6,4 km/h (2 Bft) 96,23 %
02.11.2017 11:54 10,3 C 7,8 C 90 % 1015,6 hPa 0,0 l/m 5,3 km/h (1 Bft) N-NO 24 2 min 0,000 mm 1,3 UV-I 458 W/m 8,7 C 10,3 C 9,7 km/h (2 Bft) 97,56 %
02.11.2017 11:56 10,3 C 7,8 C 89 % 1015,6 hPa 0,0 l/m 1,4 km/h (1 Bft) NO 40 2 min 0,000 mm 1,4 UV-I 471 W/m 8,6 C 10,3 C 4,8 km/h (1 Bft) 96,00 %
02.11.2017 11:58 10,3 C 7,8 C 89 % 1015,6 hPa 0,0 l/m 3,1 km/h (1 Bft) NO 42 2 min 0,000 mm 1,4 UV-I 472 W/m 8,6 C 10,3 C 4,8 km/h (1 Bft) 94,74 %
02.11.2017 12:00 10,3 C 7,8 C 89 % 1015,6 hPa 0,0 l/m 0,2 km/h (0 Bft) NO 41 2 min 0,229 mm 1,4 UV-I 468 W/m 8,6 C 10,3 C 1,6 km/h (1 Bft) 96,43 %
02.11.2017 12:02 10,5 C 7,8 C 89 % 1015,6 hPa 0,0 l/m 1,4 km/h (1 Bft) NO 41 2 min 0,000 mm 1,4 UV-I 464 W/m 8,8 C 10,5 C 3,2 km/h (1 Bft) 97,87 %
02.11.2017 12:04 10,5 C 7,8 C 88 % 1015,5 hPa 0,0 l/m 3,2 km/h (1 Bft) NO 41 2 min 0,000 mm 1,4 UV-I 464 W/m 8,6 C 10,5 C 4,8 km/h (1 Bft) 97,37 %
02.11.2017 12:06 10,4 C 7,8 C 87 % 1015,6 hPa 0,0 l/m 1,8 km/h (1 Bft) NO 41 2 min 0,000 mm 1,3 UV-I 454 W/m 8,3 C 10,4 C 6,4 km/h (2 Bft) 98,00 %
02.11.2017 12:08 10,5 C 7,8 C 88 % 1015,5 hPa 0,0 l/m 3,5 km/h (1 Bft) NO 41 2 min 0,000 mm 1,3 UV-I 450 W/m 8,6 C 10,5 C 4,8 km/h (1 Bft) 96,23 %
02.11.2017 12:10 10,4 C 7,8 C 87 % 1015,5 hPa 0,0 l/m 3,6 km/h (1 Bft) NO 41 2 min 0,000 mm 1,3 UV-I 458 W/m 8,3 C 10,4 C 4,8 km/h (1 Bft) 100,00 %
02.11.2017 12:12 10,2 C 7,8 C 87 % 1015,4 hPa 0,0 l/m 2,9 km/h (1 Bft) NO 41 2 min 0,000 mm 1,3 UV-I 455 W/m 8,1 C 10,2 C 4,8 km/h (1 Bft) 100,00 %
02.11.2017 12:14 10,2 C 7,8 C 88 % 1015,4 hPa 0,0 l/m 2,5 km/h (1 Bft) NO 41 2 min 0,000 mm 1,3 UV-I 453 W/m 8,3 C 10,2 C 4,8 km/h (1 Bft) 97,87 %
02.11.2017 12:16 10,3 C 7,8 C 88 % 1015,4 hPa 0,0 l/m 0,8 km/h (0 Bft) NO 41 2 min 0,000 mm 1,3 UV-I 450 W/m 8,4 C 10,3 C 3,2 km/h (1 Bft) 100,00 %
02.11.2017 12:18 10,2 C 7,8 C 87 % 1015,3 hPa 0,0 l/m 0,1 km/h (0 Bft) NO 41 2 min 0,000 mm 1,3 UV-I 446 W/m 8,1 C 10,2 C 3,2 km/h (1 Bft) 98,00 %
02.11.2017 12:20 10,3 C 7,8 C 87 % 1015,3 hPa 0,0 l/m 0,3 km/h (0 Bft) NO 41 2 min 0,000 mm 1,3 UV-I 444 W/m 8,2 C 10,3 C 3,2 km/h (1 Bft) 98,00 %
02.11.2017 12:22 10,6 C 7,8 C 88 % 1015,3 hPa 0,0 l/m 2,2 km/h (1 Bft) NO 41 2 min 0,000 mm 1,3 UV-I 442 W/m 8,7 C 10,6 C 4,8 km/h (1 Bft) 97,87 %
02.11.2017 12:24 10,8 C 7,8 C 87 % 1015,4 hPa 0,0 l/m 1,7 km/h (1 Bft) NO 41 2 min 0,000 mm 1,3 UV-I 438 W/m 8,7 C 10,8 C 4,8 km/h (1 Bft) 100,00 %
02.11.2017 12:26 10,9 C 7,8 C 87 % 1015,3 hPa 0,0 l/m 0,8 km/h (0 Bft) NO 41 2 min 0,000 mm 1,3 UV-I 435 W/m 8,8 C 10,9 C 4,8 km/h (1 Bft) 100,00 %
02.11.2017 12:28 11,1 C 7,8 C 85 % 1015,3 hPa 0,0 l/m 0,8 km/h (0 Bft) NO 41 2 min 0,000 mm 1,3 UV-I 435 W/m 8,7 C 11,1 C 3,2 km/h (1 Bft) 100,00 %
02.11.2017 12:30 11,1 C 7,8 C 85 % 1015,3 hPa 0,0 l/m 0,7 km/h (0 Bft) NO 41 2 min 0,000 mm 1,3 UV-I 433 W/m 8,7 C 11,1 C 3,2 km/h (1 Bft) 100,00 %
02.11.2017 12:32 11,2 C 7,8 C 86 % 1015,3 hPa 0,0 l/m 0,9 km/h (0 Bft) NO 41 2 min 0,000 mm 1,3 UV-I 430 W/m 8,9 C 11,2 C 3,2 km/h (1 Bft) 98,04 %
02.11.2017 12:34 11,2 C 7,8 C 85 % 1015,2 hPa 0,0 l/m 1,8 km/h (1 Bft) NO 41 2 min 0,000 mm 1,3 UV-I 427 W/m 8,8 C 11,2 C 4,8 km/h (1 Bft) 100,00 %
02.11.2017 12:36 11,3 C 7,8 C 86 % 1015,2 hPa 0,0 l/m 0,9 km/h (0 Bft) NO 41 2 min 0,000 mm 1,3 UV-I 425 W/m 9,0 C 11,3 C 3,2 km/h (1 Bft) 100,00 %
02.11.2017 12:38 11,3 C 7,8 C 84 % 1015,2 hPa 0,0 l/m 1,3 km/h (1 Bft) N-NO 29 2 min 0,000 mm 1,3 UV-I 425 W/m 8,7 C 11,3 C 3,2 km/h (1 Bft) 100,00 %
02.11.2017 12:40 11,2 C 7,8 C 84 % 1015,2 hPa 0,0 l/m 0,6 km/h (0 Bft) N-NO 29 2 min 0,000 mm 1,3 UV-I 425 W/m 8,6 C 11,2 C 3,2 km/h (1 Bft) 100,00 %
02.11.2017 12:42 11,3 C 7,8 C 86 % 1015,1 hPa 0,0 l/m 0,4 km/h (0 Bft) N-NO 29 2 min 0,000 mm 1,3 UV-I 423 W/m 9,0 C 11,3 C 1,6 km/h (1 Bft) 100,00 %
02.11.2017 12:44 11,5 C 7,8 C 86 % 1015,0 hPa 0,0 l/m 2,1 km/h (1 Bft) N-NO 29 2 min 0,000 mm 1,3 UV-I 419 W/m 9,2 C 11,5 C 4,8 km/h (1 Bft) 100,00 %
02.11.2017 12:46 11,4 C 7,8 C 83 % 1015,0 hPa 0,0 l/m 1,1 km/h (1 Bft) N-NO 29 2 min 0,000 mm 1,3 UV-I 421 W/m 8,6 C 11,4 C 3,2 km/h (1 Bft) 100,00 %
02.11.2017 12:48 11,5 C 7,8 C 85 % 1014,9 hPa 0,0 l/m 3,2 km/h (1 Bft) N-NO 29 2 min 0,000 mm 1,2 UV-I 420 W/m 9,1 C 11,5 C 6,4 km/h (2 Bft) 100,00 %
02.11.2017 12:50 11,6 C 7,8 C 86 % 1014,9 hPa 0,0 l/m 4,2 km/h (1 Bft) N-NO 29 2 min 0,000 mm 1,2 UV-I 419 W/m 9,3 C 11,6 C 4,8 km/h (1 Bft) 100,00 %
02.11.2017 12:52 11,8 C 7,8 C 85 % 1014,9 hPa 0,0 l/m 3,6 km/h (1 Bft) N-NO 25 2 min 0,000 mm 1,2 UV-I 416 W/m 9,4 C 11,8 C 6,4 km/h (2 Bft) 100,00 %
02.11.2017 12:54 11,9 C 7,8 C 83 % 1014,9 hPa 0,0 l/m 2,7 km/h (1 Bft) NW 305 2 min 0,000 mm 1,2 UV-I 414 W/m 9,1 C 11,9 C 4,8 km/h (1 Bft) 100,00 %
02.11.2017 12:56 11,8 C 7,8 C 82 % 1014,8 hPa 0,0 l/m 1,6 km/h (1 Bft) NW 305 2 min 0,000 mm 1,2 UV-I 413 W/m 8,8 C 11,8 C 3,2 km/h (1 Bft) 98,00 %
02.11.2017 12:58 11,8 C 7,8 C 82 % 1014,8 hPa 0,0 l/m 0,5 km/h (0 Bft) NW 305 2 min 0,000 mm 1,2 UV-I 410 W/m 8,8 C 11,8 C 1,6 km/h (1 Bft) 100,00 %
02.11.2017 13:00 11,9 C 7,8 C 83 % 1014,7 hPa 0,0 l/m 1,3 km/h (1 Bft) NW 305 2 min 0,203 mm 1,2 UV-I 409 W/m 9,1 C 11,9 C 3,2 km/h (1 Bft) 97,87 %
02.11.2017 13:02 12,3 C 7,8 C 83 % 1014,7 hPa 0,0 l/m 0,2 km/h (0 Bft) NW 305 2 min 0,000 mm 1,1 UV-I 408 W/m 9,5 C 12,3 C 1,6 km/h (1 Bft) 100,00 %
02.11.2017 13:04 12,4 C 7,8 C 82 % 1014,6 hPa 0,0 l/m 0,5 km/h (0 Bft) NW 305 2 min 0,000 mm 1,1 UV-I 404 W/m 9,4 C 12,4 C 1,6 km/h (1 Bft) 95,74 %
02.11.2017 13:06 12,6 C 7,8 C 81 % 1014,6 hPa 0,0 l/m 1,3 km/h (1 Bft) NW 305 2 min 0,000 mm 1,1 UV-I 401 W/m 9,4 C 12,6 C 3,2 km/h (1 Bft) 100,00 %
02.11.2017 13:08 12,6 C 7,8 C 80 % 1014,5 hPa 0,0 l/m 2,8 km/h (1 Bft) NW 305 2 min 0,000 mm 1,1 UV-I 401 W/m 9,2 C 12,6 C 4,8 km/h (1 Bft) 98,00 %
02.11.2017 13:10 12,7 C 7,8 C 79 % 1014,5 hPa 0,0 l/m 4,6 km/h (1 Bft) W 259 2 min 0,000 mm 1,1 UV-I 399 W/m 9,2 C 12,7 C 9,7 km/h (2 Bft) 100,00 %
02.11.2017 13:12 12,8 C 7,8 C 79 % 1014,5 hPa 0,0 l/m 3,9 km/h (1 Bft) W 266 2 min 0,000 mm 1,1 UV-I 398 W/m 9,2 C 12,8 C 9,7 km/h (2 Bft) 100,00 %
02.11.2017 13:14 12,9 C 7,8 C 79 % 1014,5 hPa 0,0 l/m 5,4 km/h (1 Bft) W 260 2 min 0,000 mm 1,1 UV-I 396 W/m 9,3 C 12,9 C 11,3 km/h (2 Bft) 98,00 %
02.11.2017 13:16 13,1 C 7,8 C 77 % 1014,4 hPa 0,0 l/m 6,3 km/h (2 Bft) W-SW 244 2 min 0,000 mm 1,1 UV-I 392 W/m 9,2 C 13,1 C 12,9 km/h (3 Bft) 98,00 %
02.11.2017 13:18 13,2 C 7,8 C 78 % 1014,5 hPa 0,0 l/m 5,4 km/h (1 Bft) W-SW 244 2 min 0,000 mm 1,1 UV-I 390 W/m 9,4 C 13,2 C 11,3 km/h (2 Bft) 95,74 %
02.11.2017 13:20 13,2 C 7,8 C 77 % 1014,4 hPa 0,0 l/m 8,6 km/h (2 Bft) W-SW 256 2 min 0,000 mm 1,0 UV-I 385 W/m 9,3 C 11,9 C 12,9 km/h (3 Bft) 95,83 %
02.11.2017 13:22 13,3 C 7,8 C 78 % 1014,4 hPa 0,0 l/m 5,7 km/h (1 Bft) SW 217 2 min 0,000 mm 1,0 UV-I 380 W/m 9,5 C 13,3 C 11,3 km/h (2 Bft) 100,00 %
02.11.2017 13:24 13,5 C 7,8 C 79 % 1014,3 hPa 0,0 l/m 4,6 km/h (1 Bft) SW 233 2 min 0,000 mm 1,0 UV-I 375 W/m 9,9 C 13,5 C 6,4 km/h (2 Bft) 97,37 %
02.11.2017 13:26 13,6 C 7,8 C 76 % 1014,3 hPa 0,0 l/m 6,0 km/h (2 Bft) S-SW 205 2 min 0,000 mm 1,0 UV-I 368 W/m 9,4 C 13,6 C 11,3 km/h (2 Bft) 96,43 %
02.11.2017 13:28 13,7 C 7,8 C 77 % 1014,3 hPa 0,0 l/m 6,2 km/h (2 Bft) S-SW 209 2 min 0,000 mm 1,0 UV-I 368 W/m 9,7 C 13,7 C 12,9 km/h (3 Bft) 95,12 %
02.11.2017 13:30 13,8 C 7,8 C 76 % 1014,3 hPa 0,0 l/m 3,1 km/h (1 Bft) S-SW 209 2 min 0,000 mm 1,0 UV-I 367 W/m 9,6 C 13,8 C 8,0 km/h (2 Bft) 96,00 %
02.11.2017 13:32 13,8 C 7,8 C 77 % 1014,2 hPa 0,0 l/m 6,4 km/h (2 Bft) S-SW 208 2 min 0,000 mm 0,9 UV-I 366 W/m 9,8 C 13,8 C 12,9 km/h (3 Bft) 96,00 %
02.11.2017 13:34 13,8 C 7,8 C 77 % 1014,2 hPa 0,0 l/m 5,2 km/h (1 Bft) S-SW 198 2 min 0,000 mm 0,9 UV-I 366 W/m 9,8 C 13,8 C 11,3 km/h (2 Bft) 93,62 %
02.11.2017 13:36 13,9 C 7,8 C 76 % 1014,2 hPa 0,0 l/m 3,5 km/h (1 Bft) W-SW 240 2 min 0,000 mm 0,9 UV-I 367 W/m 9,7 C 13,9 C 8,0 km/h (2 Bft) 97,44 %
02.11.2017 13:38 13,9 C 7,8 C 74 % 1014,2 hPa 0,0 l/m 5,5 km/h (1 Bft) W-SW 249 2 min 0,000 mm 0,9 UV-I 370 W/m 9,3 C 13,9 C 9,7 km/h (2 Bft) 94,64 %
02.11.2017 13:40 13,9 C 7,8 C 74 % 1014,1 hPa 0,0 l/m 2,9 km/h (1 Bft) W 268 2 min 0,000 mm 0,9 UV-I 369 W/m 9,3 C 13,9 C 6,4 km/h (2 Bft) 94,74 %
02.11.2017 13:42 13,9 C 7,8 C 74 % 1014,1 hPa 0,0 l/m 4,2 km/h (1 Bft) W 279 2 min 0,000 mm 0,9 UV-I 372 W/m 9,3 C 13,9 C 6,4 km/h (2 Bft) 98,00 %
02.11.2017 13:44 14,1 C 7,8 C 71 % 1014,1 hPa 0,0 l/m 8,0 km/h (2 Bft) W-SW 250 2 min 0,000 mm 0,9 UV-I 359 W/m 8,9 C 13,2 C 14,5 km/h (3 Bft) 95,45 %
02.11.2017 13:46 14,4 C 7,8 C 72 % 1014,1 hPa 0,0 l/m 4,2 km/h (1 Bft) W-SW 251 2 min 0,000 mm 0,8 UV-I 307 W/m 9,4 C 14,4 C 8,0 km/h (2 Bft) 95,12 %
02.11.2017 13:48 14,7 C 7,8 C 72 % 1014,0 hPa 0,0 l/m 6,4 km/h (2 Bft) W 271 2 min 0,000 mm 0,9 UV-I 400 W/m 9,7 C 14,7 C 12,9 km/h (3 Bft) 92,00 %
02.11.2017 13:50 14,9 C 7,8 C 69 % 1014,0 hPa 0,0 l/m 8,4 km/h (2 Bft) W 260 2 min 0,000 mm 0,9 UV-I 408 W/m 9,3 C 13,8 C 16,1 km/h (3 Bft) 96,43 %
02.11.2017 13:52 15,1 C 7,8 C 64 % 1014,0 hPa 0,0 l/m 11,3 km/h (2 Bft) W-SW 251 2 min 0,000 mm 0,8 UV-I 416 W/m 8,3 C 12,7 C 16,1 km/h (3 Bft) 94,74 %
02.11.2017 13:54 15,1 C 7,8 C 65 % 1014,0 hPa 0,0 l/m 8,7 km/h (2 Bft) W-SW 248 2 min 0,000 mm 0,7 UV-I 294 W/m 8,6 C 13,8 C 12,9 km/h (3 Bft) 98,21 %
02.11.2017 13:56 15,1 C 7,8 C 65 % 1013,9 hPa 0,0 l/m 8,9 km/h (2 Bft) W-SW 246 2 min 0,000 mm 0,7 UV-I 202 W/m 8,6 C 13,7 C 12,9 km/h (3 Bft) 95,12 %
02.11.2017 13:58 15,2 C 7,8 C 63 % 1013,9 hPa 0,0 l/m 12,6 km/h (3 Bft) W-SW 258 2 min 0,000 mm 0,7 UV-I 203 W/m 8,2 C 12,3 C 20,9 km/h (4 Bft) 97,87 %
02.11.2017 14:00 15,1 C 7,8 C 63 % 1013,9 hPa 0,0 l/m 11,8 km/h (2 Bft) W-SW 250 0 min 0,203 mm 0,6 UV-I 169 W/m 8,1 C 12,5 C 19,3 km/h (3 Bft) 100,00 %
02.11.2017 14:02 15,0 C 7,8 C 62 % 1014,0 hPa 0,0 l/m 16,4 km/h (3 Bft) W 261 0 min 0,000 mm 0,6 UV-I 172 W/m 7,8 C 10,7 C 20,9 km/h (4 Bft) 97,73 %
02.11.2017 14:04 14,9 C 7,8 C 62 % 1013,9 hPa 0,0 l/m 19,4 km/h (3 Bft) W-SW 253 0 min 0,000 mm 0,6 UV-I 177 W/m 7,7 C 9,8 C 29,0 km/h (5 Bft) 100,00 %
02.11.2017 14:06 14,8 C 7,8 C 63 % 1013,9 hPa 0,0 l/m 15,5 km/h (3 Bft) W-SW 245 0 min 0,000 mm 0,6 UV-I 180 W/m 7,8 C 10,8 C 22,5 km/h (4 Bft) 100,00 %
02.11.2017 14:08 14,8 C 7,8 C 63 % 1013,9 hPa 0,0 l/m 16,1 km/h (3 Bft) W-SW 250 0 min 0,000 mm 0,5 UV-I 182 W/m 7,8 C 10,6 C 22,5 km/h (4 Bft) 100,00 %
02.11.2017 14:10 14,8 C 7,8 C 63 % 1013,9 hPa 0,0 l/m 11,8 km/h (2 Bft) W 261 0 min 0,000 mm 0,5 UV-I 181 W/m 7,8 C 12,1 C 17,7 km/h (3 Bft) 100,00 %
02.11.2017 14:12 14,7 C 7,8 C 63 % 1013,8 hPa 0,0 l/m 17,0 km/h (3 Bft) W-SW 240 0 min 0,000 mm 0,5 UV-I 181 W/m 7,7 C 10,2 C 24,1 km/h (4 Bft) 100,00 %
02.11.2017 14:14 14,7 C 7,8 C 63 % 1013,8 hPa 0,0 l/m 13,8 km/h (3 Bft) W-SW 252 0 min 0,000 mm 0,5 UV-I 179 W/m 7,7 C 11,2 C 20,9 km/h (4 Bft) 100,00 %
02.11.2017 14:16 14,7 C 7,8 C 63 % 1013,8 hPa 0,0 l/m 14,1 km/h (3 Bft) W-SW 252 0 min 0,000 mm 0,5 UV-I 176 W/m 7,7 C 11,1 C 17,7 km/h (3 Bft) 100,00 %
02.11.2017 14:18 14,7 C 7,8 C 63 % 1013,9 hPa 0,0 l/m 12,4 km/h (3 Bft) W-SW 244 0 min 0,000 mm 0,5 UV-I 176 W/m 7,7 C 11,8 C 20,9 km/h (4 Bft) 100,00 %
02.11.2017 14:20 14,7 C 7,8 C 65 % 1013,8 hPa 0,0 l/m 9,5 km/h (2 Bft) SW 236 0 min 0,000 mm 0,2 UV-I 175 W/m 8,2 C 13,0 C 16,1 km/h (3 Bft) 100,00 %
02.11.2017 14:22 14,7 C 7,8 C 63 % 1013,8 hPa 0,0 l/m 15,0 km/h (3 Bft) W-SW 253 0 min 0,000 mm 0,0 UV-I 172 W/m 7,7 C 10,8 C 22,5 km/h (4 Bft) 98,11 %
02.11.2017 14:24 14,7 C 7,8 C 64 % 1013,8 hPa 0,0 l/m 16,1 km/h (3 Bft) SW 217 0 min 0,000 mm 0,0 UV-I 170 W/m 8,0 C 10,5 C 24,1 km/h (4 Bft) 100,00 %
02.11.2017 14:26 14,7 C 7,8 C 64 % 1013,7 hPa 0,0 l/m 14,9 km/h (3 Bft) S-SW 207 0 min 0,000 mm 0,0 UV-I 165 W/m 8,0 C 10,9 C 20,9 km/h (4 Bft) 100,00 %
02.11.2017 14:28 14,6 C 7,8 C 64 % 1013,8 hPa 0,0 l/m 17,7 km/h (3 Bft) SW 227 0 min 0,000 mm 0,0 UV-I 157 W/m 7,9 C 9,9 C 27,4 km/h (4 Bft) 98,00 %
02.11.2017 14:30 14,6 C 7,8 C 63 % 1013,7 hPa 0,0 l/m 14,8 km/h (3 Bft) W-SW 248 0 min 0,000 mm 0,0 UV-I 150 W/m 7,6 C 10,8 C 22,5 km/h (4 Bft) 100,00 %
02.11.2017 14:32 14,6 C 7,8 C 63 % 1013,8 hPa 0,0 l/m 12,9 km/h (3 Bft) W-SW 246 0 min 0,000 mm 0,0 UV-I 144 W/m 7,6 C 11,5 C 19,3 km/h (3 Bft) 100,00 %
02.11.2017 14:34 14,5 C 7,8 C 64 % 1013,8 hPa 0,0 l/m 14,0 km/h (3 Bft) S-SW 200 0 min 0,000 mm 0,0 UV-I 140 W/m 7,8 C 10,9 C 20,9 km/h (4 Bft) 100,00 %
02.11.2017 14:36 14,5 C 7,8 C 64 % 1013,8 hPa 0,0 l/m 12,6 km/h (3 Bft) SW 236 0 min 0,000 mm 0,0 UV-I 137 W/m 7,8 C 11,5 C 17,7 km/h (3 Bft) 100,00 %
02.11.2017 14:38 14,5 C 7,8 C 64 % 1013,8 hPa 0,0 l/m 10,9 km/h (2 Bft) W 273 0 min 0,000 mm 0,0 UV-I 134 W/m 7,8 C 12,2 C 16,1 km/h (3 Bft) 100,00 %
02.11.2017 14:40 14,4 C 7,8 C 65 % 1013,8 hPa 0,0 l/m 8,2 km/h (2 Bft) W-SW 250 0 min 0,000 mm 0,0 UV-I 129 W/m 7,9 C 13,4 C 12,9 km/h (3 Bft) 100,00 %
02.11.2017 14:42 14,4 C 7,8 C 65 % 1013,8 hPa 0,0 l/m 10,2 km/h (2 Bft) SW 236 0 min 0,000 mm 0,0 UV-I 126 W/m 7,9 C 12,4 C 17,7 km/h (3 Bft) 100,00 %
02.11.2017 14:44 14,4 C 7,8 C 64 % 1013,7 hPa 0,0 l/m 10,5 km/h (2 Bft) W-SW 241 0 min 0,000 mm 0,0 UV-I 126 W/m 7,7 C 12,2 C 16,1 km/h (3 Bft) 100,00 %
02.11.2017 14:46 14,4 C 7,8 C 65 % 1013,7 hPa 0,0 l/m 11,1 km/h (2 Bft) W 266 0 min 0,000 mm 0,0 UV-I 130 W/m 7,9 C 12,0 C 17,7 km/h (3 Bft) 100,00 %
02.11.2017 14:48 14,3 C 7,8 C 65 % 1013,7 hPa 0,0 l/m 10,9 km/h (2 Bft) W-SW 241 0 min 0,000 mm 0,0 UV-I 139 W/m 7,8 C 11,9 C 16,1 km/h (3 Bft) 100,00 %
02.11.2017 14:50 14,3 C 7,8 C 66 % 1013,7 hPa 0,0 l/m 11,3 km/h (2 Bft) W-SW 242 2 min 0,000 mm 0,0 UV-I 194 W/m 8,0 C 11,8 C 17,7 km/h (3 Bft) 100,00 %
02.11.2017 14:52 14,4 C 7,8 C 65 % 1013,7 hPa 0,0 l/m 12,6 km/h (3 Bft) W-SW 255 2 min 0,000 mm 0,0 UV-I 228 W/m 7,9 C 11,3 C 19,3 km/h (3 Bft) 100,00 %
02.11.2017 14:54 14,4 C 7,8 C 66 % 1013,7 hPa 0,0 l/m 6,4 km/h (2 Bft) W 261 2 min 0,000 mm 0,0 UV-I 277 W/m 8,1 C 14,4 C 9,7 km/h (2 Bft) 100,00 %
02.11.2017 14:56 14,6 C 7,8 C 65 % 1013,6 hPa 0,0 l/m 14,2 km/h (3 Bft) SW 228 2 min 0,000 mm 0,0 UV-I 272 W/m 8,1 C 11,0 C 20,9 km/h (4 Bft) 97,14 %
02.11.2017 14:58 14,7 C 7,8 C 64 % 1013,7 hPa 0,2 l/m 13,2 km/h (3 Bft) W-SW 250 2 min 0,000 mm 0,0 UV-I 263 W/m 8,0 C 11,5 C 19,3 km/h (3 Bft) 100,00 %
02.11.2017 15:00 14,8 C 7,8 C 64 % 1013,7 hPa 0,0 l/m 12,8 km/h (3 Bft) W-SW 255 2 min 0,000 mm 0,0 UV-I 254 W/m 8,1 C 11,7 C 19,3 km/h (3 Bft) 100,00 %
02.11.2017 15:03 14,8 C 7,8 C 63 % 1013,7 hPa 0,0 l/m 14,1 km/h (3 Bft) W-SW 253 3 min 0,153 mm 0,0 UV-I 194 W/m 7,8 C 11,3 C 17,7 km/h (3 Bft) 97,14 %
02.11.2017 15:04 14,8 C 7,8 C 63 % 1013,6 hPa 0,0 l/m 11,2 km/h (2 Bft) W-SW 239 1 min 0,000 mm 0,0 UV-I 149 W/m 7,8 C 12,4 C 14,5 km/h (3 Bft) 100,00 %
02.11.2017 15:06 14,7 C 7,8 C 64 % 1013,7 hPa 0,0 l/m 7,9 km/h (2 Bft) W-SW 242 2 min 0,000 mm 0,0 UV-I 137 W/m 8,0 C 13,8 C 11,3 km/h (2 Bft) 100,00 %
02.11.2017 15:08 14,7 C 7,8 C 65 % 1013,7 hPa 0,0 l/m 13,3 km/h (3 Bft) W-SW 257 2 min 0,000 mm 0,0 UV-I 134 W/m 8,2 C 11,4 C 17,7 km/h (3 Bft) 100,00 %
02.11.2017 15:10 14,6 C 7,8 C 65 % 1013,7 hPa 0,0 l/m 11,6 km/h (2 Bft) W-SW 254 2 min 0,000 mm 0,0 UV-I 133 W/m 8,1 C 12,0 C 16,1 km/h (3 Bft) 100,00 %
02.11.2017 15:12 14,5 C 7,8 C 65 % 1013,7 hPa 0,0 l/m 12,1 km/h (2 Bft) SW 232 2 min 0,000 mm 0,0 UV-I 132 W/m 8,0 C 11,7 C 17,7 km/h (3 Bft) 100,00 %
02.11.2017 15:14 14,5 C 7,8 C 64 % 1013,7 hPa 0,0 l/m 11,0 km/h (2 Bft) W-SW 251 2 min 0,000 mm 0,0 UV-I 128 W/m 7,8 C 12,1 C 17,7 km/h (3 Bft) 100,00 %
02.11.2017 15:16 14,4 C 7,8 C 65 % 1013,7 hPa 0,0 l/m 11,1 km/h (2 Bft) W 263 2 min 0,000 mm 0,0 UV-I 122 W/m 7,9 C 12,0 C 17,7 km/h (3 Bft) 98,39 %
02.11.2017 15:18 14,3 C 7,8 C 66 % 1013,7 hPa 0,0 l/m 11,3 km/h (2 Bft) W-SW 252 2 min 0,000 mm 0,0 UV-I 118 W/m 8,0 C 11,8 C 19,3 km/h (3 Bft) 97,37 %
02.11.2017 15:20 14,3 C 7,8 C 65 % 1013,7 hPa 0,0 l/m 12,9 km/h (3 Bft) W-SW 254 2 min 0,000 mm 0,0 UV-I 113 W/m 7,8 C 11,1 C 19,3 km/h (3 Bft) 96,49 %
02.11.2017 15:22 14,3 C 7,8 C 66 % 1013,7 hPa 0,0 l/m 10,4 km/h (2 Bft) W 265 2 min 0,000 mm 0,0 UV-I 111 W/m 8,0 C 12,2 C 16,1 km/h (3 Bft) 94,74 %
02.11.2017 15:24 14,3 C 7,8 C 66 % 1013,6 hPa 0,0 l/m 8,5 km/h (2 Bft) SW 234 2 min 0,000 mm 0,0 UV-I 115 W/m 8,0 C 13,1 C 14,5 km/h (3 Bft) 96,23 %
02.11.2017 15:26 14,2 C 7,8 C 67 % 1013,7 hPa 0,0 l/m 7,2 km/h (2 Bft) W-NW 284 2 min 0,000 mm 0,0 UV-I 128 W/m 8,2 C 13,7 C 12,9 km/h (3 Bft) 97,87 %
02.11.2017 15:28 14,2 C 7,8 C 67 % 1013,7 hPa 0,0 l/m 11,1 km/h (2 Bft) W-SW 255 2 min 0,000 mm 0,0 UV-I 186 W/m 8,2 C 11,7 C 17,7 km/h (3 Bft) 97,44 %
02.11.2017 15:30 14,2 C 7,8 C 66 % 1013,7 hPa 0,0 l/m 12,2 km/h (2 Bft) W 266 2 min 0,000 mm 0,0 UV-I 187 W/m 7,9 C 11,3 C 16,1 km/h (3 Bft) 98,00 %
02.11.2017 15:32 14,3 C 7,8 C 66 % 1013,7 hPa 0,0 l/m 12,2 km/h (2 Bft) W-SW 238 2 min 0,000 mm 0,0 UV-I 181 W/m 8,0 C 11,4 C 22,5 km/h (4 Bft) 96,23 %
02.11.2017 15:34 14,3 C 7,8 C 66 % 1013,6 hPa 0,0 l/m 9,4 km/h (2 Bft) W-SW 257 2 min 0,000 mm 0,0 UV-I 181 W/m 8,0 C 12,6 C 19,3 km/h (3 Bft) 95,12 %
02.11.2017 15:36 14,4 C 7,8 C 66 % 1013,6 hPa 0,0 l/m 10,5 km/h (2 Bft) W-SW 249 2 min 0,000 mm 0,0 UV-I 179 W/m 8,1 C 12,2 C 19,3 km/h (3 Bft) 98,11 %
02.11.2017 15:38 14,4 C 7,8 C 66 % 1013,6 hPa 0,0 l/m 10,9 km/h (2 Bft) W-SW 243 2 min 0,000 mm 0,0 UV-I 174 W/m 8,1 C 12,0 C 17,7 km/h (3 Bft) 97,56 %
02.11.2017 15:40 14,5 C 7,8 C 65 % 1013,6 hPa 0,0 l/m 11,9 km/h (2 Bft) W-SW 240 2 min 0,000 mm 0,0 UV-I 167 W/m 8,0 C 11,7 C 19,3 km/h (3 Bft) 93,62 %
02.11.2017 15:42 14,6 C 7,8 C 65 % 1013,7 hPa 0,0 l/m 14,1 km/h (3 Bft) SW 219 2 min 0,000 mm 0,0 UV-I 161 W/m 8,1 C 11,0 C 20,9 km/h (4 Bft) 98,11 %
02.11.2017 15:44 14,6 C 7,8 C 65 % 1013,7 hPa 0,0 l/m 9,8 km/h (2 Bft) W-SW 250 2 min 0,000 mm 0,0 UV-I 148 W/m 8,1 C 12,8 C 14,5 km/h (3 Bft) 98,00 %
02.11.2017 15:46 14,5 C 7,8 C 66 % 1013,7 hPa 0,0 l/m 9,9 km/h (2 Bft) SW 229 2 min 0,000 mm 0,0 UV-I 115 W/m 8,2 C 12,6 C 17,7 km/h (3 Bft) 97,14 %
02.11.2017 15:48 14,5 C 7,8 C 66 % 1013,7 hPa 0,0 l/m 9,9 km/h (2 Bft) W-SW 254 2 min 0,000 mm 0,0 UV-I 102 W/m 8,2 C 12,6 C 19,3 km/h (3 Bft) 98,11 %
02.11.2017 15:50 14,4 C 7,8 C 66 % 1013,7 hPa 0,0 l/m 10,2 km/h (2 Bft) SW 225 2 min 0,000 mm 0,0 UV-I 98 W/m 8,1 C 12,4 C 19,3 km/h (3 Bft) 97,37 %
02.11.2017 15:52 14,4 C 7,8 C 66 % 1013,7 hPa 0,0 l/m 10,8 km/h (2 Bft) W-SW 252 2 min 0,000 mm 0,0 UV-I 110 W/m 8,1 C 12,1 C 14,5 km/h (3 Bft) 98,31 %
02.11.2017 15:54 14,4 C 7,8 C 66 % 1013,6 hPa 0,0 l/m 10,9 km/h (2 Bft) W-SW 244 2 min 0,000 mm 0,0 UV-I 93 W/m 8,1 C 12,0 C 19,3 km/h (3 Bft) 97,37 %
02.11.2017 15:56 14,3 C 7,8 C 66 % 1013,7 hPa 0,0 l/m 13,4 km/h (3 Bft) W 275 2 min 0,000 mm 0,0 UV-I 84 W/m 8,0 C 10,9 C 20,9 km/h (4 Bft) 97,87 %
02.11.2017 15:58 14,3 C 7,8 C 67 % 1013,7 hPa 0,0 l/m 9,1 km/h (2 Bft) W 259 2 min 0,000 mm 0,0 UV-I 76 W/m 8,3 C 12,8 C 14,5 km/h (3 Bft) 98,00 %
02.11.2017 16:00 14,2 C 7,8 C 67 % 1013,7 hPa 0,0 l/m 9,6 km/h (2 Bft) SW 232 2 min 0,127 mm 0,0 UV-I 74 W/m 8,2 C 12,4 C 14,5 km/h (3 Bft) 100,00 %
02.11.2017 16:02 14,2 C 7,8 C 67 % 1013,7 hPa 0,0 l/m 8,7 km/h (2 Bft) W-SW 256 2 min 0,000 mm 0,0 UV-I 70 W/m 8,2 C 12,9 C 16,1 km/h (3 Bft) 97,26 %
02.11.2017 16:04 14,1 C 7,8 C 67 % 1013,7 hPa 0,0 l/m 10,4 km/h (2 Bft) W-SW 238 2 min 0,000 mm 0,0 UV-I 63 W/m 8,1 C 11,9 C 16,1 km/h (3 Bft) 97,37 %
02.11.2017 16:06 14,0 C 7,8 C 68 % 1013,7 hPa 0,0 l/m 8,2 km/h (2 Bft) W-SW 254 2 min 0,000 mm 0,0 UV-I 58 W/m 8,2 C 12,9 C 11,3 km/h (2 Bft) 98,11 %
02.11.2017 16:08 14,0 C 7,8 C 67 % 1013,7 hPa 0,0 l/m 11,5 km/h (2 Bft) W-SW 248 2 min 0,000 mm 0,0 UV-I 50 W/m 8,0 C 11,3 C 17,7 km/h (3 Bft) 100,00 %
02.11.2017 16:10 13,9 C 7,8 C 68 % 1013,7 hPa 0,0 l/m 8,9 km/h (2 Bft) SW 233 2 min 0,000 mm 0,0 UV-I 44 W/m 8,1 C 12,5 C 12,9 km/h (3 Bft) 100,00 %
02.11.2017 16:12 13,9 C 7,8 C 68 % 1013,8 hPa 0,0 l/m 9,7 km/h (2 Bft) W-SW 238 2 min 0,000 mm 0,0 UV-I 40 W/m 8,1 C 12,0 C 12,9 km/h (3 Bft) 97,73 %
02.11.2017 16:14 13,8 C 7,8 C 68 % 1013,7 hPa 0,0 l/m 10,1 km/h (2 Bft) W-SW 244 0 min 0,000 mm 0,0 UV-I 32 W/m 8,0 C 11,7 C 14,5 km/h (3 Bft) 100,00 %
02.11.2017 16:16 13,8 C 7,8 C 69 % 1013,7 hPa 0,0 l/m 8,3 km/h (2 Bft) W 267 0 min 0,000 mm 0,0 UV-I 24 W/m 8,2 C 12,7 C 14,5 km/h (3 Bft) 100,00 %
02.11.2017 16:18 13,7 C 7,8 C 69 % 1013,7 hPa 0,0 l/m 8,2 km/h (2 Bft) SW 223 0 min 0,000 mm 0,0 UV-I 19 W/m 8,1 C 12,6 C 12,9 km/h (3 Bft) 100,00 %
02.11.2017 16:20 13,6 C 7,8 C 69 % 1013,8 hPa 0,0 l/m 8,1 km/h (2 Bft) W-SW 242 0 min 0,000 mm 0,0 UV-I 15 W/m 8,0 C 12,6 C 14,5 km/h (3 Bft) 98,11 %
02.11.2017 16:22 13,6 C 7,8 C 69 % 1013,9 hPa 0,0 l/m 7,9 km/h (2 Bft) SW 234 0 min 0,000 mm 0,0 UV-I 12 W/m 8,0 C 12,7 C 11,3 km/h (2 Bft) 100,00 %
02.11.2017 16:24 13,4 C 7,8 C 70 % 1013,8 hPa 0,0 l/m 6,8 km/h (2 Bft) SW 230 0 min 0,000 mm 0,0 UV-I 11 W/m 8,0 C 13,2 C 9,7 km/h (2 Bft) 100,00 %
02.11.2017 16:26 13,4 C 7,8 C 70 % 1013,8 hPa 0,0 l/m 8,5 km/h (2 Bft) SW 232 0 min 0,000 mm 0,0 UV-I 11 W/m 8,0 C 12,1 C 11,3 km/h (2 Bft) 100,00 %
02.11.2017 16:28 13,4 C 7,8 C 70 % 1013,9 hPa 0,0 l/m 8,6 km/h (2 Bft) SW 234 0 min 0,000 mm 0,0 UV-I 9 W/m 8,0 C 12,1 C 11,3 km/h (2 Bft) 96,23 %
02.11.2017 16:30 13,3 C 7,8 C 70 % 1013,8 hPa 0,0 l/m 6,9 km/h (2 Bft) SW 234 0 min 0,000 mm 0,0 UV-I 9 W/m 7,9 C 13,0 C 11,3 km/h (2 Bft) 100,00 %
02.11.2017 16:32 13,3 C 7,8 C 71 % 1013,9 hPa 0,0 l/m 7,3 km/h (2 Bft) SW 232 0 min 0,000 mm 0,0 UV-I 8 W/m 8,2 C 12,7 C 11,3 km/h (2 Bft) 100,00 %
02.11.2017 16:34 13,2 C 7,8 C 71 % 1013,9 hPa 0,0 l/m 7,1 km/h (2 Bft) SW 236 0 min 0,000 mm 0,0 UV-I 7 W/m 8,1 C 12,8 C 9,7 km/h (2 Bft) 100,00 %
02.11.2017 16:36 13,1 C 7,8 C 72 % 1013,9 hPa 0,0 l/m 6,5 km/h (2 Bft) W-SW 241 0 min 0,000 mm 0,0 UV-I 7 W/m 8,2 C 13,1 C 9,7 km/h (2 Bft) 100,00 %
02.11.2017 16:38 12,9 C 7,8 C 72 % 1013,9 hPa 0,0 l/m 5,2 km/h (1 Bft) W-SW 241 0 min 0,000 mm 0,0 UV-I 7 W/m 8,0 C 12,9 C 9,7 km/h (2 Bft) 100,00 %
02.11.2017 16:40 12,8 C 7,8 C 73 % 1013,9 hPa 0,0 l/m 4,8 km/h (1 Bft) SW 234 0 min 0,000 mm 0,0 UV-I 7 W/m 8,1 C 12,8 C 8,0 km/h (2 Bft) 100,00 %
02.11.2017 16:42 12,8 C 7,8 C 72 % 1014,0 hPa 0,0 l/m 5,1 km/h (1 Bft) SW 227 0 min 0,000 mm 0,0 UV-I 5 W/m 7,9 C 12,8 C 8,0 km/h (2 Bft) 100,00 %
02.11.2017 16:44 12,7 C 7,8 C 73 % 1013,9 hPa 0,0 l/m 4,6 km/h (1 Bft) S-SW 213 0 min 0,000 mm 0,0 UV-I 5 W/m 8,0 C 12,7 C 8,0 km/h (2 Bft) 100,00 %
02.11.2017 16:46 12,7 C 7,8 C 73 % 1014,0 hPa 0,0 l/m 5,3 km/h (1 Bft) SW 214 0 min 0,000 mm 0,0 UV-I 5 W/m 8,0 C 12,7 C 8,0 km/h (2 Bft) 100,00 %
02.11.2017 16:48 12,7 C 7,8 C 72 % 1014,0 hPa 0,0 l/m 6,2 km/h (2 Bft) SW 217 0 min 0,000 mm 0,0 UV-I 5 W/m 7,8 C 12,7 C 9,7 km/h (2 Bft) 100,00 %
02.11.2017 16:50 12,7 C 7,8 C 73 % 1014,1 hPa 0,0 l/m 5,4 km/h (1 Bft) SW 227 0 min 0,000 mm 0,0 UV-I 4 W/m 8,0 C 12,7 C 9,7 km/h (2 Bft) 100,00 %
02.11.2017 16:53 12,7 C 7,8 C 73 % 1014,1 hPa 0,0 l/m 6,7 km/h (2 Bft) W 261 0 min 0,000 mm 0,0 UV-I 0 W/m 8,0 C 12,5 C 9,7 km/h (2 Bft) 100,00 %
02.11.2017 16:54 12,7 C 7,8 C 73 % 1014,1 hPa 0,0 l/m 7,8 km/h (2 Bft) W-SW 249 0 min 0,000 mm 0,0 UV-I 0 W/m 8,0 C 11,8 C 11,3 km/h (2 Bft) 100,00 %
02.11.2017 16:56 12,7 C 7,8 C 73 % 1014,1 hPa 0,0 l/m 8,8 km/h (2 Bft) W-SW 244 0 min 0,000 mm 0,0 UV-I 0 W/m 8,0 C 11,2 C 16,1 km/h (3 Bft) 100,00 %
02.11.2017 16:58 12,8 C 7,8 C 72 % 1014,2 hPa 0,0 l/m 10,1 km/h (2 Bft) W-SW 239 0 min 0,000 mm 0,0 UV-I 0 W/m 7,9 C 10,6 C 16,1 km/h (3 Bft) 100,00 %
02.11.2017 17:00 12,8 C 7,8 C 72 % 1014,2 hPa 0,0 l/m 7,3 km/h (2 Bft) W 261 0 min 0,051 mm 0,0 UV-I 0 W/m 7,9 C 12,2 C 11,3 km/h (2 Bft) 100,00 %
02.11.2017 17:02 12,8 C 7,8 C 71 % 1014,2 hPa 0,0 l/m 10,5 km/h (2 Bft) W 264 0 min 0,000 mm 0,0 UV-I 0 W/m 7,7 C 10,4 C 16,1 km/h (3 Bft) 100,00 %
02.11.2017 17:04 12,9 C 7,8 C 70 % 1014,3 hPa 0,0 l/m 11,1 km/h (2 Bft) SW 236 0 min 0,000 mm 0,0 UV-I 0 W/m 7,6 C 10,3 C 16,1 km/h (3 Bft) 98,11 %
02.11.2017 17:06 12,9 C 7,8 C 70 % 1014,3 hPa 0,0 l/m 10,2 km/h (2 Bft) W-SW 238 0 min 0,000 mm 0,0 UV-I 0 W/m 7,6 C 10,7 C 16,1 km/h (3 Bft) 97,56 %
02.11.2017 17:08 13,0 C 7,8 C 69 % 1014,4 hPa 0,0 l/m 9,3 km/h (2 Bft) W-SW 242 0 min 0,000 mm 0,0 UV-I 0 W/m 7,4 C 11,3 C 16,1 km/h (3 Bft) 97,87 %
02.11.2017 17:10 13,1 C 7,8 C 69 % 1014,4 hPa 0,0 l/m 9,8 km/h (2 Bft) W 280 0 min 0,000 mm 0,0 UV-I 0 W/m 7,5 C 11,1 C 14,5 km/h (3 Bft) 97,87 %
02.11.2017 17:12 13,1 C 7,8 C 69 % 1014,4 hPa 0,0 l/m 6,5 km/h (2 Bft) W 269 0 min 0,000 mm 0,0 UV-I 0 W/m 7,5 C 13,1 C 11,3 km/h (2 Bft) 97,37 %
02.11.2017 17:14 13,0 C 7,8 C 69 % 1014,5 hPa 0,0 l/m 12,7 km/h (3 Bft) W-SW 252 0 min 0,000 mm 0,0 UV-I 0 W/m 7,4 C 9,7 C 17,7 km/h (3 Bft) 100,00 %
02.11.2017 17:16 13,1 C 7,8 C 69 % 1014,5 hPa 0,0 l/m 10,9 km/h (2 Bft) W-SW 256 0 min 0,000 mm 0,0 UV-I 0 W/m 7,5 C 10,6 C 14,5 km/h (3 Bft) 97,73 %
02.11.2017 17:19 13,1 C 7,8 C 68 % 1014,5 hPa 0,0 l/m 11,0 km/h (2 Bft) W-SW 251 0 min 0,000 mm 0,0 UV-I 0 W/m 7,3 C 10,5 C 17,7 km/h (3 Bft) 97,59 %
02.11.2017 17:20 13,1 C 7,8 C 68 % 1014,5 hPa 0,0 l/m 9,3 km/h (2 Bft) W-SW 238 0 min 0,000 mm 0,0 UV-I 0 W/m 7,3 C 11,4 C 12,9 km/h (3 Bft) 90,91 %
02.11.2017 17:22 13,1 C 7,8 C 68 % 1014,5 hPa 0,0 l/m 8,6 km/h (2 Bft) W-SW 243 0 min 0,000 mm 0,0 UV-I 0 W/m 7,3 C 11,8 C 16,1 km/h (3 Bft) 93,62 %
02.11.2017 17:24 13,1 C 7,8 C 68 % 1014,5 hPa 0,0 l/m 9,9 km/h (2 Bft) SW 228 0 min 0,000 mm 0,0 UV-I 0 W/m 7,3 C 11,1 C 16,1 km/h (3 Bft) 95,24 %
02.11.2017 17:26 13,1 C 7,8 C 68 % 1014,5 hPa 0,0 l/m 11,1 km/h (2 Bft) W-SW 247 0 min 0,000 mm 0,0 UV-I 0 W/m 7,3 C 10,5 C 19,3 km/h (3 Bft) 95,08 %
02.11.2017 17:28 13,1 C 7,8 C 68 % 1014,5 hPa 0,0 l/m 11,6 km/h (2 Bft) W-SW 257 0 min 0,000 mm 0,0 UV-I 0 W/m 7,3 C 10,3 C 16,1 km/h (3 Bft) 95,24 %
02.11.2017 17:30 13,1 C 7,8 C 68 % 1014,6 hPa 0,0 l/m 9,9 km/h (2 Bft) W-SW 249 0 min 0,000 mm 0,0 UV-I 0 W/m 7,3 C 11,1 C 14,5 km/h (3 Bft) 92,68 %
02.11.2017 17:32 13,1 C 7,8 C 68 % 1014,6 hPa 0,0 l/m 12,2 km/h (2 Bft) W 261 0 min 0,000 mm 0,0 UV-I 0 W/m 7,3 C 10,0 C 20,9 km/h (4 Bft) 94,34 %
02.11.2017 17:34 13,1 C 7,8 C 68 % 1014,6 hPa 0,0 l/m 10,6 km/h (2 Bft) W-SW 239 0 min 0,000 mm 0,0 UV-I 0 W/m 7,3 C 10,7 C 14,5 km/h (3 Bft) 97,73 %
02.11.2017 17:36 13,1 C 7,8 C 68 % 1014,6 hPa 0,0 l/m 10,1 km/h (2 Bft) W-SW 237 0 min 0,000 mm 0,0 UV-I 0 W/m 7,3 C 11,0 C 14,5 km/h (3 Bft) 96,00 %
02.11.2017 17:38 13,0 C 7,8 C 68 % 1014,5 hPa 0,0 l/m 9,6 km/h (2 Bft) W-SW 244 0 min 0,000 mm 0,0 UV-I 0 W/m 7,2 C 11,1 C 14,5 km/h (3 Bft) 95,12 %
02.11.2017 17:40 12,9 C 7,8 C 69 % 1014,5 hPa 0,0 l/m 12,0 km/h (2 Bft) W-SW 238 0 min 0,000 mm 0,0 UV-I 0 W/m 7,4 C 9,9 C 17,7 km/h (3 Bft) 92,45 %
02.11.2017 17:42 12,9 C 7,8 C 69 % 1014,5 hPa 0,0 l/m 9,9 km/h (2 Bft) SW 226 0 min 0,000 mm 0,0 UV-I 0 W/m 7,4 C 10,8 C 14,5 km/h (3 Bft) 96,00 %
02.11.2017 17:44 12,8 C 7,8 C 69 % 1014,6 hPa 0,0 l/m 8,5 km/h (2 Bft) W 259 0 min 0,000 mm 0,0 UV-I 0 W/m 7,3 C 11,5 C 12,9 km/h (3 Bft) 94,74 %
02.11.2017 17:46 12,8 C 7,8 C 69 % 1014,6 hPa 0,0 l/m 9,9 km/h (2 Bft) SW 236 0 min 0,000 mm 0,0 UV-I 0 W/m 7,3 C 10,7 C 14,5 km/h (3 Bft) 96,43 %
02.11.2017 17:48 12,8 C 7,8 C 70 % 1014,6 hPa 0,0 l/m 11,5 km/h (2 Bft) SW 219 0 min 0,000 mm 0,0 UV-I 0 W/m 7,5 C 10,0 C 19,3 km/h (3 Bft) 95,74 %
02.11.2017 17:50 12,7 C 7,8 C 70 % 1014,5 hPa 0,0 l/m 11,7 km/h (2 Bft) W-SW 246 0 min 0,000 mm 0,0 UV-I 0 W/m 7,4 C 9,8 C 17,7 km/h (3 Bft) 94,74 %
02.11.2017 17:52 12,7 C 7,8 C 70 % 1014,6 hPa 0,0 l/m 9,4 km/h (2 Bft) SW 226 0 min 0,000 mm 0,0 UV-I 0 W/m 7,4 C 10,9 C 14,5 km/h (3 Bft) 93,18 %
02.11.2017 17:54 12,6 C 7,8 C 70 % 1014,6 hPa 0,0 l/m 9,2 km/h (2 Bft) SW 225 0 min 0,000 mm 0,0 UV-I 0 W/m 7,3 C 10,9 C 17,7 km/h (3 Bft) 96,23 %
02.11.2017 17:56 12,5 C 7,8 C 71 % 1014,6 hPa 0,0 l/m 11,0 km/h (2 Bft) SW 225 0 min 0,000 mm 0,0 UV-I 0 W/m 7,4 C 9,9 C 17,7 km/h (3 Bft) 96,00 %
02.11.2017 17:58 12,4 C 7,8 C 71 % 1014,6 hPa 0,0 l/m 11,5 km/h (2 Bft) SW 225 0 min 0,000 mm 0,0 UV-I 0 W/m 7,3 C 9,5 C 17,7 km/h (3 Bft) 92,68 %
02.11.2017 18:00 12,4 C 7,8 C 71 % 1014,6 hPa 0,0 l/m 13,6 km/h (3 Bft) SW 225 0 min 0,000 mm 0,0 UV-I 0 W/m 7,3 C 8,6 C 20,9 km/h (4 Bft) 98,11 %
02.11.2017 18:02 12,4 C 7,8 C 71 % 1014,6 hPa 0,0 l/m 9,9 km/h (2 Bft) SW 221 0 min 0,050 mm 0,0 UV-I 0 W/m 7,3 C 10,3 C 16,1 km/h (3 Bft) 93,02 %
02.11.2017 18:04 12,4 C 7,8 C 71 % 1014,6 hPa 0,0 l/m 11,2 km/h (2 Bft) S-SW 211 0 min 0,000 mm 0,0 UV-I 0 W/m 7,3 C 9,6 C 17,7 km/h (3 Bft) 96,00 %
02.11.2017 18:06 12,3 C 7,8 C 71 % 1014,7 hPa 0,0 l/m 11,5 km/h (2 Bft) SW 219 0 min 0,000 mm 0,0 UV-I 0 W/m 7,2 C 9,4 C 20,9 km/h (4 Bft) 97,87 %
02.11.2017 18:08 12,3 C 7,8 C 71 % 1014,6 hPa 0,0 l/m 11,4 km/h (2 Bft) SW 216 0 min 0,000 mm 0,0 UV-I 0 W/m 7,2 C 9,4 C 17,7 km/h (3 Bft) 97,22 %
02.11.2017 18:10 12,3 C 7,8 C 71 % 1014,6 hPa 0,0 l/m 12,2 km/h (2 Bft) W-SW 240 0 min 0,000 mm 0,0 UV-I 0 W/m 7,2 C 9,1 C 24,1 km/h (4 Bft) 96,23 %
02.11.2017 18:12 12,3 C 7,8 C 72 % 1014,7 hPa 0,0 l/m 12,2 km/h (2 Bft) SW 227 0 min 0,000 mm 0,0 UV-I 0 W/m 7,4 C 9,1 C 17,7 km/h (3 Bft) 98,11 %
02.11.2017 18:14 12,3 C 7,8 C 71 % 1014,7 hPa 0,0 l/m 12,1 km/h (2 Bft) SW 228 0 min 0,000 mm 0,0 UV-I 0 W/m 7,2 C 9,1 C 22,5 km/h (4 Bft) 97,37 %
02.11.2017 18:16 12,3 C 7,8 C 71 % 1014,7 hPa 0,0 l/m 14,0 km/h (3 Bft) SW 232 0 min 0,000 mm 0,0 UV-I 0 W/m 7,2 C 8,3 C 24,1 km/h (4 Bft) 96,00 %
02.11.2017 18:18 12,3 C 7,8 C 71 % 1014,6 hPa 0,0 l/m 14,9 km/h (3 Bft) W-SW 239 0 min 0,000 mm 0,0 UV-I 0 W/m 7,2 C 8,0 C 22,5 km/h (4 Bft) 98,00 %
02.11.2017 18:20 12,3 C 7,8 C 71 % 1014,6 hPa 0,0 l/m 12,6 km/h (3 Bft) W-SW 244 0 min 0,000 mm 0,0 UV-I 0 W/m 7,2 C 8,9 C 20,9 km/h (4 Bft) 97,87 %
02.11.2017 18:22 12,3 C 7,8 C 71 % 1014,5 hPa 0,0 l/m 15,2 km/h (3 Bft) SW 223 0 min 0,000 mm 0,0 UV-I 0 W/m 7,2 C 7,8 C 22,5 km/h (4 Bft) 97,44 %
02.11.2017 18:24 12,3 C 7,8 C 71 % 1014,5 hPa 0,0 l/m 14,4 km/h (3 Bft) SW 235 0 min 0,000 mm 0,0 UV-I 0 W/m 7,2 C 8,2 C 20,9 km/h (4 Bft) 96,23 %
02.11.2017 18:26 12,3 C 7,8 C 71 % 1014,6 hPa 0,0 l/m 15,0 km/h (3 Bft) SW 229 0 min 0,000 mm 0,0 UV-I 0 W/m 7,2 C 7,9 C 20,9 km/h (4 Bft) 98,00 %
02.11.2017 18:28 12,3 C 7,8 C 71 % 1014,6 hPa 0,0 l/m 16,5 km/h (3 Bft) S-SW 208 0 min 0,000 mm 0,0 UV-I 0 W/m 7,2 C 7,4 C 24,1 km/h (4 Bft) 100,00 %
02.11.2017 18:30 12,3 C 7,8 C 71 % 1014,6 hPa 0,0 l/m 16,6 km/h (3 Bft) W 259 0 min 0,000 mm 0,0 UV-I 0 W/m 7,2 C 7,3 C 27,4 km/h (4 Bft) 100,00 %
02.11.2017 18:32 12,3 C 7,8 C 71 % 1014,6 hPa 0,0 l/m 16,5 km/h (3 Bft) SW 225 0 min 0,000 mm 0,0 UV-I 0 W/m 7,2 C 7,4 C 25,7 km/h (4 Bft) 100,00 %
02.11.2017 18:34 12,3 C 7,8 C 71 % 1014,6 hPa 0,0 l/m 18,0 km/h (3 Bft) W-SW 246 0 min 0,000 mm 0,0 UV-I 0 W/m 7,2 C 6,9 C 25,7 km/h (4 Bft) 100,00 %
02.11.2017 18:36 12,3 C 7,8 C 71 % 1014,6 hPa 0,0 l/m 15,4 km/h (3 Bft) W 263 0 min 0,000 mm 0,0 UV-I 0 W/m 7,2 C 7,8 C 20,9 km/h (4 Bft) 100,00 %
02.11.2017 18:38 12,4 C 7,8 C 71 % 1014,5 hPa 0,0 l/m 15,6 km/h (3 Bft) SW 230 0 min 0,000 mm 0,0 UV-I 0 W/m 7,3 C 7,8 C 24,1 km/h (4 Bft) 100,00 %
02.11.2017 18:40 12,4 C 7,8 C 71 % 1014,6 hPa 0,0 l/m 17,2 km/h (3 Bft) SW 227 0 min 0,000 mm 0,0 UV-I 0 W/m 7,3 C 7,3 C 20,9 km/h (4 Bft) 100,00 %
02.11.2017 18:42 12,5 C 7,8 C 70 % 1014,5 hPa 0,0 l/m 15,2 km/h (3 Bft) W-SW 257 0 min 0,000 mm 0,0 UV-I 0 W/m 7,2 C 8,1 C 22,5 km/h (4 Bft) 100,00 %
02.11.2017 18:44 12,5 C 7,8 C 71 % 1014,6 hPa 0,0 l/m 16,4 km/h (3 Bft) SW 235 0 min 0,000 mm 0,0 UV-I 0 W/m 7,4 C 7,7 C 22,5 km/h (4 Bft) 98,11 %
02.11.2017 18:46 12,5 C 7,8 C 70 % 1014,6 hPa 0,0 l/m 17,2 km/h (3 Bft) SW 236 0 min 0,000 mm 0,0 UV-I 0 W/m 7,2 C 7,4 C 22,5 km/h (4 Bft) 100,00 %
02.11.2017 18:48 12,6 C 7,8 C 70 % 1014,6 hPa 0,0 l/m 17,3 km/h (3 Bft) SW 234 0 min 0,000 mm 0,0 UV-I 0 W/m 7,3 C 7,5 C 24,1 km/h (4 Bft) 100,00 %
02.11.2017 18:50 12,6 C 7,8 C 70 % 1014,6 hPa 0,0 l/m 17,7 km/h (3 Bft) W-SW 249 0 min 0,000 mm 0,0 UV-I 0 W/m 7,3 C 7,3 C 29,0 km/h (5 Bft) 100,00 %
02.11.2017 18:52 12,6 C 7,8 C 70 % 1014,6 hPa 0,0 l/m 15,6 km/h (3 Bft) W-SW 237 0 min 0,000 mm 0,0 UV-I 0 W/m 7,3 C 8,1 C 22,5 km/h (4 Bft) 100,00 %
02.11.2017 18:54 12,6 C 7,8 C 70 % 1014,6 hPa 0,0 l/m 16,4 km/h (3 Bft) SW 233 0 min 0,000 mm 0,0 UV-I 0 W/m 7,3 C 7,8 C 20,9 km/h (4 Bft) 100,00 %
02.11.2017 18:56 12,6 C 7,8 C 70 % 1014,6 hPa 0,0 l/m 17,5 km/h (3 Bft) SW 236 0 min 0,000 mm 0,0 UV-I 0 W/m 7,3 C 7,4 C 24,1 km/h (4 Bft) 100,00 %
02.11.2017 18:58 12,7 C 7,8 C 70 % 1014,6 hPa 0,0 l/m 17,1 km/h (3 Bft) W-SW 246 0 min 0,000 mm 0,0 UV-I 0 W/m 7,4 C 7,7 C 24,1 km/h (4 Bft) 100,00 %
02.11.2017 19:00 12,7 C 7,8 C 69 % 1014,6 hPa 0,0 l/m 16,0 km/h (3 Bft) W-SW 242 0 min 0,051 mm 0,0 UV-I 0 W/m 7,2 C 8,0 C 29,0 km/h (5 Bft) 100,00 %
02.11.2017 19:02 12,7 C 7,8 C 70 % 1014,6 hPa 0,0 l/m 13,1 km/h (3 Bft) W-SW 255 0 min 0,000 mm 0,0 UV-I 0 W/m 7,4 C 9,2 C 17,7 km/h (3 Bft) 100,00 %
02.11.2017 19:04 12,6 C 7,8 C 70 % 1014,5 hPa 0,0 l/m 14,1 km/h (3 Bft) SW 228 0 min 0,000 mm 0,0 UV-I 0 W/m 7,3 C 8,6 C 20,9 km/h (4 Bft) 100,00 %
02.11.2017 19:06 12,6 C 7,8 C 70 % 1014,5 hPa 0,0 l/m 13,2 km/h (3 Bft) SW 234 0 min 0,000 mm 0,0 UV-I 0 W/m 7,3 C 9,0 C 19,3 km/h (3 Bft) 100,00 %
02.11.2017 19:08 12,6 C 7,8 C 70 % 1014,5 hPa 0,0 l/m 13,3 km/h (3 Bft) SW 229 0 min 0,000 mm 0,0 UV-I 0 W/m 7,3 C 9,0 C 22,5 km/h (4 Bft) 100,00 %
02.11.2017 19:10 12,6 C 7,8 C 70 % 1014,5 hPa 0,0 l/m 13,0 km/h (3 Bft) SW 228 0 min 0,000 mm 0,0 UV-I 0 W/m 7,3 C 9,1 C 20,9 km/h (4 Bft) 100,00 %
02.11.2017 19:12 12,5 C 7,8 C 71 % 1014,4 hPa 0,0 l/m 15,2 km/h (3 Bft) SW 235 0 min 0,000 mm 0,0 UV-I 0 W/m 7,4 C 8,1 C 25,7 km/h (4 Bft) 100,00 %
02.11.2017 19:14 12,4 C 7,8 C 71 % 1014,4 hPa 0,0 l/m 13,4 km/h (3 Bft) SW 221 0 min 0,000 mm 0,0 UV-I 0 W/m 7,3 C 8,7 C 20,9 km/h (4 Bft) 100,00 %
02.11.2017 19:16 12,4 C 7,8 C 71 % 1014,5 hPa 0,0 l/m 14,0 km/h (3 Bft) S-SW 193 0 min 0,000 mm 0,0 UV-I 0 W/m 7,3 C 8,4 C 20,9 km/h (4 Bft) 98,21 %
02.11.2017 19:18 12,3 C 7,8 C 72 % 1014,4 hPa 0,0 l/m 12,6 km/h (3 Bft) W-SW 244 0 min 0,000 mm 0,0 UV-I 0 W/m 7,4 C 8,9 C 19,3 km/h (3 Bft) 100,00 %
02.11.2017 19:20 12,3 C 7,8 C 72 % 1014,5 hPa 0,0 l/m 15,5 km/h (3 Bft) S-SW 213 0 min 0,000 mm 0,0 UV-I 0 W/m 7,4 C 7,7 C 24,1 km/h (4 Bft) 100,00 %
02.11.2017 19:22 12,3 C 7,8 C 72 % 1014,4 hPa 0,0 l/m 13,2 km/h (3 Bft) SW 216 0 min 0,000 mm 0,0 UV-I 0 W/m 7,4 C 8,6 C 20,9 km/h (4 Bft) 100,00 %
02.11.2017 19:24 12,3 C 7,8 C 72 % 1014,4 hPa 0,0 l/m 14,3 km/h (3 Bft) S-SW 212 0 min 0,000 mm 0,0 UV-I 0 W/m 7,4 C 8,2 C 24,1 km/h (4 Bft) 97,73 %
02.11.2017 19:26 12,3 C 7,8 C 72 % 1014,4 hPa 0,0 l/m 13,6 km/h (3 Bft) W-SW 249 0 min 0,000 mm 0,0 UV-I 0 W/m 7,4 C 8,5 C 25,7 km/h (4 Bft) 97,73 %
02.11.2017 19:28 12,3 C 7,8 C 72 % 1014,5 hPa 0,0 l/m 15,5 km/h (3 Bft) W-SW 244 0 min 0,000 mm 0,0 UV-I 0 W/m 7,4 C 7,7 C 20,9 km/h (4 Bft) 98,31 %
02.11.2017 19:30 12,3 C 7,8 C 72 % 1014,5 hPa 0,0 l/m 15,7 km/h (3 Bft) W-SW 238 0 min 0,000 mm 0,0 UV-I 0 W/m 7,4 C 7,7 C 22,5 km/h (4 Bft) 97,37 %
02.11.2017 19:32 12,3 C 7,8 C 72 % 1014,5 hPa 0,0 l/m 15,3 km/h (3 Bft) W-SW 240 0 min 0,000 mm 0,0 UV-I 0 W/m 7,4 C 7,8 C 20,9 km/h (4 Bft) 98,00 %
02.11.2017 19:34 12,3 C 7,8 C 72 % 1014,5 hPa 0,0 l/m 11,8 km/h (2 Bft) W-SW 243 0 min 0,000 mm 0,0 UV-I 0 W/m 7,4 C 9,3 C 17,7 km/h (3 Bft) 98,00 %
02.11.2017 19:36 12,3 C 7,8 C 72 % 1014,5 hPa 0,0 l/m 13,1 km/h (3 Bft) W-SW 254 0 min 0,000 mm 0,0 UV-I 0 W/m 7,4 C 8,7 C 20,9 km/h (4 Bft) 97,87 %
02.11.2017 19:38 12,2 C 7,8 C 72 % 1014,5 hPa 0,0 l/m 12,2 km/h (2 Bft) SW 231 0 min 0,000 mm 0,0 UV-I 0 W/m 7,3 C 9,0 C 20,9 km/h (4 Bft) 97,56 %
02.11.2017 19:40 12,2 C 7,8 C 72 % 1014,6 hPa 0,0 l/m 15,4 km/h (3 Bft) SW 231 0 min 0,000 mm 0,0 UV-I 0 W/m 7,3 C 7,6 C 20,9 km/h (4 Bft) 94,34 %
02.11.2017 19:42 12,3 C 7,8 C 72 % 1014,6 hPa 0,0 l/m 15,1 km/h (3 Bft) SW 217 0 min 0,000 mm 0,0 UV-I 0 W/m 7,4 C 7,9 C 22,5 km/h (4 Bft) 95,12 %
02.11.2017 19:44 12,3 C 7,8 C 72 % 1014,6 hPa 0,0 l/m 14,9 km/h (3 Bft) SW 236 0 min 0,000 mm 0,0 UV-I 0 W/m 7,4 C 8,0 C 24,1 km/h (4 Bft) 98,11 %
02.11.2017 19:46 12,3 C 7,8 C 72 % 1014,6 hPa 0,0 l/m 13,8 km/h (3 Bft) S-SW 213 0 min 0,000 mm 0,0 UV-I 0 W/m 7,4 C 8,4 C 17,7 km/h (3 Bft) 95,45 %
02.11.2017 19:48 12,3 C 7,8 C 72 % 1014,5 hPa 0,0 l/m 15,3 km/h (3 Bft) SW 220 0 min 0,000 mm 0,0 UV-I 0 W/m 7,4 C 7,8 C 22,5 km/h (4 Bft) 97,87 %
02.11.2017 19:50 12,3 C 7,8 C 72 % 1014,5 hPa 0,0 l/m 11,8 km/h (2 Bft) W-SW 240 0 min 0,000 mm 0,0 UV-I 0 W/m 7,4 C 9,3 C 20,9 km/h (4 Bft) 97,56 %
02.11.2017 19:52 12,3 C 7,8 C 72 % 1014,5 hPa 0,0 l/m 12,0 km/h (2 Bft) SW 224 0 min 0,000 mm 0,0 UV-I 0 W/m 7,4 C 9,2 C 17,7 km/h (3 Bft) 98,11 %
02.11.2017 19:54 12,3 C 7,8 C 72 % 1014,5 hPa 0,0 l/m 11,1 km/h (2 Bft) SW 215 0 min 0,000 mm 0,0 UV-I 0 W/m 7,4 C 9,6 C 16,1 km/h (3 Bft) 98,00 %
02.11.2017 19:56 12,3 C 7,8 C 72 % 1014,6 hPa 0,0 l/m 10,6 km/h (2 Bft) W-SW 240 0 min 0,000 mm 0,0 UV-I 0 W/m 7,4 C 9,8 C 16,1 km/h (3 Bft) 97,37 %
02.11.2017 19:58 12,3 C 7,8 C 72 % 1014,6 hPa 0,0 l/m 13,9 km/h (3 Bft) SW 229 0 min 0,000 mm 0,0 UV-I 0 W/m 7,4 C 8,4 C 20,9 km/h (4 Bft) 96,23 %
02.11.2017 20:00 12,3 C 7,8 C 72 % 1014,6 hPa 0,0 l/m 16,1 km/h (3 Bft) W-SW 246 0 min 0,000 mm 0,0 UV-I 0 W/m 7,4 C 7,5 C 22,5 km/h (4 Bft) 100,00 %
02.11.2017 20:02 12,3 C 7,8 C 73 % 1014,6 hPa 0,0 l/m 12,1 km/h (2 Bft) S-SW 211 0 min 0,051 mm 0,0 UV-I 0 W/m 7,6 C 9,1 C 17,7 km/h (3 Bft) 97,87 %
02.11.2017 20:04 12,3 C 7,8 C 72 % 1014,6 hPa 0,0 l/m 10,7 km/h (2 Bft) SW 223 0 min 0,000 mm 0,0 UV-I 0 W/m 7,4 C 9,8 C 16,1 km/h (3 Bft) 100,00 %
02.11.2017 20:06 12,3 C 7,8 C 72 % 1014,6 hPa 0,0 l/m 13,4 km/h (3 Bft) SW 229 0 min 0,000 mm 0,0 UV-I 0 W/m 7,4 C 8,6 C 20,9 km/h (4 Bft) 100,00 %
02.11.2017 20:08 12,2 C 7,8 C 73 % 1014,6 hPa 0,0 l/m 12,2 km/h (2 Bft) SW 236 0 min 0,000 mm 0,0 UV-I 0 W/m 7,5 C 9,0 C 16,1 km/h (3 Bft) 100,00 %
02.11.2017 20:10 12,2 C 7,8 C 73 % 1014,6 hPa 0,0 l/m 10,3 km/h (2 Bft) W 265 0 min 0,000 mm 0,0 UV-I 0 W/m 7,5 C 9,9 C 16,1 km/h (3 Bft) 100,00 %
02.11.2017 20:12 12,2 C 7,8 C 73 % 1014,6 hPa 0,0 l/m 13,9 km/h (3 Bft) W-SW 240 0 min 0,000 mm 0,0 UV-I 0 W/m 7,5 C 8,2 C 20,9 km/h (4 Bft) 100,00 %
02.11.2017 20:14 12,2 C 7,8 C 73 % 1014,6 hPa 0,0 l/m 12,1 km/h (2 Bft) W-SW 258 0 min 0,000 mm 0,0 UV-I 0 W/m 7,5 C 9,0 C 17,7 km/h (3 Bft) 100,00 %
02.11.2017 20:16 12,3 C 7,8 C 73 % 1014,6 hPa 0,0 l/m 11,8 km/h (2 Bft) W 261 0 min 0,000 mm 0,0 UV-I 0 W/m 7,6 C 9,3 C 19,3 km/h (3 Bft) 97,87 %
02.11.2017 20:18 12,3 C 7,8 C 72 % 1014,6 hPa 0,0 l/m 15,0 km/h (3 Bft) SW 217 0 min 0,000 mm 0,0 UV-I 0 W/m 7,4 C 7,9 C 20,9 km/h (4 Bft) 100,00 %
02.11.2017 20:20 12,3 C 7,8 C 73 % 1014,6 hPa 0,0 l/m 13,7 km/h (3 Bft) W-SW 238 0 min 0,000 mm 0,0 UV-I 0 W/m 7,6 C 8,4 C 19,3 km/h (3 Bft) 100,00 %
02.11.2017 20:22 12,3 C 7,8 C 73 % 1014,6 hPa 0,0 l/m 12,9 km/h (3 Bft) W-SW 240 0 min 0,000 mm 0,0 UV-I 0 W/m 7,6 C 8,8 C 20,9 km/h (4 Bft) 100,00 %
02.11.2017 20:24 12,3 C 7,8 C 73 % 1014,6 hPa 0,0 l/m 12,1 km/h (2 Bft) W-SW 247 0 min 0,000 mm 0,0 UV-I 0 W/m 7,6 C 9,1 C 17,7 km/h (3 Bft) 100,00 %
02.11.2017 20:26 12,2 C 7,8 C 73 % 1014,6 hPa 0,0 l/m 12,9 km/h (3 Bft) W-SW 244 0 min 0,000 mm 0,0 UV-I 0 W/m 7,5 C 8,6 C 16,1 km/h (3 Bft) 98,11 %
02.11.2017 20:28 12,2 C 7,8 C 73 % 1014,7 hPa 0,0 l/m 13,6 km/h (3 Bft) SW 215 0 min 0,000 mm 0,0 UV-I 0 W/m 7,5 C 8,4 C 17,7 km/h (3 Bft) 98,11 %
02.11.2017 20:30 12,2 C 7,8 C 73 % 1014,7 hPa 0,0 l/m 14,4 km/h (3 Bft) W-SW 250 0 min 0,000 mm 0,0 UV-I 0 W/m 7,5 C 8,0 C 20,9 km/h (4 Bft) 100,00 %
02.11.2017 20:32 12,2 C 7,8 C 73 % 1014,7 hPa 0,0 l/m 12,2 km/h (2 Bft) SW 227 0 min 0,000 mm 0,0 UV-I 0 W/m 7,5 C 9,0 C 19,3 km/h (3 Bft) 100,00 %
02.11.2017 20:34 12,2 C 7,8 C 73 % 1014,7 hPa 0,0 l/m 11,2 km/h (2 Bft) SW 229 0 min 0,000 mm 0,0 UV-I 0 W/m 7,5 C 9,4 C 19,3 km/h (3 Bft) 100,00 %
02.11.2017 20:36 12,2 C 7,8 C 73 % 1014,7 hPa 0,0 l/m 11,6 km/h (2 Bft) W-SW 238 0 min 0,000 mm 0,0 UV-I 0 W/m 7,5 C 9,2 C 17,7 km/h (3 Bft) 100,00 %
02.11.2017 20:38 12,2 C 7,8 C 73 % 1014,6 hPa 0,0 l/m 12,2 km/h (2 Bft) SW 230 0 min 0,000 mm 0,0 UV-I 0 W/m 7,5 C 9,0 C 19,3 km/h (3 Bft) 98,11 %
02.11.2017 20:40 12,2 C 7,8 C 73 % 1014,7 hPa 0,0 l/m 11,8 km/h (2 Bft) SW 215 0 min 0,000 mm 0,0 UV-I 0 W/m 7,5 C 9,1 C 16,1 km/h (3 Bft) 100,00 %
02.11.2017 20:42 12,2 C 7,8 C 73 % 1014,7 hPa 0,0 l/m 13,3 km/h (3 Bft) W-SW 252 0 min 0,000 mm 0,0 UV-I 0 W/m 7,5 C 8,5 C 17,7 km/h (3 Bft) 100,00 %
02.11.2017 20:44 12,3 C 7,8 C 73 % 1014,7 hPa 0,0 l/m 10,9 km/h (2 Bft) SW 228 0 min 0,000 mm 0,0 UV-I 0 W/m 7,6 C 9,7 C 17,7 km/h (3 Bft) 100,00 %
02.11.2017 20:46 12,2 C 7,8 C 73 % 1014,7 hPa 0,0 l/m 9,9 km/h (2 Bft) W-SW 239 0 min 0,000 mm 0,0 UV-I 0 W/m 7,5 C 10,1 C 17,7 km/h (3 Bft) 100,00 %
02.11.2017 20:48 12,2 C 7,8 C 73 % 1014,8 hPa 0,0 l/m 14,0 km/h (3 Bft) W-SW 246 0 min 0,000 mm 0,0 UV-I 0 W/m 7,5 C 8,2 C 19,3 km/h (3 Bft) 100,00 %
02.11.2017 20:50 12,2 C 7,8 C 73 % 1014,8 hPa 0,0 l/m 11,1 km/h (2 Bft) SW 236 0 min 0,000 mm 0,0 UV-I 0 W/m 7,5 C 9,5 C 16,1 km/h (3 Bft) 100,00 %
02.11.2017 20:52 12,2 C 7,8 C 74 % 1014,8 hPa 0,0 l/m 11,3 km/h (2 Bft) SW 217 0 min 0,000 mm 0,0 UV-I 0 W/m 7,7 C 9,4 C 16,1 km/h (3 Bft) 100,00 %
02.11.2017 20:54 12,2 C 7,8 C 73 % 1014,8 hPa 0,0 l/m 13,7 km/h (3 Bft) S-SW 202 0 min 0,000 mm 0,0 UV-I 0 W/m 7,5 C 8,3 C 19,3 km/h (3 Bft) 98,21 %
02.11.2017 20:56 12,2 C 7,8 C 73 % 1014,7 hPa 0,0 l/m 12,4 km/h (3 Bft) SW 222 0 min 0,000 mm 0,0 UV-I 0 W/m 7,5 C 8,9 C 19,3 km/h (3 Bft) 100,00 %
02.11.2017 20:58 12,2 C 7,8 C 73 % 1014,8 hPa 0,0 l/m 10,3 km/h (2 Bft) W-SW 242 0 min 0,000 mm 0,0 UV-I 0 W/m 7,5 C 9,9 C 19,3 km/h (3 Bft) 96,43 %
02.11.2017 21:00 12,2 C 7,8 C 73 % 1014,8 hPa 0,0 l/m 14,3 km/h (3 Bft) SW 225 0 min 0,051 mm 0,0 UV-I 0 W/m 7,5 C 8,1 C 19,3 km/h (3 Bft) 100,00 %
02.11.2017 21:02 12,2 C 7,8 C 73 % 1014,8 hPa 0,0 l/m 9,4 km/h (2 Bft) SW 227 0 min 0,000 mm 0,0 UV-I 0 W/m 7,5 C 10,3 C 14,5 km/h (3 Bft) 100,00 %
02.11.2017 21:04 12,2 C 7,8 C 74 % 1014,8 hPa 0,0 l/m 9,5 km/h (2 Bft) SW 233 0 min 0,000 mm 0,0 UV-I 0 W/m 7,7 C 10,3 C 17,7 km/h (3 Bft) 100,00 %
02.11.2017 21:06 12,2 C 7,8 C 74 % 1014,8 hPa 0,0 l/m 10,9 km/h (2 Bft) W-SW 240 0 min 0,000 mm 0,0 UV-I 0 W/m 7,7 C 9,6 C 16,1 km/h (3 Bft) 97,56 %
02.11.2017 21:08 12,2 C 7,8 C 74 % 1014,8 hPa 0,0 l/m 9,0 km/h (2 Bft) W-SW 250 0 min 0,000 mm 0,0 UV-I 0 W/m 7,7 C 10,6 C 12,9 km/h (3 Bft) 96,23 %
02.11.2017 21:10 12,2 C 7,8 C 74 % 1014,8 hPa 0,0 l/m 8,9 km/h (2 Bft) W 263 0 min 0,000 mm 0,0 UV-I 0 W/m 7,7 C 10,6 C 16,1 km/h (3 Bft) 97,87 %
02.11.2017 21:12 12,1 C 7,8 C 74 % 1014,8 hPa 0,0 l/m 8,4 km/h (2 Bft) SW 229 0 min 0,000 mm 0,0 UV-I 0 W/m 7,6 C 10,8 C 12,9 km/h (3 Bft) 100,00 %
02.11.2017 21:14 12,1 C 7,8 C 74 % 1014,8 hPa 0,0 l/m 10,9 km/h (2 Bft) SW 234 0 min 0,000 mm 0,0 UV-I 0 W/m 7,6 C 9,5 C 17,7 km/h (3 Bft) 100,00 %
02.11.2017 21:16 12,1 C 7,8 C 74 % 1014,9 hPa 0,0 l/m 10,2 km/h (2 Bft) W-SW 246 0 min 0,000 mm 0,0 UV-I 0 W/m 7,6 C 9,8 C 14,5 km/h (3 Bft) 97,87 %
02.11.2017 21:18 12,1 C 7,8 C 74 % 1014,9 hPa 0,0 l/m 9,3 km/h (2 Bft) W-SW 238 0 min 0,000 mm 0,0 UV-I 0 W/m 7,6 C 10,3 C 19,3 km/h (3 Bft) 100,00 %
02.11.2017 21:20 12,1 C 7,8 C 74 % 1014,9 hPa 0,0 l/m 10,3 km/h (2 Bft) W-SW 248 0 min 0,000 mm 0,0 UV-I 0 W/m 7,6 C 9,8 C 16,1 km/h (3 Bft) 100,00 %
02.11.2017 21:22 12,1 C 7,8 C 74 % 1014,8 hPa 0,0 l/m 6,9 km/h (2 Bft) W-SW 238 0 min 0,000 mm 0,0 UV-I 0 W/m 7,6 C 11,8 C 11,3 km/h (2 Bft) 100,00 %
02.11.2017 21:24 12,1 C 7,8 C 75 % 1014,9 hPa 0,0 l/m 8,0 km/h (2 Bft) W-SW 249 0 min 0,000 mm 0,0 UV-I 0 W/m 7,8 C 11,1 C 14,5 km/h (3 Bft) 98,11 %
02.11.2017 21:26 12,1 C 7,8 C 75 % 1014,8 hPa 0,0 l/m 8,8 km/h (2 Bft) SW 232 0 min 0,000 mm 0,0 UV-I 0 W/m 7,8 C 10,6 C 12,9 km/h (3 Bft) 100,00 %
02.11.2017 21:28 12,0 C 7,8 C 74 % 1014,8 hPa 0,0 l/m 9,6 km/h (2 Bft) W-SW 246 0 min 0,000 mm 0,0 UV-I 0 W/m 7,5 C 10,0 C 14,5 km/h (3 Bft) 98,00 %
02.11.2017 21:30 12,1 C 7,8 C 75 % 1014,8 hPa 0,0 l/m 9,2 km/h (2 Bft) W-SW 258 0 min 0,000 mm 0,0 UV-I 0 W/m 7,8 C 10,3 C 12,9 km/h (3 Bft) 96,23 %
02.11.2017 21:32 12,0 C 7,8 C 75 % 1014,8 hPa 0,0 l/m 8,4 km/h (2 Bft) W-SW 239 0 min 0,000 mm 0,0 UV-I 0 W/m 7,7 C 10,7 C 14,5 km/h (3 Bft) 95,45 %
02.11.2017 21:34 12,0 C 7,8 C 75 % 1014,9 hPa 0,0 l/m 8,3 km/h (2 Bft) SW 216 0 min 0,000 mm 0,0 UV-I 0 W/m 7,7 C 10,8 C 12,9 km/h (3 Bft) 92,45 %
02.11.2017 21:36 12,0 C 7,8 C 75 % 1014,8 hPa 0,0 l/m 9,1 km/h (2 Bft) W-SW 237 0 min 0,000 mm 0,0 UV-I 0 W/m 7,7 C 10,3 C 16,1 km/h (3 Bft) 97,37 %
02.11.2017 21:38 11,9 C 7,8 C 75 % 1014,9 hPa 0,0 l/m 7,6 km/h (2 Bft) S-SW 210 0 min 0,000 mm 0,0 UV-I 0 W/m 7,6 C 11,1 C 11,3 km/h (2 Bft) 94,64 %
02.11.2017 21:40 11,9 C 7,8 C 76 % 1014,9 hPa 0,0 l/m 8,2 km/h (2 Bft) W-SW 240 0 min 0,000 mm 0,0 UV-I 0 W/m 7,8 C 10,7 C 12,9 km/h (3 Bft) 95,12 %
02.11.2017 21:42 11,9 C 7,8 C 76 % 1014,9 hPa 0,0 l/m 9,7 km/h (2 Bft) W-SW 242 0 min 0,000 mm 0,0 UV-I 0 W/m 7,8 C 9,9 C 12,9 km/h (3 Bft) 94,00 %
02.11.2017 21:44 11,9 C 7,8 C 76 % 1014,9 hPa 0,0 l/m 9,9 km/h (2 Bft) SW 225 0 min 0,000 mm 0,0 UV-I 0 W/m 7,8 C 9,7 C 16,1 km/h (3 Bft) 95,12 %
02.11.2017 21:46 11,8 C 7,8 C 76 % 1014,9 hPa 0,0 l/m 8,6 km/h (2 Bft) W-SW 242 0 min 0,000 mm 0,0 UV-I 0 W/m 7,7 C 10,4 C 14,5 km/h (3 Bft) 96,23 %
02.11.2017 21:48 11,8 C 7,8 C 76 % 1014,9 hPa 0,0 l/m 9,1 km/h (2 Bft) SW 221 0 min 0,000 mm 0,0 UV-I 0 W/m 7,7 C 10,1 C 12,9 km/h (3 Bft) 95,74 %
02.11.2017 21:50 11,8 C 7,8 C 76 % 1014,9 hPa 0,0 l/m 10,7 km/h (2 Bft) W-NW 286 0 min 0,000 mm 0,0 UV-I 0 W/m 7,7 C 9,2 C 14,5 km/h (3 Bft) 95,45 %
02.11.2017 21:52 11,8 C 7,8 C 76 % 1014,9 hPa 0,0 l/m 8,5 km/h (2 Bft) W 270 0 min 0,000 mm 0,0 UV-I 0 W/m 7,7 C 10,4 C 12,9 km/h (3 Bft) 92,68 %
02.11.2017 21:54 11,9 C 7,8 C 76 % 1014,8 hPa 0,0 l/m 9,4 km/h (2 Bft) W-SW 244 0 min 0,000 mm 0,0 UV-I 0 W/m 7,8 C 10,0 C 14,5 km/h (3 Bft) 96,23 %
02.11.2017 21:56 11,9 C 7,8 C 76 % 1014,7 hPa 0,0 l/m 9,0 km/h (2 Bft) W-SW 252 0 min 0,000 mm 0,0 UV-I 0 W/m 7,8 C 10,2 C 14,5 km/h (3 Bft) 94,44 %
02.11.2017 21:58 11,8 C 7,8 C 76 % 1014,8 hPa 0,0 l/m 8,0 km/h (2 Bft) W 264 0 min 0,000 mm 0,0 UV-I 0 W/m 7,7 C 10,7 C 12,9 km/h (3 Bft) 96,23 %
02.11.2017 22:00 11,9 C 7,8 C 76 % 1014,8 hPa 0,0 l/m 8,9 km/h (2 Bft) W-SW 252 0 min 0,025 mm 0,0 UV-I 0 W/m 7,8 C 10,3 C 12,9 km/h (3 Bft) 92,00 %
02.11.2017 22:03 11,9 C 7,8 C 76 % 1014,8 hPa 0,0 l/m 7,9 km/h (2 Bft) W-SW 244 0 min 0,000 mm 0,0 UV-I 0 W/m 7,8 C 10,9 C 12,9 km/h (3 Bft) 95,52 %
02.11.2017 22:04 11,9 C 7,8 C 76 % 1014,8 hPa 0,0 l/m 7,8 km/h (2 Bft) SW 234 0 min 0,000 mm 0,0 UV-I 0 W/m 7,8 C 11,0 C 11,3 km/h (2 Bft) 92,59 %
02.11.2017 22:06 11,9 C 7,8 C 76 % 1014,8 hPa 0,0 l/m 8,5 km/h (2 Bft) W-SW 238 0 min 0,000 mm 0,0 UV-I 0 W/m 7,8 C 10,5 C 14,5 km/h (3 Bft) 98,11 %
02.11.2017 22:09 11,9 C 7,8 C 76 % 1014,8 hPa 0,0 l/m 8,8 km/h (2 Bft) W-SW 238 0 min 0,000 mm 0,0 UV-I 0 W/m 7,8 C 10,4 C 16,1 km/h (3 Bft) 97,14 %
02.11.2017 22:10 11,8 C 7,8 C 76 % 1014,8 hPa 0,0 l/m 7,5 km/h (2 Bft) W-SW 243 0 min 0,000 mm 0,0 UV-I 0 W/m 7,7 C 11,1 C 11,3 km/h (2 Bft) 100,00 %
02.11.2017 22:14 11,8 C 7,8 C 77 % 1014,8 hPa 0,0 l/m 7,2 km/h (2 Bft) W-SW 243 0 min 0,000 mm 0,0 UV-I 0 W/m 7,9 C 11,3 C 11,3 km/h (2 Bft) 96,12 %
02.11.2017 22:16 11,7 C 7,8 C 77 % 1014,8 hPa 0,0 l/m 8,4 km/h (2 Bft) SW 229 0 min 0,000 mm 0,0 UV-I 0 W/m 7,8 C 10,4 C 12,9 km/h (3 Bft) 94,74 %
02.11.2017 22:18 11,7 C 7,8 C 77 % 1014,8 hPa 0,0 l/m 7,2 km/h (2 Bft) SW 224 0 min 0,000 mm 0,0 UV-I 0 W/m 7,8 C 11,2 C 11,3 km/h (2 Bft) 96,43 %
02.11.2017 22:20 11,7 C 7,8 C 77 % 1014,8 hPa 0,0 l/m 9,9 km/h (2 Bft) W-SW 242 0 min 0,000 mm 0,0 UV-I 0 W/m 7,8 C 9,5 C 16,1 km/h (3 Bft) 97,56 %
02.11.2017 22:22 11,7 C 7,8 C 77 % 1014,9 hPa 0,0 l/m 10,6 km/h (2 Bft) SW 235 0 min 0,000 mm 0,0 UV-I 0 W/m 7,8 C 9,2 C 16,1 km/h (3 Bft) 91,49 %
02.11.2017 22:24 11,7 C 7,8 C 77 % 1014,8 hPa 0,0 l/m 12,7 km/h (3 Bft) SW 219 0 min 0,000 mm 0,0 UV-I 0 W/m 7,8 C 8,2 C 17,7 km/h (3 Bft) 96,00 %
02.11.2017 22:26 11,7 C 7,8 C 77 % 1014,8 hPa 0,0 l/m 9,5 km/h (2 Bft) SW 228 0 min 0,000 mm 0,0 UV-I 0 W/m 7,8 C 9,7 C 14,5 km/h (3 Bft) 98,00 %
02.11.2017 22:28 11,7 C 7,8 C 77 % 1014,8 hPa 0,0 l/m 9,2 km/h (2 Bft) W-SW 251 0 min 0,000 mm 0,0 UV-I 0 W/m 7,8 C 9,9 C 12,9 km/h (3 Bft) 97,37 %
02.11.2017 22:30 11,7 C 7,8 C 77 % 1014,8 hPa 0,0 l/m 12,3 km/h (3 Bft) W-SW 240 0 min 0,000 mm 0,0 UV-I 0 W/m 7,8 C 8,3 C 16,1 km/h (3 Bft) 97,22 %
02.11.2017 22:32 11,7 C 7,8 C 77 % 1014,8 hPa 0,0 l/m 10,7 km/h (2 Bft) W 263 0 min 0,000 mm 0,0 UV-I 0 W/m 7,8 C 9,1 C 16,1 km/h (3 Bft) 96,55 %
02.11.2017 22:34 11,7 C 7,8 C 77 % 1014,9 hPa 0,0 l/m 11,3 km/h (2 Bft) SW 229 0 min 0,000 mm 0,0 UV-I 0 W/m 7,8 C 8,8 C 16,1 km/h (3 Bft) 98,21 %
02.11.2017 22:36 11,8 C 7,8 C 77 % 1014,9 hPa 0,0 l/m 11,0 km/h (2 Bft) W-SW 257 0 min 0,000 mm 0,0 UV-I 0 W/m 7,9 C 9,1 C 17,7 km/h (3 Bft) 97,56 %
02.11.2017 22:38 11,9 C 7,8 C 77 % 1014,9 hPa 0,0 l/m 12,2 km/h (2 Bft) SW 230 0 min 0,000 mm 0,0 UV-I 0 W/m 8,0 C 8,6 C 17,7 km/h (3 Bft) 95,56 %
02.11.2017 22:40 11,9 C 7,8 C 77 % 1014,9 hPa 0,0 l/m 11,4 km/h (2 Bft) W-SW 246 0 min 0,000 mm 0,0 UV-I 0 W/m 8,0 C 9,0 C 19,3 km/h (3 Bft) 100,00 %
02.11.2017 22:42 11,9 C 7,8 C 76 % 1014,9 hPa 0,0 l/m 12,8 km/h (3 Bft) W-SW 243 0 min 0,000 mm 0,0 UV-I 0 W/m 7,8 C 8,3 C 16,1 km/h (3 Bft) 100,00 %
02.11.2017 22:44 12,0 C 7,8 C 76 % 1014,9 hPa 0,0 l/m 12,3 km/h (3 Bft) W-SW 254 0 min 0,000 mm 0,0 UV-I 0 W/m 7,9 C 8,7 C 17,7 km/h (3 Bft) 100,00 %
02.11.2017 22:46 12,0 C 7,8 C 76 % 1014,9 hPa 0,0 l/m 12,2 km/h (2 Bft) W-SW 250 0 min 0,000 mm 0,0 UV-I 0 W/m 7,9 C 8,7 C 17,7 km/h (3 Bft) 100,00 %
02.11.2017 22:48 12,1 C 7,8 C 76 % 1014,9 hPa 0,0 l/m 13,6 km/h (3 Bft) W-SW 247 0 min 0,000 mm 0,0 UV-I 0 W/m 8,0 C 8,2 C 19,3 km/h (3 Bft) 100,00 %
02.11.2017 22:50 12,1 C 7,8 C 76 % 1014,9 hPa 0,0 l/m 14,1 km/h (3 Bft) W-SW 246 0 min 0,000 mm 0,0 UV-I 0 W/m 8,0 C 8,0 C 16,1 km/h (3 Bft) 96,00 %
02.11.2017 22:52 12,1 C 7,8 C 76 % 1015,0 hPa 0,0 l/m 12,5 km/h (3 Bft) W 272 0 min 0,000 mm 0,0 UV-I 0 W/m 8,0 C 8,7 C 20,9 km/h (4 Bft) 100,00 %
02.11.2017 22:54 12,2 C 7,8 C 76 % 1015,0 hPa 0,0 l/m 13,7 km/h (3 Bft) SW 223 0 min 0,000 mm 0,0 UV-I 0 W/m 8,1 C 8,3 C 19,3 km/h (3 Bft) 100,00 %
02.11.2017 22:56 12,1 C 7,8 C 76 % 1015,0 hPa 0,0 l/m 13,3 km/h (3 Bft) W-SW 237 0 min 0,000 mm 0,0 UV-I 0 W/m 8,0 C 8,4 C 20,9 km/h (4 Bft) 100,00 %
02.11.2017 22:58 12,1 C 7,8 C 77 % 1014,9 hPa 0,0 l/m 13,0 km/h (3 Bft) SW 214 0 min 0,000 mm 0,0 UV-I 0 W/m 8,2 C 8,5 C 17,7 km/h (3 Bft) 97,73 %
02.11.2017 23:00 12,1 C 7,8 C 77 % 1014,9 hPa 0,0 l/m 14,3 km/h (3 Bft) W-SW 238 0 min 0,000 mm 0,0 UV-I 0 W/m 8,2 C 8,0 C 19,3 km/h (3 Bft) 100,00 %
02.11.2017 23:02 12,0 C 7,8 C 77 % 1015,0 hPa 0,0 l/m 13,2 km/h (3 Bft) S-SW 209 0 min 0,026 mm 0,0 UV-I 0 W/m 8,1 C 8,3 C 20,9 km/h (4 Bft) 100,00 %
02.11.2017 23:04 11,9 C 7,8 C 77 % 1014,9 hPa 0,0 l/m 11,9 km/h (2 Bft) W-SW 246 0 min 0,000 mm 0,0 UV-I 0 W/m 8,0 C 8,7 C 19,3 km/h (3 Bft) 100,00 %
02.11.2017 23:06 11,9 C 7,8 C 78 % 1015,0 hPa 0,0 l/m 10,5 km/h (2 Bft) W-SW 241 0 min 0,000 mm 0,0 UV-I 0 W/m 8,2 C 9,4 C 19,3 km/h (3 Bft) 100,00 %
02.11.2017 23:08 11,8 C 7,8 C 78 % 1014,9 hPa 0,0 l/m 13,2 km/h (3 Bft) W-SW 238 0 min 0,000 mm 0,0 UV-I 0 W/m 8,1 C 8,1 C 20,9 km/h (4 Bft) 100,00 %
02.11.2017 23:10 11,8 C 7,8 C 78 % 1015,0 hPa 0,0 l/m 14,0 km/h (3 Bft) SW 218 0 min 0,000 mm 0,0 UV-I 0 W/m 8,1 C 7,7 C 22,5 km/h (4 Bft) 98,00 %
02.11.2017 23:12 11,8 C 7,8 C 78 % 1015,0 hPa 0,0 l/m 10,3 km/h (2 Bft) W-SW 237 0 min 0,000 mm 0,0 UV-I 0 W/m 8,1 C 9,4 C 16,1 km/h (3 Bft) 100,00 %
02.11.2017 23:14 11,8 C 7,8 C 78 % 1015,0 hPa 0,0 l/m 12,9 km/h (3 Bft) S-SW 213 0 min 0,000 mm 0,0 UV-I 0 W/m 8,1 C 8,2 C 19,3 km/h (3 Bft) 100,00 %
02.11.2017 23:16 11,8 C 7,8 C 78 % 1015,0 hPa 0,0 l/m 12,6 km/h (3 Bft) SW 217 0 min 0,000 mm 0,0 UV-I 0 W/m 8,1 C 8,3 C 16,1 km/h (3 Bft) 100,00 %
02.11.2017 23:18 11,8 C 7,8 C 78 % 1015,1 hPa 0,0 l/m 10,9 km/h (2 Bft) W 267 0 min 0,000 mm 0,0 UV-I 0 W/m 8,1 C 9,1 C 19,3 km/h (3 Bft) 100,00 %
02.11.2017 23:20 11,7 C 7,8 C 78 % 1015,1 hPa 0,0 l/m 11,2 km/h (2 Bft) W-SW 243 0 min 0,000 mm 0,0 UV-I 0 W/m 8,0 C 8,9 C 17,7 km/h (3 Bft) 100,00 %
02.11.2017 23:23 11,7 C 7,8 C 78 % 1015,1 hPa 0,0 l/m 11,6 km/h (2 Bft) W-SW 240 0 min 0,000 mm 0,0 UV-I 0 W/m 8,0 C 8,7 C 20,9 km/h (4 Bft) 100,00 %
02.11.2017 23:24 11,7 C 7,8 C 78 % 1015,1 hPa 0,0 l/m 10,9 km/h (2 Bft) W-SW 247 0 min 0,000 mm 0,0 UV-I 0 W/m 8,0 C 9,0 C 17,7 km/h (3 Bft) 100,00 %
02.11.2017 23:26 11,7 C 7,8 C 78 % 1015,1 hPa 0,0 l/m 11,4 km/h (2 Bft) W-SW 251 0 min 0,000 mm 0,0 UV-I 0 W/m 8,0 C 8,8 C 14,5 km/h (3 Bft) 100,00 %
02.11.2017 23:28 11,7 C 7,8 C 78 % 1015,1 hPa 0,0 l/m 12,5 km/h (3 Bft) W-SW 248 0 min 0,000 mm 0,0 UV-I 0 W/m 8,0 C 8,2 C 17,7 km/h (3 Bft) 96,00 %
02.11.2017 23:30 11,7 C 7,8 C 77 % 1015,1 hPa 0,0 l/m 15,6 km/h (3 Bft) W-SW 258 0 min 0,000 mm 0,0 UV-I 0 W/m 7,8 C 7,0 C 20,9 km/h (4 Bft) 100,00 %
02.11.2017 23:32 11,8 C 7,8 C 77 % 1015,1 hPa 0,0 l/m 12,3 km/h (3 Bft) W-SW 242 0 min 0,000 mm 0,0 UV-I 0 W/m 7,9 C 8,4 C 17,7 km/h (3 Bft) 100,00 %
02.11.2017 23:34 11,7 C 7,8 C 77 % 1015,1 hPa 0,0 l/m 12,9 km/h (3 Bft) W-SW 257 0 min 0,000 mm 0,0 UV-I 0 W/m 7,8 C 8,1 C 17,7 km/h (3 Bft) 100,00 %
02.11.2017 23:36 11,7 C 7,8 C 78 % 1015,1 hPa 0,0 l/m 10,9 km/h (2 Bft) W-SW 246 0 min 0,000 mm 0,0 UV-I 0 W/m 8,0 C 9,0 C 16,1 km/h (3 Bft) 94,74 %
02.11.2017 23:38 11,7 C 7,8 C 78 % 1015,1 hPa 0,0 l/m 10,8 km/h (2 Bft) W-SW 245 0 min 0,000 mm 0,0 UV-I 0 W/m 8,0 C 9,1 C 20,9 km/h (4 Bft) 98,21 %
02.11.2017 23:40 11,6 C 7,8 C 78 % 1015,2 hPa 0,0 l/m 12,4 km/h (3 Bft) W-SW 238 0 min 0,000 mm 0,0 UV-I 0 W/m 7,9 C 8,2 C 17,7 km/h (3 Bft) 97,37 %
02.11.2017 23:42 11,7 C 7,8 C 78 % 1015,2 hPa 0,0 l/m 10,5 km/h (2 Bft) W-SW 248 0 min 0,000 mm 0,0 UV-I 0 W/m 8,0 C 9,2 C 16,1 km/h (3 Bft) 98,00 %
02.11.2017 23:44 11,7 C 7,8 C 78 % 1015,2 hPa 0,0 l/m 11,9 km/h (2 Bft) W-SW 249 0 min 0,000 mm 0,0 UV-I 0 W/m 8,0 C 8,5 C 16,1 km/h (3 Bft) 94,23 %
02.11.2017 23:46 11,7 C 7,8 C 78 % 1015,3 hPa 0,0 l/m 15,8 km/h (3 Bft) W-SW 239 0 min 0,000 mm 0,0 UV-I 0 W/m 8,0 C 6,9 C 20,9 km/h (4 Bft) 92,68 %
02.11.2017 23:48 11,7 C 7,8 C 78 % 1015,3 hPa 0,0 l/m 13,6 km/h (3 Bft) SW 232 0 min 0,000 mm 0,0 UV-I 0 W/m 8,0 C 7,8 C 19,3 km/h (3 Bft) 98,11 %
02.11.2017 23:50 11,7 C 7,8 C 78 % 1015,2 hPa 0,0 l/m 12,2 km/h (2 Bft) W-SW 246 0 min 0,000 mm 0,0 UV-I 0 W/m 8,0 C 8,4 C 19,3 km/h (3 Bft) 97,56 %
02.11.2017 23:52 11,7 C 7,8 C 77 % 1015,2 hPa 0,0 l/m 13,5 km/h (3 Bft) W 266 0 min 0,000 mm 0,0 UV-I 0 W/m 7,8 C 7,8 C 19,3 km/h (3 Bft) 96,23 %
02.11.2017 23:54 11,8 C 7,8 C 77 % 1015,3 hPa 0,0 l/m 14,5 km/h (3 Bft) W 265 0 min 0,000 mm 0,0 UV-I 0 W/m 7,9 C 7,5 C 22,5 km/h (4 Bft) 97,44 %
02.11.2017 23:56 11,8 C 7,8 C 78 % 1015,3 hPa 0,0 l/m 14,8 km/h (3 Bft) W 261 0 min 0,000 mm 0,0 UV-I 0 W/m 8,1 C 7,4 C 22,5 km/h (4 Bft) 93,62 %
02.11.2017 23:58 11,7 C 7,8 C 77 % 1015,2 hPa 0,0 l/m 14,3 km/h (3 Bft) W-SW 241 0 min 0,000 mm 0,0 UV-I 0 W/m 7,8 C 7,5 C 20,9 km/h (4 Bft) 96,15 %
_ Min-Zeit 03:30 00:00 14:02 14:56 - 00:08 - - - - - - 03:26 03:30 00:08 17:20
Minimum _ 1,6 C 7,8 C 62 % 1013,6 hPa - 0,0 km/h (0 Bft) - - - - - - 1,3 C 1,6 C 0,0 km/h (0 Bft) 90,91 %
_ Max-Zeit 13:56 00:00 00:06 00:10 14:58 14:04 - - 09:19 12:00 11:06 11:24 13:24 13:48 14:04 00:02
Maximum _ 15,2 C 7,8 C 98 % 1021,4 hPa 0,2 l/m 19,4 km/h
W-SW (3 Bft)
- - 3 min 0,229 mm 1,4 UV-I 549 W/m 9,9 C 14,7 C 29,0 km/h
W-SW (5 Bft)
100,00 %
Durchschnitt _ 8,2 C 7,8 C 85 % 1016,3 hPa #0,2 l/m 6,0 km/h (2 Bft) W-SW - #5:48 h #1,499 mm 1,0 UV-I 223 W/m 5,6 C 7,0 C 9,6 km/h (2 Bft) 98,09 %